[[{"header":{"parameterUnit":"m.s-1","parameterCategory":1,"la1":31.0,"la2":29.5877,"lo1":-88.7671,"lo2":-86.6584,"dy":0.0162,"dx":0.0185,"nx":115,"ny":88,"refTime":"2024-08-15T00:00:00:Z","depth":0,"parameterNumber":2,"parameterNumberName":"U-component_of_WINDS"},"data":[0.0,0.0,0.0,0.0,0.0,0.0,0.0,0.0,0.0,0.0,0.0,0.0,0.0,0.0,0.0,0.0,0.0,0.0,0.0,0.0,0.0,0.0,0.0,0.0,0.0,0.0,0.0,0.0,0.0,0.0,0.0,0.0,0.0,0.0,0.0,0.0,0.0,0.0,0.0,0.0,0.0,0.0,0.0,0.0,0.0,0.0,0.0,0.0,0.0,0.0,0.0,0.0,0.0,0.0,0.0,0.0,0.0,0.0,0.0,0.0,0.0,0.0,0.0,0.0,0.0,0.0,0.0,0.0,0.0,0.0,0.0,0.0,0.0,0.0,0.0,0.0,0.0,0.0,0.0,0.0,0.0,0.0,0.0,0.0,0.0,0.0,0.0,0.0,0.0,0.0,0.0,0.0,0.0,0.0,0.0,0.0,0.0,0.0,0.0,0.0,0.0,0.0,0.0,0.0,0.0,0.0,0.0,0.0,0.0,0.0,0.0,0.0,0.0,0.0,0.0,0.0,0.0,0.0,0.0,0.0,0.0,0.0,0.0,0.0,0.0,0.0,0.0,0.0,0.0,0.0,0.0,0.0,0.0,0.0,0.0,0.0,0.0,0.0,0.0,0.0,0.0,0.0,0.0,0.0,0.0,0.0,0.0,0.0,0.0,0.0,0.0,0.0,0.0,0.0,0.0,0.0,0.0,0.0,0.0,0.0,0.0,0.0,0.0,0.0,0.0,0.0,0.0,0.0,0.0,0.0,0.0,0.0,0.0,0.0,0.0,0.0,0.0,0.0,0.0,0.0,0.0,0.0,0.0,0.0,0.0,0.0,0.0,0.0,0.0,0.0,0.0,0.0,0.0,0.0,0.0,0.0,0.0,0.0,0.0,0.0,0.0,0.0,0.0,0.0,0.0,0.0,0.0,0.0,0.0,0.0,0.0,0.0,0.0,0.0,0.0,0.0,0.0,0.0,0.0,0.0,0.0,0.0,0.0,0.0,0.0,0.0,0.0,0.0,0.0,0.0,0.0,0.0,0.0,0.0,0.0,0.0,0.0,0.0,0.0,0.0,0.0,0.0,0.0,0.0,0.0,0.0,0.0,0.0,0.0,0.0,0.0,0.0,0.0,0.0,0.0,0.0,0.0,0.0,0.0,0.0,0.0,0.0,0.0,0.0,0.0,0.0,0.0,0.0,0.0,0.0,0.0,0.0,0.0,0.0,0.0,0.0,0.0,0.0,0.0,0.0,0.0,0.0,0.0,0.0,0.0,0.0,0.0,0.0,0.0,0.0,0.0,0.0,0.0,0.0,0.0,0.0,0.0,0.0,0.0,0.0,0.0,0.0,0.0,0.0,0.0,0.0,0.0,0.0,0.0,0.0,0.0,0.0,0.0,0.0,0.0,0.0,0.0,0.0,0.0,0.0,0.0,0.0,0.0,0.0,0.0,0.0,0.0,0.0,0.0,0.0,0.0,0.0,0.0,0.0,0.0,0.0,0.0,0.0,0.0,0.0,0.0,0.0,0.0,0.0,0.0,0.0,0.0,0.0,0.0,0.0,0.0,0.0,0.0,0.0,0.0,0.0,0.0,0.0,0.0,0.0,0.0,0.0,0.0,0.0,0.0,0.0,0.0,0.0,0.0,0.0,0.0,0.0,0.0,0.0,0.0,0.0,0.0,0.0,0.0,0.0,0.0,0.0,0.0,0.0,0.0,0.0,0.0,0.0,0.0,0.0,0.0,0.0,0.0,0.0,0.0,0.0,0.0,0.0,0.0,0.0,0.0,0.0,0.0,0.0,0.0,0.0,0.0,0.0,0.0,0.0,0.0,0.0,0.0,0.0,0.0,0.0,0.0,0.0,0.0,0.0,0.0,0.0,0.0,0.0,0.0,0.0,0.0,0.0,0.0,0.0,0.0,0.0,0.0,0.0,0.0,0.0,0.0,0.0,0.0,0.0,0.0,0.0,0.0,0.0,0.0,0.0,0.0,0.0,0.0,0.0,0.0,0.0,0.0,0.0,0.0,0.0,0.0,0.0,0.0,0.0,0.0,0.0,0.0,0.0,0.0,0.0,0.0,0.0,0.0,0.0,0.0,0.0,0.0,0.0,0.0,0.0,0.0,0.0,0.0,0.0,0.0,0.0,0.0,0.0,0.0,0.0,0.0,0.0,0.0,0.0,0.0,0.0,0.0,0.0,0.0,0.0,0.0,0.0,0.0,0.0,0.0,0.0,0.0,0.0,0.0,0.0,0.0,0.0,0.0,0.0,0.0,0.0,0.0,0.0,0.0,0.0,0.0,0.0,0.0,0.0,0.0,0.0,0.0,0.0,0.0,0.0,0.0,0.0,0.0,0.0,0.0,0.0,0.0,0.0,0.0,0.0,0.0,0.0,0.0,0.0,0.0,0.0,0.0,0.0,0.0,0.0,0.0,0.0,0.0,0.0,0.0,0.0,0.0,0.0,0.0,0.0,0.0,0.0,0.0,0.0,0.0,0.0,0.0,0.0,0.0,0.0,0.0,0.0,0.0,0.0,0.0,0.0,0.0,0.0,0.0,0.0,0.0,0.0,0.0,0.0,0.0,0.0,0.0,0.0,0.0,0.0,0.0,0.0,0.0,0.0,0.0,0.0,0.0,0.0,0.0,0.0,0.0,0.0,0.0,0.0,0.0,0.0,0.0,0.0,0.0,0.0,0.0,0.0,0.0,0.0,0.0,0.0,0.0,0.0,0.0,0.0,0.0,0.0,0.0,0.0,0.0,0.0,0.0,0.0,0.0,0.0,0.0,0.0,0.0,0.0,0.0,0.0,0.0,0.0,0.0,0.0,0.0,0.0,0.0,0.0,0.0,0.0,0.0,0.0,0.0,0.0,0.0,0.0,0.0,0.0,0.0,0.0,0.0,0.0,0.0,0.0,0.0,0.0,0.0,0.0,0.0,0.0,0.0,0.0,0.0,0.0,0.0,0.0,0.0,0.0,0.0,0.0,0.0,0.0,0.0,0.0,0.0,0.0,0.0,0.0,0.0,0.0,0.0,0.0,0.0,0.0,0.0,0.0,0.0,0.0,0.0,0.0,0.0,0.0,0.0,0.0,0.0,0.0,0.0,0.0,0.0,0.0,0.0,0.0,0.0,0.0,0.0,0.0,0.0,0.0,0.0,0.0,0.0,0.0,0.0,0.0,0.0,0.0,0.0,0.0,0.0,0.0,0.0,0.0,0.0,0.0,0.0,0.0,0.0,0.0,0.0,0.0,0.0,0.0,0.0,0.0,0.0,0.0,0.0,0.0,0.0,0.0,0.0,0.0,0.0,0.0,0.0,0.0,0.0,0.0,0.0,0.0,0.0,0.0,0.0,0.0,0.0,0.0,0.0,0.0,0.0,0.0,0.0,0.0,0.0,0.0,0.0,0.0,0.0,0.0,0.0,0.0,0.0,0.0,0.0,0.0,0.0,0.0,0.0,0.0,0.0,0.0,0.0,0.0,0.0,0.0,0.0,0.0,0.0,0.0,0.0,0.0,0.0,0.0,0.0,0.0,0.0,0.0,0.0,0.0,0.0,0.0,0.0,0.0,0.0,0.0,0.0,0.0,0.0,0.0,0.0,0.0,0.0,0.0,0.0,0.0,0.0,0.0,0.0,0.0,0.0,0.0,0.0,0.0,0.0,0.0,0.0,0.0,0.0,0.0,0.0,0.0,0.0,0.0,0.0,0.0,0.0,0.0,0.0,0.0,0.0,0.0,0.0,0.0,0.0,0.0,0.0,0.0,0.0,0.0,0.0,0.0,0.0,0.0,0.0,0.0,0.0,0.0,0.0,0.0,0.0,0.0,0.0,0.0,0.0,0.0,0.0,0.0,0.0,0.0,0.0,0.0,0.0,0.0,0.0,0.0,0.0,0.0,0.0,0.0,0.0,0.0,0.0,0.0,0.0,0.0,0.0,0.0,0.0,0.0,0.0,0.0,0.0,0.0,0.0,0.0,0.0,0.0,0.0,0.0,0.0,0.0,0.0,0.0,0.0,0.0,0.0,0.0,0.0,0.0,0.0,0.0,0.0,0.0,0.0,0.0,0.0,0.0,0.0,0.0,0.0,0.0,0.0,0.0,0.0,0.0,0.0,0.0,0.0,0.0,0.0,0.0,0.0,0.0,0.0,0.0,0.0,0.0,0.0,0.0,0.0,0.0,0.0,0.0,0.0,0.0,0.0,0.0,0.0,0.0,0.0,0.0,0.0,0.0,0.0,0.0,0.0,0.0,0.0,0.0,0.0,0.0,0.0,0.0,0.0,0.0,-2.8066,0.0,0.0,0.0,0.0,0.0,0.0,0.0,0.0,0.0,0.0,0.0,0.0,0.0,0.0,0.0,0.0,0.0,0.0,0.0,0.0,0.0,0.0,0.0,0.0,0.0,0.0,0.0,0.0,0.0,0.0,0.0,0.0,0.0,0.0,0.0,0.0,0.0,0.0,0.0,0.0,0.0,0.0,0.0,0.0,0.0,0.0,0.0,0.0,0.0,0.0,0.0,0.0,0.0,0.0,0.0,0.0,0.0,0.0,0.0,0.0,0.0,0.0,0.0,0.0,0.0,0.0,0.0,0.0,0.0,0.0,0.0,0.0,0.0,0.0,0.0,0.0,0.0,0.0,0.0,0.0,0.0,0.0,0.0,0.0,0.0,0.0,0.0,0.0,0.0,0.0,0.0,0.0,0.0,0.0,0.0,0.0,0.0,0.0,0.0,0.0,0.0,0.0,0.0,0.0,0.0,0.0,0.0,0.0,0.0,0.0,-3.1339,-3.1084,-3.1435,-3.0728,-2.878,0.0,0.0,0.0,0.0,0.0,0.0,0.0,0.0,0.0,0.0,0.0,0.0,0.0,0.0,0.0,0.0,0.0,0.0,0.0,0.0,0.0,0.0,0.0,0.0,0.0,0.0,0.0,0.0,0.0,0.0,0.0,0.0,0.0,0.0,0.0,0.0,0.0,0.0,0.0,0.0,0.0,0.0,0.0,0.0,0.0,0.0,0.0,0.0,0.0,0.0,0.0,0.0,0.0,0.0,0.0,0.0,0.0,0.0,0.0,0.0,0.0,0.0,0.0,0.0,0.0,0.0,0.0,0.0,0.0,0.0,0.0,0.0,0.0,0.0,0.0,0.0,0.0,0.0,0.0,0.0,0.0,0.0,0.0,0.0,0.0,0.0,0.0,0.0,0.0,0.0,0.0,0.0,0.0,0.0,0.0,0.0,0.0,0.0,0.0,0.0,0.0,0.0,0.0,0.0,0.0,0.0,0.0,0.0,0.0,0.0,0.0,0.0,-3.2589,-3.1868,-2.9916,0.0,0.0,0.0,0.0,0.0,0.0,0.0,0.0,0.0,0.0,0.0,0.0,0.0,0.0,0.0,0.0,0.0,0.0,0.0,0.0,0.0,0.0,0.0,0.0,0.0,0.0,0.0,0.0,0.0,0.0,0.0,0.0,0.0,0.0,0.0,0.0,0.0,0.0,0.0,0.0,0.0,0.0,0.0,0.0,0.0,0.0,0.0,0.0,0.0,0.0,0.0,0.0,0.0,0.0,0.0,0.0,0.0,0.0,0.0,0.0,0.0,0.0,0.0,0.0,0.0,0.0,0.0,0.0,0.0,0.0,0.0,0.0,0.0,0.0,0.0,0.0,0.0,0.0,0.0,0.0,0.0,0.0,0.0,0.0,0.0,0.0,0.0,0.0,0.0,0.0,0.0,0.0,0.0,0.0,0.0,0.0,0.0,0.0,0.0,0.0,0.0,0.0,0.0,0.0,0.0,0.0,0.0,0.0,0.0,0.0,-3.2874,-3.3685,-3.5261,0.0,-3.1777,0.0,0.0,0.0,0.0,0.0,0.0,0.0,0.0,0.0,0.0,0.0,0.0,0.0,0.0,0.0,0.0,0.0,0.0,0.0,0.0,0.0,0.0,0.0,0.0,0.0,0.0,0.0,0.0,0.0,0.0,0.0,0.0,0.0,0.0,0.0,0.0,0.0,0.0,0.0,0.0,0.0,0.0,0.0,0.0,0.0,0.0,0.0,0.0,0.0,0.0,0.0,0.0,0.0,0.0,0.0,0.0,0.0,0.0,0.0,0.0,0.0,0.0,0.0,0.0,0.0,0.0,0.0,0.0,0.0,0.0,0.0,0.0,0.0,0.0,0.0,0.0,0.0,0.0,0.0,0.0,0.0,0.0,0.0,0.0,0.0,0.0,0.0,0.0,0.0,0.0,0.0,0.0,0.0,0.0,0.0,0.0,0.0,0.0,0.0,0.0,0.0,0.0,0.0,0.0,0.0,0.0,0.0,0.0,0.0,0.0,-3.4337,-3.4741,-3.4486,-3.3493,0.0,0.0,0.0,0.0,0.0,0.0,0.0,0.0,0.0,0.0,0.0,0.0,0.0,0.0,0.0,0.0,0.0,0.0,0.0,0.0,0.0,0.0,0.0,0.0,0.0,0.0,0.0,0.0,0.0,0.0,0.0,0.0,0.0,0.0,0.0,0.0,0.0,0.0,0.0,0.0,0.0,0.0,0.0,0.0,0.0,0.0,0.0,0.0,0.0,0.0,0.0,0.0,0.0,0.0,0.0,0.0,0.0,0.0,0.0,0.0,0.0,0.0,0.0,0.0,0.0,0.0,0.0,0.0,0.0,0.0,0.0,0.0,0.0,0.0,0.0,0.0,0.0,0.0,0.0,0.0,0.0,0.0,0.0,0.0,0.0,0.0,0.0,0.0,0.0,0.0,0.0,0.0,0.0,0.0,0.0,0.0,0.0,0.0,0.0,0.0,0.0,0.0,0.0,0.0,0.0,0.0,0.0,0.0,0.0,0.0,-3.4126,-3.5537,-3.6227,-3.5155,-3.3571,-3.1602,0.0,0.0,0.0,0.0,0.0,0.0,0.0,0.0,0.0,0.0,0.0,0.0,0.0,0.0,0.0,0.0,0.0,0.0,0.0,0.0,0.0,0.0,0.0,0.0,0.0,0.0,0.0,0.0,0.0,0.0,0.0,0.0,0.0,0.0,0.0,0.0,0.0,0.0,0.0,0.0,0.0,0.0,0.0,0.0,0.0,0.0,0.0,0.0,0.0,0.0,0.0,0.0,0.0,0.0,0.0,0.0,0.0,0.0,0.0,0.0,0.0,0.0,0.0,0.0,0.0,0.0,0.0,0.0,0.0,0.0,0.0,0.0,0.0,0.0,0.0,0.0,0.0,0.0,0.0,0.0,0.0,0.0,0.0,0.0,0.0,0.0,0.0,0.0,0.0,0.0,0.0,0.0,0.0,0.0,0.0,0.0,0.0,0.0,0.0,0.0,0.0,0.0,0.0,0.0,0.0,0.0,0.0,0.0,-3.6796,-3.5778,-3.6332,-3.8812,-3.8767,-3.6468,0.0,0.0,0.0,0.0,0.0,0.0,0.0,0.0,0.0,0.0,0.0,0.0,0.0,0.0,0.0,0.0,0.0,0.0,0.0,0.0,0.0,0.0,0.0,0.0,0.0,0.0,0.0,0.0,0.0,0.0,0.0,0.0,0.0,0.0,0.0,0.0,0.0,0.0,0.0,0.0,0.0,0.0,0.0,0.0,0.0,0.0,0.0,0.0,0.0,0.0,0.0,0.0,0.0,0.0,0.0,0.0,0.0,0.0,0.0,0.0,0.0,0.0,0.0,0.0,0.0,0.0,0.0,0.0,0.0,0.0,0.0,0.0,0.0,0.0,0.0,0.0,0.0,0.0,0.0,0.0,0.0,0.0,0.0,0.0,0.0,0.0,0.0,0.0,0.0,0.0,0.0,0.0,0.0,0.0,0.0,0.0,0.0,0.0,0.0,0.0,0.0,0.0,0.0,0.0,0.0,0.0,0.0,0.0,0.0,-3.339,-3.5056,-3.7689,-4.1016,-3.7192,-3.4514,0.0,0.0,0.0,0.0,0.0,0.0,0.0,0.0,0.0,0.0,0.0,0.0,0.0,0.0,0.0,0.0,0.0,0.0,0.0,0.0,0.0,0.0,0.0,0.0,0.0,0.0,0.0,0.0,0.0,0.0,0.0,0.0,0.0,0.0,0.0,0.0,0.0,0.0,0.0,0.0,0.0,0.0,0.0,0.0,0.0,0.0,0.0,0.0,0.0,0.0,0.0,0.0,0.0,0.0,0.0,0.0,0.0,0.0,0.0,0.0,0.0,0.0,0.0,0.0,0.0,0.0,0.0,0.0,0.0,0.0,0.0,0.0,0.0,0.0,0.0,0.0,0.0,0.0,0.0,0.0,0.0,0.0,0.0,0.0,0.0,0.0,0.0,0.0,0.0,0.0,0.0,0.0,0.0,0.0,0.0,0.0,0.0,0.0,0.0,0.0,0.0,0.0,0.0,0.0,0.0,0.0,0.0,0.0,0.0,-3.3264,0.0,-3.9404,0.0,-3.7014,-3.4086,0.0,0.0,0.0,0.0,0.0,0.0,0.0,0.0,0.0,0.0,0.0,0.0,0.0,0.0,0.0,0.0,0.0,0.0,0.0,0.0,0.0,0.0,0.0,0.0,0.0,0.0,0.0,0.0,0.0,0.0,0.0,0.0,0.0,0.0,0.0,0.0,0.0,0.0,0.0,0.0,0.0,0.0,0.0,0.0,0.0,0.0,0.0,0.0,0.0,0.0,0.0,0.0,0.0,0.0,0.0,0.0,0.0,0.0,0.0,0.0,0.0,0.0,0.0,0.0,0.0,0.0,0.0,0.0,0.0,0.0,0.0,0.0,0.0,0.0,0.0,0.0,0.0,0.0,0.0,0.0,0.0,0.0,0.0,0.0,0.0,0.0,0.0,0.0,0.0,0.0,0.0,0.0,0.0,0.0,0.0,0.0,0.0,0.0,0.0,0.0,0.0,0.0,0.0,0.0,0.0,0.0,0.0,0.0,-3.2467,-3.7366,-4.0729,-4.133,-3.909,-3.8671,-3.5559,0.0,0.0,0.0,0.0,0.0,0.0,0.0,0.0,0.0,0.0,0.0,0.0,0.0,0.0,0.0,0.0,0.0,0.0,0.0,0.0,0.0,0.0,0.0,0.0,0.0,0.0,0.0,0.0,0.0,0.0,0.0,0.0,0.0,0.0,0.0,0.0,0.0,0.0,0.0,0.0,0.0,0.0,0.0,0.0,0.0,0.0,0.0,0.0,0.0,0.0,0.0,0.0,0.0,0.0,0.0,0.0,0.0,0.0,0.0,0.0,0.0,0.0,0.0,0.0,0.0,0.0,0.0,0.0,0.0,0.0,0.0,0.0,0.0,0.0,0.0,0.0,0.0,0.0,0.0,0.0,0.0,0.0,0.0,0.0,0.0,0.0,0.0,0.0,0.0,0.0,0.0,0.0,0.0,0.0,0.0,0.0,0.0,0.0,0.0,0.0,0.0,0.0,0.0,0.0,0.0,0.0,0.0,0.0,0.0,-3.6709,-3.949,-4.1168,-4.1378,-3.7547,-3.4978,0.0,0.0,0.0,0.0,0.0,0.0,0.0,0.0,0.0,0.0,0.0,0.0,0.0,0.0,0.0,0.0,0.0,0.0,0.0,0.0,0.0,0.0,0.0,0.0,0.0,0.0,0.0,0.0,0.0,0.0,0.0,0.0,0.0,0.0,0.0,0.0,0.0,0.0,0.0,0.0,0.0,0.0,0.0,0.0,0.0,0.0,0.0,0.0,0.0,0.0,0.0,0.0,0.0,0.0,0.0,0.0,0.0,0.0,0.0,0.0,0.0,0.0,0.0,0.0,0.0,0.0,0.0,0.0,0.0,0.0,0.0,0.0,0.0,0.0,0.0,0.0,0.0,0.0,0.0,0.0,0.0,0.0,0.0,0.0,0.0,0.0,0.0,0.0,0.0,0.0,0.0,0.0,0.0,0.0,0.0,0.0,0.0,0.0,0.0,0.0,0.0,0.0,0.0,0.0,0.0,0.0,0.0,0.0,0.0,-3.8115,-4.069,-4.2133,-4.2237,-3.8041,-3.5481,-3.4827,0.0,0.0,0.0,0.0,0.0,0.0,0.0,0.0,0.0,0.0,0.0,0.0,0.0,0.0,0.0,0.0,0.0,0.0,0.0,0.0,0.0,0.0,0.0,0.0,0.0,0.0,0.0,0.0,0.0,0.0,0.0,0.0,0.0,0.0,0.0,0.0,0.0,0.0,0.0,0.0,0.0,0.0,0.0,0.0,0.0,0.0,0.0,0.0,0.0,0.0,0.0,0.0,0.0,0.0,0.0,0.0,0.0,0.0,0.0,0.0,0.0,0.0,0.0,0.0,0.0,0.0,0.0,0.0,0.0,0.0,0.0,0.0,0.0,0.0,0.0,0.0,0.0,0.0,0.0,0.0,0.0,0.0,0.0,0.0,0.0,0.0,0.0,0.0,0.0,0.0,0.0,0.0,0.0,0.0,0.0,0.0,0.0,0.0,0.0,0.0,0.0,0.0,0.0,0.0,0.0,0.0,0.0,0.0,-4.0804,-4.3754,-4.4112,-4.1829,-3.9862,-3.7002,0.0,0.0,0.0,0.0,0.0,0.0,0.0,0.0,0.0,0.0,0.0,0.0,0.0,0.0,0.0,0.0,0.0,0.0,0.0,0.0,0.0,0.0,0.0,0.0,0.0,0.0,0.0,0.0,0.0,0.0,0.0,0.0,0.0,0.0,0.0,0.0,0.0,0.0,0.0,0.0,0.0,0.0,0.0,0.0,0.0,0.0,0.0,0.0,0.0,0.0,0.0,0.0,0.0,0.0,0.0,0.0,0.0,0.0,0.0,0.0,0.0,0.0,0.0,0.0,0.0,0.0,0.0,0.0,0.0,0.0,0.0,0.0,0.0,0.0,0.0,0.0,0.0,0.0,0.0,0.0,0.0,0.0,0.0,0.0,0.0,0.0,0.0,0.0,0.0,0.0,0.0,0.0,0.0,0.0,0.0,0.0,0.0,0.0,0.0,0.0,0.0,0.0,0.0,0.0,0.0,0.0,0.0,0.0,0.0,-4.0072,-4.3469,-4.4972,-4.4246,-4.0816,-3.8023,0.0,0.0,0.0,0.0,0.0,0.0,0.0,0.0,0.0,0.0,0.0,0.0,0.0,0.0,0.0,0.0,0.0,0.0,0.0,0.0,0.0,0.0,0.0,0.0,0.0,0.0,0.0,0.0,0.0,0.0,0.0,0.0,0.0,0.0,0.0,0.0,0.0,0.0,0.0,0.0,0.0,0.0,0.0,0.0,0.0,0.0,0.0,0.0,0.0,0.0,0.0,0.0,0.0,0.0,0.0,0.0,0.0,0.0,0.0,0.0,0.0,0.0,0.0,0.0,0.0,0.0,0.0,0.0,0.0,0.0,0.0,0.0,0.0,0.0,0.0,0.0,0.0,0.0,0.0,0.0,0.0,0.0,0.0,0.0,0.0,0.0,0.0,0.0,0.0,0.0,0.0,0.0,0.0,0.0,0.0,0.0,0.0,0.0,0.0,0.0,0.0,0.0,0.0,0.0,0.0,0.0,0.0,0.0,-3.9242,-4.092,-4.3548,-4.4929,-4.491,-4.1911,-3.9261,0.0,0.0,0.0,0.0,0.0,0.0,0.0,0.0,0.0,0.0,0.0,0.0,0.0,0.0,0.0,0.0,0.0,0.0,0.0,0.0,0.0,0.0,0.0,0.0,0.0,0.0,0.0,0.0,0.0,0.0,0.0,0.0,0.0,0.0,0.0,0.0,0.0,0.0,0.0,0.0,0.0,0.0,0.0,0.0,0.0,0.0,0.0,0.0,0.0,0.0,0.0,0.0,0.0,0.0,0.0,0.0,0.0,0.0,0.0,0.0,0.0,0.0,0.0,0.0,0.0,0.0,0.0,0.0,0.0,0.0,0.0,0.0,0.0,0.0,0.0,0.0,0.0,0.0,0.0,0.0,0.0,0.0,0.0,0.0,0.0,0.0,0.0,0.0,0.0,0.0,0.0,0.0,0.0,0.0,0.0,0.0,0.0,0.0,0.0,0.0,0.0,0.0,0.0,0.0,0.0,0.0,0.0,0.0,-4.0122,-4.2431,-4.3731,-4.4364,-4.4186,-4.28,-4.0396,0.0,0.0,0.0,0.0,0.0,0.0,0.0,0.0,0.0,0.0,0.0,0.0,0.0,0.0,0.0,0.0,0.0,0.0,0.0,0.0,0.0,0.0,0.0,0.0,0.0,0.0,0.0,0.0,0.0,0.0,0.0,0.0,0.0,0.0,0.0,0.0,0.0,0.0,0.0,0.0,0.0,0.0,0.0,0.0,0.0,0.0,0.0,0.0,0.0,0.0,0.0,0.0,0.0,0.0,0.0,0.0,0.0,0.0,0.0,0.0,0.0,0.0,0.0,0.0,0.0,0.0,0.0,0.0,0.0,0.0,0.0,0.0,0.0,0.0,0.0,0.0,0.0,0.0,0.0,0.0,0.0,0.0,0.0,0.0,0.0,0.0,0.0,0.0,0.0,0.0,0.0,0.0,0.0,0.0,0.0,0.0,0.0,0.0,0.0,0.0,0.0,0.0,0.0,0.0,0.0,0.0,0.0,0.0,-4.0411,-4.1576,-4.3417,-4.3966,-4.31,-4.1642,-3.9802,0.0,0.0,0.0,0.0,0.0,0.0,0.0,0.0,0.0,0.0,0.0,0.0,0.0,0.0,0.0,0.0,0.0,0.0,0.0,0.0,0.0,0.0,0.0,0.0,0.0,0.0,0.0,0.0,0.0,0.0,0.0,0.0,0.0,0.0,0.0,0.0,0.0,0.0,0.0,0.0,0.0,0.0,0.0,0.0,0.0,0.0,0.0,0.0,-3.4971,0.0,0.0,0.0,0.0,0.0,0.0,0.0,0.0,0.0,0.0,0.0,0.0,0.0,0.0,0.0,0.0,0.0,0.0,0.0,0.0,0.0,0.0,0.0,0.0,0.0,0.0,0.0,0.0,0.0,0.0,0.0,0.0,0.0,0.0,0.0,0.0,0.0,0.0,0.0,0.0,0.0,0.0,0.0,0.0,0.0,0.0,0.0,0.0,0.0,0.0,0.0,0.0,0.0,0.0,0.0,0.0,0.0,0.0,0.0,-4.1029,-4.2274,-4.3005,-4.3107,-4.2456,-4.092,-3.9065,0.0,0.0,0.0,0.0,0.0,0.0,0.0,0.0,0.0,0.0,0.0,0.0,0.0,0.0,0.0,0.0,0.0,0.0,0.0,0.0,0.0,0.0,0.0,0.0,0.0,0.0,0.0,0.0,0.0,0.0,0.0,0.0,0.0,0.0,0.0,0.0,0.0,0.0,0.0,0.0,0.0,0.0,0.0,0.0,0.0,0.0,0.0,0.0,0.0,0.0,0.0,0.0,0.0,0.0,0.0,0.0,0.0,0.0,0.0,0.0,0.0,0.0,0.0,0.0,0.0,0.0,0.0,0.0,0.0,0.0,0.0,0.0,0.0,0.0,0.0,0.0,0.0,0.0,0.0,0.0,0.0,0.0,0.0,0.0,0.0,0.0,0.0,0.0,0.0,0.0,0.0,0.0,0.0,0.0,0.0,0.0,0.0,0.0,0.0,0.0,0.0,0.0,0.0,0.0,0.0,0.0,0.0,-3.9953,-4.1516,-4.3248,-4.2675,-4.2197,-4.1984,-4.0455,-3.8346,-3.572,0.0,0.0,0.0,0.0,0.0,0.0,0.0,0.0,0.0,0.0,0.0,0.0,0.0,0.0,0.0,0.0,0.0,0.0,0.0,0.0,0.0,0.0,0.0,0.0,0.0,0.0,0.0,0.0,0.0,0.0,0.0,0.0,0.0,0.0,0.0,0.0,0.0,0.0,-3.2188,-3.488,0.0,0.0,0.0,0.0,0.0,0.0,0.0,0.0,-3.8637,0.0,0.0,0.0,0.0,0.0,0.0,0.0,0.0,0.0,0.0,0.0,0.0,0.0,0.0,0.0,0.0,0.0,0.0,0.0,0.0,0.0,0.0,0.0,0.0,0.0,0.0,0.0,0.0,0.0,0.0,0.0,0.0,0.0,0.0,0.0,0.0,0.0,0.0,0.0,0.0,0.0,0.0,0.0,0.0,0.0,0.0,0.0,0.0,0.0,0.0,0.0,0.0,0.0,0.0,0.0,0.0,-4.0057,-3.992,-4.0933,-4.316,-4.2623,-4.1941,-4.1216,-4.0147,-3.7788,-3.4083,0.0,0.0,0.0,0.0,0.0,0.0,0.0,0.0,0.0,0.0,0.0,0.0,0.0,0.0,0.0,0.0,0.0,0.0,0.0,0.0,0.0,0.0,0.0,0.0,0.0,0.0,0.0,0.0,0.0,0.0,0.0,0.0,0.0,0.0,0.0,0.0,0.0,0.0,0.0,-3.7003,-3.9031,0.0,0.0,0.0,0.0,0.0,0.0,0.0,0.0,-3.9895,0.0,0.0,0.0,0.0,0.0,0.0,0.0,0.0,0.0,0.0,0.0,0.0,0.0,0.0,0.0,0.0,0.0,0.0,0.0,0.0,0.0,0.0,0.0,0.0,0.0,0.0,0.0,0.0,0.0,0.0,0.0,0.0,0.0,0.0,0.0,0.0,0.0,0.0,0.0,0.0,0.0,0.0,0.0,0.0,0.0,0.0,0.0,0.0,0.0,0.0,0.0,0.0,0.0,0.0,0.0,-3.917,-4.0688,-4.1776,-4.2468,-4.1896,-4.1126,-4.0204,-3.8583,-3.637,0.0,0.0,0.0,0.0,0.0,0.0,0.0,0.0,0.0,0.0,0.0,0.0,0.0,0.0,0.0,0.0,0.0,0.0,0.0,0.0,0.0,0.0,0.0,0.0,0.0,0.0,0.0,0.0,0.0,0.0,0.0,0.0,0.0,0.0,0.0,0.0,0.0,0.0,0.0,0.0,-3.7918,-3.9281,-3.998,0.0,0.0,0.0,0.0,0.0,0.0,-4.0174,-4.0478,0.0,0.0,0.0,0.0,0.0,0.0,0.0,0.0,0.0,0.0,0.0,0.0,0.0,0.0,0.0,0.0,0.0,0.0,0.0,0.0,0.0,0.0,0.0,0.0,0.0,0.0,0.0,0.0,0.0,0.0,0.0,0.0,0.0,0.0,0.0,0.0,0.0,0.0,0.0,0.0,0.0,0.0,0.0,0.0,0.0,0.0,0.0,0.0,0.0,0.0,0.0,0.0,0.0,0.0,0.0,-3.7991,-4.087,-4.2141,-4.1669,-4.0989,-4.0276,-3.9504,-3.7369,-3.5321,0.0,0.0,0.0,0.0,0.0,0.0,0.0,0.0,0.0,0.0,0.0,0.0,0.0,0.0,0.0,0.0,0.0,0.0,0.0,0.0,0.0,0.0,0.0,0.0,0.0,0.0,0.0,0.0,0.0,0.0,0.0,0.0,0.0,0.0,0.0,0.0,0.0,0.0,0.0,0.0,0.0,-3.9664,-4.0073,-4.0339,0.0,0.0,0.0,0.0,-4.1183,-4.074,0.0,0.0,0.0,0.0,0.0,0.0,0.0,0.0,0.0,0.0,0.0,0.0,0.0,0.0,0.0,0.0,0.0,0.0,0.0,0.0,0.0,0.0,0.0,0.0,0.0,0.0,0.0,0.0,0.0,0.0,0.0,0.0,0.0,0.0,0.0,0.0,0.0,0.0,0.0,0.0,0.0,0.0,0.0,0.0,0.0,0.0,0.0,0.0,0.0,0.0,0.0,0.0,0.0,0.0,0.0,0.0,-3.7104,-3.8964,-4.0232,-4.0778,-4.0136,-3.9679,-3.9469,-3.7851,-3.5825,0.0,0.0,0.0,0.0,0.0,0.0,0.0,0.0,0.0,0.0,0.0,0.0,0.0,0.0,0.0,0.0,0.0,0.0,0.0,0.0,0.0,0.0,0.0,0.0,0.0,0.0,0.0,0.0,0.0,0.0,0.0,0.0,0.0,0.0,0.0,0.0,0.0,0.0,0.0,0.0,0.0,-4.1663,-4.1056,-4.0987,-4.1069,0.0,0.0,-4.147,-4.1775,-4.1755,0.0,0.0,0.0,0.0,0.0,0.0,0.0,0.0,0.0,0.0,0.0,0.0,0.0,0.0,0.0,0.0,0.0,0.0,0.0,0.0,0.0,0.0,0.0,0.0,0.0,0.0,0.0,0.0,0.0,0.0,0.0,0.0,0.0,0.0,0.0,0.0,0.0,0.0,0.0,0.0,0.0,0.0,0.0,0.0,0.0,0.0,0.0,0.0,0.0,0.0,0.0,0.0,0.0,0.0,0.0,-3.5217,-3.6895,-3.9441,-4.049,-3.9982,-3.9705,-3.9149,-3.8383,-3.6472,-3.456,0.0,0.0,0.0,0.0,0.0,0.0,0.0,0.0,0.0,0.0,0.0,0.0,0.0,0.0,0.0,0.0,0.0,0.0,0.0,0.0,0.0,0.0,0.0,0.0,0.0,0.0,0.0,0.0,0.0,0.0,0.0,0.0,0.0,0.0,0.0,0.0,0.0,0.0,0.0,0.0,0.0,0.0,-4.168,-4.1377,0.0,0.0,0.0,-4.1405,-4.1669,0.0,0.0,0.0,0.0,0.0,0.0,0.0,0.0,0.0,0.0,0.0,0.0,0.0,0.0,0.0,0.0,0.0,0.0,0.0,0.0,0.0,0.0,0.0,0.0,0.0,0.0,0.0,0.0,0.0,0.0,0.0,0.0,0.0,0.0,0.0,0.0,0.0,0.0,0.0,0.0,0.0,0.0,0.0,0.0,0.0,0.0,0.0,0.0,0.0,0.0,0.0,0.0,0.0,0.0,0.0,0.0,0.0,-3.6182,-3.9174,-4.0092,-3.878,-3.8797,-3.8349,-3.7322,-3.5331,0.0,0.0,0.0,0.0,0.0,0.0,0.0,0.0,0.0,0.0,0.0,0.0,0.0,0.0,0.0,0.0,0.0,0.0,0.0,0.0,0.0,0.0,0.0,0.0,0.0,0.0,0.0,-2.4968,0.0,0.0,0.0,0.0,0.0,0.0,0.0,0.0,0.0,0.0,0.0,0.0,0.0,0.0,-4.0521,-4.1534,-4.1422,-4.1253,0.0,0.0,-4.1415,-4.1728,-4.1226,-4.096,0.0,0.0,0.0,0.0,0.0,0.0,0.0,0.0,0.0,0.0,0.0,0.0,0.0,0.0,0.0,0.0,0.0,0.0,0.0,0.0,0.0,0.0,0.0,0.0,0.0,0.0,0.0,0.0,0.0,0.0,0.0,0.0,0.0,0.0,0.0,0.0,0.0,0.0,0.0,0.0,0.0,0.0,0.0,0.0,0.0,0.0,0.0,0.0,0.0,0.0,0.0,0.0,0.0,0.0,0.0,-3.4431,-3.6873,-3.7792,-3.6948,-3.6992,-3.6992,-3.6731,-3.5227,-3.3631,0.0,0.0,0.0,0.0,0.0,0.0,0.0,0.0,0.0,0.0,0.0,0.0,0.0,0.0,0.0,0.0,0.0,0.0,0.0,0.0,0.0,0.0,0.0,0.0,0.0,0.0,0.0,0.0,0.0,0.0,0.0,0.0,0.0,0.0,0.0,0.0,0.0,0.0,0.0,0.0,0.0,-4.07,-4.0053,-4.0866,-4.1626,0.0,0.0,-4.1931,-4.2198,-4.2185,-4.1725,-4.0374,0.0,0.0,0.0,0.0,0.0,0.0,0.0,0.0,0.0,0.0,0.0,0.0,0.0,0.0,0.0,0.0,0.0,0.0,0.0,0.0,0.0,0.0,0.0,0.0,0.0,0.0,0.0,0.0,0.0,0.0,0.0,0.0,0.0,0.0,0.0,0.0,0.0,0.0,0.0,0.0,0.0,0.0,0.0,0.0,0.0,0.0,0.0,0.0,0.0,0.0,0.0,0.0,0.0,-3.3667,-3.4154,-3.6551,-3.7376,-3.6606,-3.6611,-3.6525,-3.6215,-3.4731,-3.3093,0.0,0.0,0.0,0.0,0.0,0.0,0.0,0.0,0.0,0.0,0.0,0.0,0.0,0.0,0.0,0.0,0.0,0.0,0.0,0.0,0.0,0.0,0.0,0.0,0.0,0.0,0.0,0.0,-2.9313,-2.9832,-3.0668,0.0,0.0,0.0,0.0,0.0,0.0,0.0,0.0,0.0,0.0,-3.9948,-4.0096,-4.0513,0.0,0.0,-4.1333,-4.1463,-4.1805,-4.146,-4.0912,-4.0353,-4.0088,0.0,0.0,0.0,0.0,0.0,0.0,0.0,0.0,0.0,0.0,0.0,0.0,0.0,0.0,0.0,0.0,0.0,0.0,0.0,0.0,0.0,0.0,0.0,0.0,0.0,0.0,0.0,0.0,0.0,0.0,0.0,0.0,0.0,0.0,0.0,0.0,0.0,0.0,0.0,0.0,0.0,0.0,0.0,0.0,0.0,0.0,0.0,0.0,0.0,0.0,0.0,0.0,-3.3437,-3.3679,-3.6032,-3.6762,-3.5765,-3.5993,-3.5797,-3.5009,-3.3986,-3.2562,0.0,0.0,0.0,0.0,0.0,0.0,0.0,0.0,0.0,0.0,0.0,0.0,0.0,0.0,0.0,0.0,0.0,0.0,0.0,0.0,0.0,0.0,0.0,0.0,0.0,0.0,0.0,0.0,-3.0461,-3.0861,-3.2071,0.0,0.0,0.0,0.0,0.0,0.0,0.0,0.0,0.0,0.0,-3.9327,-3.9834,-4.0002,-4.0226,-4.0642,-4.0808,-4.1013,-4.1351,-4.1218,-4.0929,-4.039,0.0,0.0,0.0,0.0,0.0,0.0,0.0,0.0,0.0,0.0,0.0,0.0,0.0,0.0,0.0,0.0,0.0,0.0,0.0,0.0,0.0,0.0,0.0,0.0,0.0,0.0,0.0,0.0,0.0,0.0,-2.5735,0.0,0.0,0.0,0.0,0.0,0.0,0.0,0.0,0.0,0.0,0.0,0.0,0.0,0.0,0.0,0.0,0.0,0.0,0.0,0.0,0.0,0.0,-3.2763,-3.2779,-3.5095,-3.5559,-3.4157,-3.4883,-3.4571,-3.3089,-3.2917,-3.2136,-3.0543,0.0,0.0,0.0,0.0,0.0,0.0,0.0,0.0,0.0,0.0,0.0,0.0,0.0,0.0,0.0,0.0,0.0,0.0,0.0,0.0,0.0,0.0,0.0,0.0,0.0,0.0,-3.1907,-3.1702,-3.1814,0.0,0.0,0.0,0.0,0.0,0.0,0.0,0.0,0.0,0.0,-3.8292,-3.899,-3.905,-3.9365,-3.9697,-3.9995,-4.0351,-4.0707,-4.1018,-4.1893,-4.2053,0.0,0.0,0.0,0.0,0.0,0.0,0.0,0.0,0.0,0.0,0.0,0.0,0.0,0.0,0.0,0.0,0.0,0.0,0.0,0.0,0.0,0.0,0.0,0.0,0.0,0.0,0.0,-2.8404,-2.8136,0.0,0.0,0.0,0.0,0.0,0.0,0.0,0.0,0.0,0.0,0.0,-3.2762,-3.3402,0.0,0.0,0.0,0.0,0.0,0.0,0.0,0.0,0.0,0.0,0.0,0.0,-3.3448,-3.3531,-3.5179,-3.5369,-3.3925,-3.4153,-3.3804,-3.2818,-3.2282,-3.1331,-2.981,0.0,0.0,0.0,0.0,0.0,0.0,0.0,0.0,0.0,0.0,0.0,0.0,0.0,0.0,0.0,0.0,0.0,0.0,0.0,0.0,0.0,0.0,0.0,0.0,0.0,-3.2864,0.0,0.0,0.0,0.0,0.0,0.0,0.0,0.0,0.0,0.0,0.0,-3.7523,-3.7968,-3.8547,-3.8746,-3.8323,-3.8567,-3.909,0.0,0.0,0.0,0.0,0.0,0.0,0.0,0.0,0.0,0.0,0.0,0.0,0.0,0.0,-4.2404,-4.0871,-4.0132,-3.9732,-3.9537,0.0,0.0,0.0,0.0,0.0,0.0,0.0,0.0,0.0,0.0,0.0,0.0,0.0,0.0,-2.992,0.0,-2.9149,0.0,0.0,0.0,0.0,0.0,0.0,0.0,0.0,-3.3782,-3.4249,-3.4156,-3.4792,-3.4672,0.0,-3.4079,-3.3916,0.0,0.0,0.0,0.0,0.0,0.0,0.0,0.0,-3.3991,-3.3826,-3.5223,-3.5164,-3.3508,-3.3905,-3.3481,-3.2,-3.1466,-3.0575,-2.919,-2.9165,-2.9,0.0,0.0,0.0,0.0,0.0,0.0,0.0,0.0,0.0,0.0,0.0,0.0,0.0,0.0,0.0,0.0,0.0,0.0,0.0,0.0,0.0,0.0,0.0,-3.2913,0.0,0.0,0.0,0.0,0.0,0.0,0.0,0.0,0.0,-3.7345,-3.7594,-3.7815,-3.8019,-3.8231,-3.8221,-3.7804,0.0,0.0,0.0,0.0,0.0,0.0,0.0,-4.0768,-4.0867,-4.0521,-4.0474,-4.1197,-4.1801,-4.2137,-4.2019,0.0,0.0,-4.1222,-4.0681,-4.0452,-4.0276,-3.9839,-3.9399,-3.9084,-3.8843,-3.8563,0.0,0.0,0.0,0.0,0.0,0.0,0.0,0.0,-3.2165,-3.1744,0.0,-3.1085,0.0,0.0,0.0,0.0,0.0,0.0,0.0,0.0,-3.5353,-3.5968,-3.5339,-3.5968,-3.6322,-3.6384,-3.6858,-3.6514,-3.526,-3.4101,0.0,0.0,0.0,0.0,0.0,0.0,-3.4321,-3.3719,-3.5191,-3.4925,-3.2856,-3.4048,-3.3379,-3.0591,-3.0459,-2.9908,-2.8812,-2.9884,-2.9632,-2.769,-2.8154,0.0,0.0,0.0,0.0,0.0,0.0,0.0,0.0,0.0,0.0,0.0,0.0,0.0,0.0,0.0,0.0,0.0,0.0,0.0,0.0,-3.1554,0.0,0.0,0.0,0.0,0.0,0.0,0.0,0.0,0.0,0.0,-3.7121,-3.7881,-3.81,-3.75,0.0,0.0,0.0,0.0,-3.7417,-3.7464,-3.8376,-3.8878,-3.8296,-3.9621,-4.0369,-3.9385,0.0,0.0,-4.128,-4.1868,-4.221,-4.198,-4.246,-4.3095,-4.2992,-4.2337,-4.1912,-4.1826,-4.0607,-3.9598,-3.921,-3.8515,-3.7897,-3.3953,0.0,0.0,0.0,0.0,-3.3046,-3.3021,-3.3138,-3.2949,-3.2724,-3.2422,-3.1783,0.0,0.0,0.0,0.0,0.0,0.0,-3.3933,-3.4709,-3.5263,-3.5337,-3.5167,-3.5377,-3.5222,-3.4776,-3.5073,-3.5277,-3.5341,-3.5017,-3.4297,-3.321,0.0,0.0,0.0,0.0,-3.4013,-3.4283,-3.5317,-3.4849,-3.2813,-3.2818,-3.1735,-2.9418,-2.9348,-2.9139,-2.8728,-2.947,-2.9585,-2.8921,-2.9481,0.0,0.0,0.0,0.0,0.0,0.0,0.0,0.0,0.0,0.0,0.0,0.0,0.0,0.0,0.0,0.0,0.0,0.0,0.0,-3.194,-3.1634,-3.1981,0.0,0.0,0.0,0.0,0.0,0.0,0.0,0.0,0.0,-3.5651,-3.6522,-3.7256,0.0,0.0,-3.7652,-3.7198,-3.7284,-3.7591,-3.8081,0.0,0.0,0.0,-3.9157,-3.9246,-3.9448,-3.9647,-3.9613,-3.9126,-3.9446,-3.9917,-4.023,-4.0476,-4.0756,-4.1209,-4.1705,-4.1767,-4.1274,-3.9974,-3.8933,-3.8733,-3.7737,-3.6876,-3.4416,-3.4468,-3.4288,-3.4087,-3.3904,-3.3652,-3.3615,-3.3733,-3.36,-3.3469,-3.3339,-3.2785,-3.1866,-3.069,-3.0685,0.0,0.0,0.0,-3.3757,-3.4351,-3.4271,-3.409,-3.3882,-3.3882,-3.3846,-3.3753,-3.4141,-3.4541,-3.499,-3.527,-3.4786,-3.3598,0.0,0.0,-3.3635,-3.3609,-3.3736,-3.4098,-3.4398,-3.3854,-3.2396,-3.1755,-3.0854,-2.9673,-2.9343,-2.8918,-2.8415,-2.9171,-2.949,-2.9232,-2.9761,-2.9904,0.0,0.0,0.0,0.0,0.0,0.0,0.0,0.0,0.0,0.0,0.0,-2.8838,-2.788,0.0,0.0,0.0,-3.0589,-3.1673,-3.2669,-3.2321,0.0,0.0,0.0,0.0,0.0,0.0,0.0,-3.5074,-3.521,-3.5169,-3.4966,-3.5362,-3.5881,-3.6421,-3.6839,-3.6954,-3.6538,0.0,-3.7184,-3.7637,-3.7934,-3.8153,-3.8341,-3.8247,-3.8215,-3.8527,-3.8515,-3.8395,-3.8168,-3.8322,-3.864,-3.9102,-3.9262,-3.9368,-3.9723,-4.0273,-4.0585,-4.0356,-3.9416,-3.8543,-3.8237,-3.718,-3.6367,-3.4303,-3.4308,-3.3641,-3.3775,-3.4341,-3.379,-3.3743,-3.4079,-3.4059,-3.402,-3.3896,-3.3848,-3.2844,-3.119,-3.1077,0.0,0.0,-3.3665,-3.3344,-3.2839,-3.2806,-3.2525,-3.1997,-3.1982,-3.2395,-3.3192,-3.3789,-3.4192,-3.4419,-3.5004,-3.4957,-3.4343,-3.4925,-3.4911,-3.4295,-3.3658,-3.3388,-3.3475,-3.2913,-3.2298,-3.1653,-3.0928,-3.0541,-3.0437,-2.9813,-2.8931,-2.79,-2.8918,-2.9315,-2.8934,-2.9377,-2.9653,-2.9566,0.0,0.0,0.0,0.0,0.0,0.0,0.0,0.0,0.0,0.0,0.0,0.0,0.0,0.0,0.0,-3.1233,0.0,-3.3283,-3.3319,0.0,0.0,0.0,-3.3319,-3.3452,-3.3888,-3.4161,-3.4203,0.0,0.0,-3.4809,0.0,-3.4206,-3.471,-3.5285,-3.564,-3.572,-3.6116,-3.646,-3.6553,-3.7015,-3.7231,-3.6832,-3.7093,-3.7342,-3.7156,-3.718,-3.7462,-3.7796,-3.7831,-3.8032,-3.8367,-3.8477,-3.8423,-3.8494,-3.8446,-3.8538,-3.9088,-3.878,-3.8262,-3.7624,-3.6848,-3.6301,-3.3575,-3.3919,-3.2848,-3.3138,-3.4351,-3.3964,-3.391,-3.4059,-3.3833,-3.3709,-3.364,-3.3515,-3.3177,-3.2726,-3.2407,-3.253,-3.2944,-3.2608,-3.2346,-3.2197,-3.2065,-3.1914,-3.1772,-3.1772,-3.2146,-3.281,-3.3063,-3.3547,-3.4182,-3.4351,-3.4413,-3.4401,-3.4519,-3.4496,-3.4251,-3.274,-3.242,-3.3336,-3.2369,-3.1608,-3.1121,-3.0508,-2.9694,-2.8598,-2.8381,-2.7906,-2.7107,-2.8257,-2.8862,-2.8794,-2.9769,-3.0132,-2.961,-2.8799,0.0,0.0,0.0,0.0,0.0,0.0,0.0,0.0,0.0,-3.0651,-2.9497,0.0,-3.2007,0.0,-3.2495,-3.322,-3.3894,-3.3557,0.0,0.0,-3.3972,-3.3691,-3.4641,-3.4014,-3.3683,-3.4147,-3.3796,-3.3558,-3.3698,-3.3571,-3.3542,-3.3667,-3.4505,-3.5219,-3.564,-3.5784,-3.6053,-3.6413,-3.6614,-3.6676,-3.6538,-3.6615,-3.6723,-3.6647,-3.6677,-3.6739,-3.6861,-3.6456,-3.6275,-3.6765,-3.6506,-3.6396,-3.6815,-3.6911,-3.6934,-3.6949,-3.717,-3.741,-3.7204,-3.6676,-3.6229,-3.2968,-3.2982,-3.2217,-3.2448,-3.3326,-3.314,-3.3039,-3.3011,-3.2823,-3.2735,-3.2661,-3.2545,-3.2511,-3.2469,-3.2247,-3.2173,-3.2145,-3.1905,-3.1598,-3.1342,-3.1231,-3.1025,-3.0757,-3.0757,-3.1146,-3.1867,-3.2203,-3.2792,-3.3561,-3.3862,-3.4074,-3.4142,-3.4191,-3.4185,-3.4055,-3.267,-3.2287,-3.2916,-3.1742,-3.1024,-3.0769,-3.0469,-2.9652,-2.834,-2.8516,-2.8184,-2.7244,-2.8434,-2.8971,-2.8752,-2.9929,-3.0378,-2.9941,-2.9535,-2.9188,0.0,0.0,0.0,0.0,0.0,0.0,0.0,0.0,0.0,0.0,0.0,-3.282,0.0,-3.3333,0.0,-3.4161,-3.4169,-3.4444,-3.5119,-3.4309,-3.3964,-3.4674,-3.3902,-3.3417,-3.3754,-3.3487,-3.3276,-3.3276,-3.3276,-3.3276,-3.3276,-3.3819,-3.4404,-3.489,-3.5187,-3.5447,-3.5752,-3.599,-3.6226,-3.646,-3.6492,-3.6492,-3.6492,-3.6492,-3.6399,-3.6138,-3.5768,-3.5549,-3.5533,-3.5245,-3.5093,-3.5427,-3.5481,-3.5421,-3.5349,-3.5489,-3.5914,-3.6479,-3.6331,-3.6101,-3.2345,-3.1917,-3.1584,-3.1588,-3.1821,-3.1703,-3.1695,-3.1707,-3.1674,-3.1603,-3.1485,-3.1485,-3.1485,-3.1485,-3.1415,-3.1373,-3.1373,-3.1274,-3.0937,-3.0385,-3.0371,-3.0122,-2.9617,-2.9602,-3.002,-3.0768,-3.1306,-3.1981,-3.2892,-3.3462,-3.3811,-3.3882,-3.3896,-3.3896,-3.3874,-3.3023,-3.2463,-3.2188,-3.1118,-3.0582,-3.0612,-3.0612,-3.0045,-2.8927,-2.9334,-2.9044,-2.7927,-2.9015,-2.9435,-2.9,-3.0117,-3.0693,-3.054,-3.0332,-3.0378,0.0,-3.0027,0.0,0.0,0.0,0.0,0.0,0.0,0.0,0.0,-3.3157,-3.3522,-3.3417,-3.395,-3.4315,-3.4315,-3.4773,-3.5077,-3.5062,-3.4478,-3.4076,-3.4048,-3.3599,-3.3276,-3.3276,-3.3276,-3.3276,-3.3276,-3.3276,-3.3276,-3.3312,-3.3347,-3.3577,-3.3962,-3.4476,-3.481,-3.489,-3.5299,-3.572,-3.607,-3.6181,-3.612,-3.6213,-3.606,-3.5999,-3.5445,-3.5275,-3.5013,-3.4489,-3.4272,-3.4195,-3.4243,-3.4082,-3.4006,-3.4089,-3.4082,-3.4407,-3.5503,-3.5839,-3.591,-3.1204,-3.1472,-3.0439,-3.0312,-3.0753,-3.026,-3.069,-3.1721,-3.157,-3.1518,-3.1485,-3.1485,-3.1485,-3.1443,-3.0937,-3.0712,-3.0652,-3.0193,-2.9897,-2.9771,-2.9785,-2.9729,-2.9602,-2.9602,-2.9926,-3.0548,-3.0688,-3.142,-3.2738,-3.2865,-3.326,-3.3882,-3.3896,-3.3896,-3.3854,0.0,0.0,0.0,-3.0472,-3.0447,-3.0598,-3.0612,-3.0219,-2.9479,-2.9537,0.0,-2.8594,-2.9565,-3.0111,-3.0039,-3.1065,0.0,0.0,0.0,0.0,0.0,0.0,0.0,0.0,0.0,0.0,0.0,-3.2027,-3.2205,-3.3087,-3.4155,-3.4604,-3.4104,-3.4618,-3.502,-3.502,-3.4632,-3.4371,-3.4343,-3.3824,-3.3494,-3.3459,-3.3347,-3.3276,-3.3276,-3.3276,-3.3276,-3.3241,-3.3276,-3.3276,-3.3241,-3.3276,-3.3347,-3.3452,-3.3894,-3.4409,-3.481,-3.4975,-3.5073,-3.5172,-3.4852,-3.4745,-3.4875,-3.4591,-3.444,-3.4587,-3.4183,-3.3829,-3.3598,-3.3167,-3.2829,-3.2813,-3.277,-3.2956,-3.3324,-3.3356,-3.3716,-3.4793,-3.5115,-3.5316,-3.0512,0.0,-2.9883,-2.9785,0.0,-2.9712,-2.9985,-3.0658,-3.059,-3.0572,-3.0558,-3.0558,-3.0572,-3.0544,-3.0221,-3.0034,-3.002,-2.9757,-2.9602,-2.9602,-2.9602,-2.9602,-2.9602,-2.9602,-2.9757,-3.0048,-3.0357,-3.1054,-3.2069,-3.2427,-3.2928,-3.3605,-3.3605,-3.3605,-3.3577,-3.2968,-3.1976,-3.0661,-3.0647,-3.0709,-3.0816,-3.0908,-3.078,-3.046,0.0,0.0,0.0,0.0,0.0,0.0,0.0,0.0,0.0,0.0,0.0,-3.0807,-2.9967,-2.9825,-3.0605,-3.0258,-3.0491,-3.1568,-3.2085,-3.2895,-3.4153,-3.5105,-3.5222,-3.4301,-3.4534,-3.4576,-3.4267,-3.3958,-3.3754,-3.374,-3.3473,-3.3241,-3.3051,-3.3002,-3.2945,-3.2731,-3.2717,-3.2717,-3.2696,-3.2731,-3.2682,-3.2717,-3.2682,-3.2731,-3.2753,-3.3297,-3.3894,-3.4409,-3.4509,-3.4493,-3.4463,-3.4248,-3.3883,-3.3868,-3.3587,-3.3487,-3.3588,-3.3326,-3.3033,-3.2926,-3.2613,-3.2398,-3.2398,-3.2398,-3.2492,-3.2707,-3.2788,-3.3039,-3.3853,-3.4268,-3.4577,-3.008,-2.9617,-2.9602,-2.9602,-2.9602,-2.9602,-2.9602,-2.9602,0.0,0.0,0.0,-2.9602,-2.9602,-2.9602,-2.9602,-2.9602,-2.9602,-2.9602,-2.9602,-2.9602,-2.9602,-2.9602,-2.9602,-2.9602,-2.9602,-2.9645,-3.0235,-3.0853,-3.1499,-3.2117,-3.2707,-3.3234,-3.3276,-3.3276,-3.3248,-3.282,-3.2139,-3.1311,-3.1173,-3.1147,-3.1179,-3.132,-3.1401,-3.1415,-3.1886,-3.1868,-3.1211,-3.1588,-3.1523,-3.0913,-3.1415,-3.1354,-3.0635,-3.0907,-3.1055,-3.0917,-3.0619,-3.0594,-3.0857,-3.0632,-3.0647,-3.0942,-3.198,-3.3195,-3.4639,-3.5211,-3.495,-3.372,-3.3609,-3.3401,-3.2929,-3.2838,-3.2838,-3.2838,-3.2895,-3.2789,-3.2475,-3.2561,-3.2453,-3.2164,-3.2128,-3.2092,-3.2128,-3.2128,-3.2092,-3.2128,-3.2164,-3.2092,-3.2178,-3.2696,-3.3248,-3.3693,-3.3668,-3.3628,-3.3675,-3.3366,-3.3214,-3.2748,-3.2573,-3.2492,-3.2437,-3.239,-3.2384,-3.2328,-3.2287,-3.2315,-3.237,-3.2398,-3.2398,-3.2398,-3.2425,-3.2547,-3.2975,-3.3391,-3.3767,-2.9687,-2.9602,-2.9602,-2.9602,-2.9602,-2.9602,-2.9602,-2.9602,-2.9602,-2.9602,-2.9602,-2.9602,-2.9602,-2.9602,-2.9602,-2.9602,-2.9602,-2.9602,-2.9602,0.0,-2.9602,-2.9602,-2.9602,-2.9602,-2.9602,-2.9659,-3.0235,-3.0853,-3.1499,-3.2103,-3.2721,-3.322,-3.3276,-3.3276,-3.3276,-3.3206,-3.2848,-3.2213,-3.1797,-3.1645,-3.1775,-3.1821,-3.1807,-3.1807,-3.1874,-3.1584,-3.0835,-3.124,-3.1099,-3.0383,-3.0771,-3.0979,-3.0832,-3.0276,-3.0215,-3.0769,-2.9626,-2.9445,-3.0745,-2.9626,-2.9539,-3.117,-3.212,-3.2712,-3.2909,-3.3027,-3.263,-3.1532,-3.145,-3.1336,-3.123,-3.1119,-3.1095,-3.1044,-3.1304,-3.1476,-3.1402,-3.1846,-3.2092,-3.2019,-3.2092,-3.2055,-3.2019,-3.2055,-3.2019,-3.2055,-3.1982,-3.2055,-3.2055,-3.2214,-3.2453,-3.2727,-3.2458,-3.2325,-3.2376,-3.166,-3.1269,-3.1406,-3.1022,-3.09,-3.1205,-3.1235,-3.1382,-3.171,-3.1752,-3.1923,-3.2259,-3.2398,-3.2398,-3.237,-3.2398,-3.2465,-3.2574,-3.2668,-3.2949,-2.9602,-2.9602,-2.9602,-2.9602,-2.9602,-2.9602,-2.9602,-2.9602,-2.9602,-2.9602,-2.9602,-2.9602,-2.9602,-2.9602,-2.9602,-2.9602,-2.9602,-2.9602,-2.9602,-2.9602,-2.9602,-2.9602,-2.9602,-2.9602,-2.9602,-2.9645,-3.0203,-3.0867,-3.1499,-3.2103,-3.2486,-3.2627,-3.2209,-3.1992,-3.1992,-3.1992,-3.1857,-3.1573,-3.1474,-3.1446,-3.1501,-3.1213,-3.1178,-3.1492,-3.1506,-3.1352,-3.0985,-3.1074,-3.0967,-3.06,-3.0775,-3.0707,-3.0253,-2.9884,-2.9665,-2.9588,-2.8922,-2.8803,-2.9549,-2.8922,-2.9157,-3.0577,-3.0748,-3.0873,-3.105,-3.201,-3.211,-3.1026,-3.0782,-3.0745,-3.0745,-3.0557,-3.0443,-3.043,-3.0619,-3.0619,-3.0443,-3.0607,-3.0859,-3.0921,-3.0972,-3.1084,-3.1445,-3.1519,-3.1519,-3.1482,-3.1519,-3.1482,-3.1519,-3.1519,-3.1606,-3.1837,-3.1678,-3.1323,-3.0943,-3.0392,-2.9965,-2.9812,-2.9565,-2.9588,-2.9979,-3.007,-3.0374,-3.0881,-3.1073,-3.1306,-3.1851,-3.2035,-3.212,-3.237,-3.2398,-3.2398,-3.2398,-3.2398,-3.2711,-2.9602,-2.9602,-2.9602,-2.9602,-2.9602,-2.9602,-2.9602,-2.9602,-2.9602,-2.9602,-2.9602,-2.9602,-2.9602,-2.9602,-2.9602,-2.9602,-2.9602,-2.9602,-2.9602,-2.9602,-2.9602,-2.9602,-2.9602,-2.9602,-2.9602,-2.9641,-3.0203,-3.0699,-3.109,-3.1768,-3.2026,-3.1802,-3.118,-3.0895,-3.0895,-3.0895,-3.0895,-3.0906,-3.0881,-3.0958,-3.1097,-3.0701,-3.0658,-3.109,-3.113,-3.1031,-3.0882,-3.0615,-3.0363,-3.0175,-3.0059,-2.9745,-2.9285,-2.9258,-2.901,-2.8566,-2.851,-2.851,-2.851,-2.851,-2.8967,-2.9977,-2.9551,-2.9397,-2.9846,-3.095,-3.1328,-3.0394,-2.9999,-2.9922,-2.9884,-2.9756,-2.9666,-2.9654,-2.9782,-2.9679,-2.9433,-2.9471,-2.9626,-2.9755,-2.9793,-3.0037,-3.0432,-3.0583,-3.0621,-3.0748,-3.0911,-3.1024,-3.1024,-3.1024,-3.1035,-3.0994,-3.101,-3.0628,-2.9659,-2.9366,-2.9141,-2.8641,-2.8633,-2.8862,-2.9121,-2.9153,-2.9421,-3.0056,-3.0253,-3.0554,-3.1219,-3.1422,-3.1623,-3.202,-3.2203,-3.2259,-3.2398,-3.2398,-3.252,-2.9571,-2.9602,-2.9571,-2.9602,-2.9602,-2.9602,-2.9602,-2.9602,-2.9602,-2.9602,-2.9602,-2.9602,-2.9571,-2.9602,-2.9602,-2.9602,-2.9602,-2.9602,-2.9602,-2.9602,-2.9602,-2.9602,-2.9602,-2.9602,-2.9602,-2.9655,-3.0171,-3.0188,-2.9785,-3.0753,-3.1155,-3.1016,-3.0932,-3.0844,-3.0857,-3.0857,-3.0895,-3.0895,-3.0202,-3.0189,-3.0891,-3.0854,-3.088,-3.0919,-3.0919,-3.0594,-2.9846,-2.9328,-2.8737,-2.805,-2.7598,-2.7498,-2.7845,-2.7905,-2.8083,-2.8474,-2.851,-2.851,-2.851,-2.851,-2.8967,-2.9917,-2.9415,-2.9219,-2.9665,-2.935,-2.885,-2.839,-2.8219,-2.8259,-2.8163,-2.8007,-2.7943,-2.8023,-2.8275,-2.8367,-2.8435,-2.8819,-2.916,-2.916,-2.916,-2.9238,-2.9406,-2.9445,-2.9561,-3.0075,-3.047,-3.0785,-3.0785,-3.0861,-3.0703,-3.0312,-3.0077,-2.9891,-2.9457,-2.9007,-2.8693,-2.8576,-2.8587,-2.8587,-2.8605,-2.8638,-2.883,-2.9233,-2.9421,-2.9701,-3.0299,-3.0629,-3.0881,-3.148,-3.1752,-3.1881,-3.2259,-3.237,-3.2398,-2.8912,-2.9289,-2.9058,-2.9216,-2.9571,-2.9602,-2.9602,-2.9571,-2.9121,-2.9184,-2.9463,-2.8739,-2.8803,-2.9571,-2.9602,-2.9602,-2.9602,-2.9602,-2.9602,-2.9602,-2.9602,-2.9602,-2.9602,-2.9602,-2.9401,-2.9035,-2.9614,-2.9561,-2.9012,-2.9214,-2.9411,-2.9466,-2.9202,-2.9122,-2.9318,-2.9433,-2.9484,-2.9484,-2.9133,-2.9145,-2.9445,-2.9484,-2.9471,-2.9447,-2.9172,-2.8896,-2.85,-2.8009,-2.7539,-2.7236,-2.7006,-2.7138,-2.7693,-2.7729,-2.7969,-2.845,-2.851,-2.851,-2.851,-2.8799,-2.9119,-2.9439,-2.9165,-2.9017,-2.8904,-2.8345,-2.7836,-2.7563,-2.7626,-2.7655,-2.7615,-2.7452,-2.733,-2.7342,-2.7493,-2.7615,-2.7626,-2.7846,-2.8087,-2.8486,-2.8554,-2.8752,-2.9003,-2.9121,-2.9199,-2.9433,-2.9755,-2.9947,-2.9909,-3.0152,-3.015,-2.9749,-2.9744,-2.9592,-2.9056,-2.8691,-2.8399,-2.8073,-2.7954,-2.7954,-2.798,-2.7967,-2.8085,-2.8527,-2.8592,-2.8931,-2.9639,-2.9825,-3.004,-3.0718,-3.1204,-3.135,-3.1537,-3.1809,-3.1951,-2.8338,-2.8876,-2.8771,-2.9012,-2.9571,-2.9401,-2.9261,-2.9149,-2.8441,-2.8441,-2.8789,-2.7835,-2.7999,-2.8899,-2.9008,-2.9103,-2.9261,-2.9103,-2.9135,-2.9261,-2.9293,-2.9198,-2.9071,-2.923,-2.8931,-2.8411,-2.871,-2.8604,-2.8001,-2.7571,-2.7594,-2.7824,-2.7515,-2.746,-2.7676,-2.7881,-2.796,-2.7987,-2.8038,-2.8077,-2.8053,-2.8077,-2.815,-2.8194,-2.775,-2.7474,-2.7462,-2.6995,-2.6669,-2.6657,-2.6707,-2.691,-2.7426,-2.7606,-2.793,-2.8438,-2.851,-2.8582,-2.8715,-2.8903,-2.9145,-2.9326,-2.8952,-2.858,-2.8419,-2.7823,-2.7406,-2.726,-2.733,-2.7412,-2.7412,-2.7301,-2.719,-2.719,-2.719,-2.719,-2.7231,-2.719,-2.7435,-2.7857,-2.7938,-2.8087,-2.8474,-2.87,-2.8819,-2.887,-2.9015,-2.9121,-2.916,-2.9471,-2.9604,-2.9227,-2.9566,-2.9475,-2.8812,-2.8703,-2.8399,-2.815,-2.8028,-2.7878,-2.7686,-2.768,-2.7536,-2.802,-2.7967,-2.8164,-2.8785,-2.904,-2.9247,-2.9948,-3.0434,-3.0673,-3.0748,-3.1028,-3.119,-2.8045,-2.8619,-2.894,-2.918,-2.954,-2.8839,-2.8487,-2.832,-2.7604,-2.7311,-2.7411,-2.7211,-2.7324,-2.7617,-2.7617,-2.792,-2.8409,-2.7966,-2.8032,-2.8505,-2.857,-2.8214,-2.7637,-2.8214,-2.8228,-2.7571,-2.7603,-2.7404,-2.692,-2.6166,-2.5948,-2.6382,-2.6406,-2.6403,-2.6497,-2.6673,-2.6705,-2.685,-2.6964,-2.7018,-2.7006,-2.7006,-2.7222,-2.7609,-2.7198,-2.6922,-2.6873,-2.643,-2.6154,-2.6154,-2.6202,-2.6442,-2.6934,-2.7438,-2.7954,-2.8438,-2.8534,-2.8751,-2.9059,-2.8722,-2.8869,-2.9818,-2.8674,-2.8016,-2.8684,-2.7838,-2.7254,-2.719,-2.7231,-2.7219,-2.7231,-2.7231,-2.719,-2.719,-2.719,-2.719,-2.719,-2.719,-2.719,-2.7272,-2.7342,-2.7394,-2.7383,-2.7857,-2.8167,-2.8327,-2.87,-2.8964,-2.8924,-2.9042,-2.9084,-2.9098,-2.9116,-2.9175,-2.9223,-2.8973,-2.8996,-2.8781,-2.8296,-2.8312,-2.815,-2.7968,-2.7745,-2.7583,-2.7603,-2.7782,-2.8046,-2.8327,-2.8638,-2.9153,-2.9687,-2.9934,-2.9934,-3.0011,-3.0163,-2.6411,-2.6888,-2.7966,-2.8274,-2.8019,-2.7776,-2.7657,-2.7537,-2.682,-2.6786,-2.6976,-2.6343,-2.6299,-2.6778,-2.6299,-2.6718,-2.7756,-2.7604,-2.7637,-2.7855,-2.7855,-2.7736,-2.7537,-2.7756,-2.7504,-2.6879,-2.6663,-2.6226,-2.5576,-2.5205,-2.5245,-2.5569,-2.5787,-2.5939,-2.6121,-2.6294,-2.6458,-2.6584,-2.6697,-2.6772,-2.6837,-2.6549,-2.6502,-2.6659,-2.6502,-2.6406,-2.6394,-2.619,-2.6093,-2.6093,-2.6393,-2.6887,-2.7416,-2.7945,-2.8306,-2.8522,-2.8823,-2.9018,-2.9034,-2.916,-2.9136,-2.9007,-2.8496,-2.7893,-2.7826,-2.7438,-2.719,-2.719,-2.719,-2.719,-2.719,-2.719,-2.719,-2.719,-2.719,-2.719,-2.719,-2.719,-2.719,-2.719,-2.719,-2.719,-2.7231,-2.7435,-2.7545,-2.7586,-2.7777,-2.7886,-2.7966,-2.8207,-2.8514,-2.8593,-2.8846,-2.9114,-2.9163,-2.8787,-2.8561,-2.8586,-2.8423,-2.8621,-2.8585,-2.8252,-2.7993,-2.7866,-2.7735,-2.7555,-2.7835,-2.8013,-2.8262,-2.8411,-2.8917,-2.9107,-2.9103,-2.9233,-2.9407,-2.5569,-2.5881,-2.6997,-2.7345,-2.7098,-2.6828,-2.6693,-2.6557,-2.5906,-2.5884,-2.6102,-2.5406,-2.5347,-2.5734,-2.5418,-2.5721,-2.6676,-2.6765,-2.69,-2.7103,-2.7149,-2.7002,-2.6833,-2.7048,-2.6778,-2.6104,-2.5791,-2.5324,-2.4778,-2.4634,-2.4712,-2.4904,-2.5075,-2.5238,-2.5417,-2.5613,-2.5812,-2.5899,-2.5973,-2.6122,-2.6259,-2.5985,-2.5817,-2.5853,-2.5841,-2.5841,-2.5841,-2.6009,-2.6093,-2.6178,-2.6741,-2.739,-2.7906,-2.8306,-2.8555,-2.8654,-2.8966,-2.9225,-2.9278,-2.9312,-2.9174,-2.8788,-2.8229,-2.7764,-2.7461,-2.7282,-2.7201,-2.719,-2.719,-2.719,-2.719,-2.719,-2.719,-2.719,-2.719,-2.719,-2.719,-2.719,-2.719,-2.719,-2.719,-2.719,-2.719,-2.719,-2.7231,-2.719,-2.719,-2.719,-2.7272,-2.7545,-2.7857,-2.7909,-2.8167,-2.8343,-2.8318,-2.8014,-2.8413,-2.8499,-2.8362,-2.8643,-2.8758,-2.8443,-2.819,-2.8088,-2.7885,-2.7608,-2.7594,-2.7762,-2.7848,-2.7901,-2.8085,-2.83,-2.8365,-2.8495,-2.8615,-2.5697,-2.5556,-2.6124,-2.6535,-2.6612,-2.6055,-2.5673,-2.5428,-2.4897,-2.4742,-2.4838,-2.4562,-2.4742,-2.4861,-2.5052,-2.5159,-2.5288,-2.5453,-2.5804,-2.6346,-2.6346,-2.6035,-2.5511,-2.607,-2.6013,-2.5347,-2.4981,-2.4718,-2.4526,-2.4334,-2.4259,-2.4259,-2.4305,-2.4388,-2.4235,-2.4568,-2.4583,-2.4702,-2.4882,-2.5003,-2.5087,-2.5159,-2.5218,-2.5336,-2.5373,-2.5409,-2.5408,-2.5889,-2.619,-2.6322,-2.7138,-2.7945,-2.8366,-2.8459,-2.8606,-2.8762,-2.8899,-2.9319,-2.9809,-2.9063,-2.8924,-2.9051,-2.8161,-2.7449,-2.7667,-2.7449,-2.719,-2.719,-2.719,-2.719,-2.7097,-2.7056,-2.7097,-2.719,-2.719,-2.719,-2.719,-2.719,-2.719,-2.719,-2.719,-2.719,-2.719,-2.719,-2.719,-2.719,-2.719,-2.719,-2.719,-2.7313,-2.7231,-2.7272,-2.7464,-2.7655,-2.7464,-2.729,-2.8011,-2.8527,-2.8348,-2.8359,-2.8462,-2.83,-2.807,-2.7879,-2.7541,-2.7246,-2.7037,-2.7222,-2.7403,-2.7469,-2.7536,-2.7669,-2.7822,-2.7941,-2.7729,-2.5016,-2.4695,-2.5358,-2.5464,-2.5264,-2.4993,-2.485,-2.4814,-2.4562,-2.4502,-2.4538,-2.4646,-2.4754,-2.4801,-2.4897,-2.4885,-2.4885,-2.4957,-2.5159,-2.5465,-2.5359,-2.523,-2.5064,-2.5194,-2.5123,-2.4766,-2.4634,-2.449,-2.4345,-2.4236,-2.4189,-2.4189,-2.4189,-2.4189,-2.4189,-2.4261,-2.4345,-2.449,-2.4574,-2.467,-2.4897,-2.4897,-2.5004,-2.5194,-2.5457,-2.5684,-2.5877,-2.6345,-2.6839,-2.7164,-2.7885,-2.8342,-2.8447,-2.8391,-2.8331,-2.8464,-2.8964,-2.9056,-2.8892,-2.8901,-2.8703,-2.8472,-2.7667,-2.7357,-2.7438,-2.7293,-2.7149,-2.7149,-2.719,-2.7015,-2.6393,-2.6216,-2.6487,-2.7138,-2.719,-2.7097,-2.7097,-2.719,-2.719,-2.719,-2.719,-2.719,-2.719,-2.719,-2.719,-2.719,-2.719,-2.719,-2.719,-2.719,-2.719,-2.719,-2.719,-2.719,-2.719,-2.719,-2.7574,-2.8047,-2.8009,-2.8014,-2.8152,-2.8098,-2.7861,-2.7508,-2.7136,-2.6866,-2.6647,-2.6667,-2.6884,-2.7087,-2.7188,-2.7323,-2.7469,-2.7332,-2.7122,-2.4503,-2.4261,-2.4683,-2.4694,-2.4418,-2.4381,-2.4381,-2.4381,-2.4393,-2.4381,-2.4418,-2.4526,-2.4574,-2.4598,-2.4646,-2.4682,-2.4682,-2.4682,-2.4742,-2.4873,-2.4861,-2.4801,-2.4801,-2.4801,-2.4718,-2.4526,-2.4502,-2.4381,-2.4189,-2.4189,-2.4189,-2.4189,-2.4189,-2.4189,-2.4189,-2.42,-2.433,-2.4613,-2.4659,-2.4862,-2.5183,-2.5255,-2.5354,-2.5572,-2.5845,-2.6168,-2.6571,-2.693,-2.7292,-2.7702,-2.8143,-2.8339,-2.8271,-2.8151,-2.8141,-2.8362,-2.8815,-2.9001,-2.8588,-2.8777,-2.8688,-2.8012,-2.7205,-2.6663,-2.6663,-2.6663,-2.6569,-2.6238,-2.6456,-2.631,-2.5537,-2.5326,-2.5589,-2.6124,-2.6113,-2.6321,-2.658,-2.7003,-2.7179,-2.719,-2.719,-2.719,-2.719,-2.719,-2.719,-2.719,-2.719,-2.719,-2.719,-2.719,-2.719,-2.719,-2.719,-2.719,-2.719,-2.719,-2.719,-2.7423,-2.758,-2.77,-2.7829,-2.7727,-2.7537,-2.6929,-2.6492,-2.6175,-2.5959,-2.6214,-2.6427,-2.6598,-2.6637,-2.6549,-2.6494,-2.6634,-2.6488,-2.4246,-2.4235,-2.42,-2.4261,-2.4225,-2.4236,-2.4236,-2.4236,-2.42,-2.4236,-2.4225,-2.4225,-2.4236,-2.4273,-2.4418,-2.449,-2.4454,-2.4502,-2.449,-2.4562,-2.4646,-2.4718,-2.4682,-2.4682,-2.461,-2.4465,-2.4465,-2.4381,-2.42,-2.4189,-2.4189,-2.4189,-2.4189,-2.4235,-2.4292,-2.4258,-2.4522,-2.4949,-2.4958,-2.5301,-2.5857,-2.5904,-2.6019,-2.6174,-2.6268,-2.6618,-2.7142,-2.737,-2.7532,-2.7771,-2.7941,-2.7886,-2.7829,-2.7748,-2.762,-2.7862,-2.8476,-2.8411,-2.8436,-2.8141,-2.8014,-2.74,-2.6387,-2.5735,-2.5746,-2.5704,-2.5495,-2.4956,-2.5379,-2.5368,-2.4659,-2.4402,-2.4445,-2.436,-2.4627,-2.5084,-2.5704,-2.6456,-2.6674,-2.6798,-2.7015,-2.6974,-2.6798,-2.688,-2.7015,-2.7015,-2.7056,-2.719,-2.719,-2.719,-2.719,-2.719,-2.719,-2.719,-2.719,-2.719,-2.719,-2.7231,-2.7394,-2.7464,-2.7574,-2.7446,-2.7214,-2.6591,-2.6021,-2.5667,-2.5475,-2.5709,-2.5742,-2.5709,-2.5635,-2.5514,-2.5546,-2.5715,-2.562,-2.4728,-2.4694,-2.4338,-2.4189,-2.4189,-2.4189,-2.4189,-2.4189,-2.4189,-2.4189,-2.4189,-2.4189,-2.4189,-2.42,-2.4236,-2.4261,-2.4261,-2.4273,-2.4273,-2.4273,-2.4309,-2.4345,-2.4345,-2.4381,-2.4345,-2.4309,-2.4298,-2.4225,-2.4189,-2.4189,-2.4189,-2.4189,-2.4223,-2.4395,-2.4659,-2.4717,-2.5004,-2.5429,-2.5509,-2.5566,-2.5754,-2.5839,-2.587,-2.6085,-2.6461,-2.6835,-2.7191,-2.7561,-2.7869,-2.7977,-2.7273,-2.6946,-2.6794,-2.6185,-2.5975,-2.6227,-2.6271,-2.6215,-2.6182,-2.6226,-2.5947,-2.5509,-2.5137,-2.4829,-2.4829,-2.4829,-2.4701,-2.4531,-2.4734,-2.4478,-2.3704,-2.3444,-2.3193,-2.2721,-2.3551,-2.4445,-2.4776,-2.5041,-2.5221,-2.5221,-2.5306,-2.5348,-2.5474,-2.5799,-2.6144,-2.6268,-2.6622,-2.7015,-2.6839,-2.6891,-2.6768,-2.7056,-2.7149,-2.719,-2.719,-2.719,-2.719,-2.719,-2.7231,-2.7272,-2.729,-2.7273,-2.6961,-2.6519,-2.6001,-2.5619,-2.5276,-2.5181,-2.504,-2.5072,-2.504,-2.5071,-2.4795,-2.4785,-2.4598,-2.4912,-2.4866,-2.4395,-2.4189,-2.4189,-2.4189,-2.4189,-2.4189,-2.4189,-2.4189,-2.4189,-2.4189,-2.4189,-2.4189,-2.4189,-2.4189,-2.4189,-2.4189,-2.4189,-2.4189,-2.42,-2.4236,-2.4189,-2.4189,-2.4189,-2.4189,-2.4189,-2.4189,-2.4189,-2.4189,-2.4189,-2.4246,-2.4395,-2.4648,-2.4877,-2.5176,-2.5509,-2.5934,-2.6037,-2.6117,-2.6296,-2.6358,-2.6409,-2.6523,-2.6828,-2.7076,-2.7282,-2.7221,-2.7237,-2.7174,-2.67,-2.6152,-2.5673,-2.5264,-2.4961,-2.5053,-2.528,-2.535,-2.4985,-2.5026,-2.4987,-2.4526,-2.4198,-2.393,-2.393,-2.3887,-2.3887,-2.3333,-2.3681,-2.341,-2.2755,-2.2501,-2.2246,-2.1989,-2.2687,-2.3507,-2.3844,-2.4317,-2.4488,-2.4488,-2.4488,-2.4488,-2.4488,-2.4946,-2.5158,-2.5337,-2.56,-2.5852,-2.5904,-2.6082,-2.6207,-2.629,-2.6539,-2.6528,-2.6663,-2.6757,-2.6974,-2.7015,-2.7015,-2.7015,-2.7156,-2.7128,-2.6714,-2.6363,-2.5957,-2.5628,-2.5292,-2.5045,-2.491,-2.4931,-2.4814,-2.4535,-2.4208,-2.4122,-2.3846,-2.4992,-2.4958,-2.4418,-2.4189,-2.4189,-2.4189,-2.4189,-2.4189,-2.4189,-2.4189,-2.4189,-2.4189,-2.4189,-2.4189,-2.4189,-2.4189,-2.4189,-2.4189,-2.4189,-2.4189,-2.4189,-2.4189,-2.4189,-2.4189,-2.4189,-2.4189,-2.4189,-2.4189,-2.4189,-2.4189,-2.4189,-2.4292,-2.4636,-2.4897,-2.5089,-2.5378,-2.588,-2.62,-2.6039,-2.6127,-2.6345,-2.6412,-2.639,-2.6401,-2.6487,-2.6655,-2.6655,-2.6423,-2.5966,-2.583,-2.5883,-2.5242,-2.4487,-2.4674,-2.454,-2.428,-2.4567,-2.4672,-2.4387,-2.4388,-2.451,-2.3957,-2.328,-2.2965,-2.2974,-2.2974,-2.2677,-2.2122,-2.2501,-2.2501,-2.2033,-2.1776,-2.1776,-2.1731,-2.182,-2.2157,-2.2843,-2.3714,-2.4198,-2.4198,-2.4145,-2.4198,-2.4241,-2.4327,-2.437,-2.4392,-2.4744,-2.5084,-2.5126,-2.5221,-2.5137,-2.5052,-2.5337,-2.5663,-2.5924,-2.6227,-2.6539,-2.6757,-2.6704,-2.6787,-2.708,-2.699,-2.6531,-2.6186,-2.6163,-2.5911,-2.5524,-2.5275,-2.5079,-2.4678,-2.4552,-2.4013,-2.3571,-2.3637,-2.351,-2.5532,-2.5463,-2.4579,-2.4189,-2.4189,-2.4189,-2.4189,-2.4189,-2.4189,-2.4189,-2.4189,-2.4189,-2.4189,-2.4189,-2.4189,-2.4189,-2.4189,-2.4189,-2.4189,-2.4189,-2.4189,-2.4189,-2.42,-2.4212,-2.4223,-2.4223,-2.42,-2.4212,-2.4187,-2.4194,-2.4175,-2.4242,-2.4547,-2.5092,-2.5374,-2.5238,-2.5462,-2.5755,-2.5333,-2.5114,-2.5199,-2.5263,-2.5263,-2.5263,-2.5221,-2.5179,-2.5126,-2.4967,-2.4531,-2.3963,-2.379,-2.3747,-2.3387,-2.2934,-2.2758,-2.2881,-2.2716,-2.2728,-2.274,-2.2723,-2.2447,-2.2495,-2.2334,-2.1989,-2.1989,-2.2078,-2.1945,-2.1731,-2.19,-2.1954,-2.1776,-2.1687,-2.1687,-2.1687,-2.1696,-2.1785,-2.1989,-2.2211,-2.2467,-2.2422,-2.2422,-2.2344,-2.2432,-2.3105,-2.3323,-2.3454,-2.3844,-2.436,-2.436,-2.4231,-2.4102,-2.3887,-2.4402,-2.4776,-2.4946,-2.5295,-2.5768,-2.603,-2.6102,-2.6185,-2.6483,-2.676,-2.6328,-2.6342,-2.6577,-2.6267,-2.598,-2.5658,-2.5501,-2.4889,-2.4395,-2.4097,-2.3834,-2.3595,-2.363,-2.5566,-2.5268,-2.4499,-2.4189,-2.4189,-2.4189,-2.4189,-2.4189,-2.4189,-2.4189,-2.4189,-2.4189,-2.4189,-2.4189,-2.4189,-2.4189,-2.4189,-2.4189,-2.4189,-2.4189,-2.4189,-2.4189,-2.4269,-2.4418,-2.4533,-2.4496,-2.4533,-2.4428,-2.4311,-2.4194,-2.4006,-2.37,-2.4121,-2.4357,-2.477,-2.4757,-2.4944,-2.5083,-2.4787,-2.4488,-2.4488,-2.4488,-2.4488,-2.4488,-2.4488,-2.4488,-2.4584,-2.4059,-2.3617,-2.3149,-2.2711,-2.2457,-2.247,-2.2156,-2.2034,-2.1943,-2.2053,-2.1916,-2.1997,-2.1833,-2.1785,-2.1687,-2.1687,-2.1687,-2.1687,-2.1687,-2.1687,-2.1687,-2.1687,-2.1687,-2.1687,-2.1687,-2.1687,-2.1687,-2.1687,-2.1687,-2.1687,-2.1687,-2.1687,-2.1687,-2.182,-2.1776,-2.1945,-2.2334,-2.2369,-2.2599,-2.2555,-2.3028,-2.2896,-2.2809,-2.2896,-2.2984,-2.3497,-2.3844,-2.3973,-2.4317,-2.4872,-2.5084,-2.521,-2.5263,-2.5463,-2.581,-2.608,-2.6266,-2.6488,-2.6881,-2.6605,-2.6301,-2.5902,-2.5704,-2.5279,-2.4717,-2.4466,-2.4609,-2.4655,-2.5325,-2.4866,-2.4395,-2.4189,-2.4189,-2.4189,-2.4189,-2.4189,-2.4189,-2.4189,-2.4152,-2.4127,-2.3897,-2.397,-2.3776,-2.3813,-2.3776,-2.374,-2.3545,-2.3582,-2.3664,-2.3698,-2.3836,-2.4138,-2.444,-2.4691,-2.4672,-2.4508,-2.4135,-2.4061,-2.3662,-2.3193,-2.3495,-2.3845,-2.3878,-2.405,-2.4243,-2.4274,-2.393,-2.381,-2.3854,-2.3854,-2.3844,-2.381,-2.38,-2.38,-2.3627,-2.3236,-2.2843,-2.2843,-2.2113,-2.1776,-2.1769,-2.1943,-2.2126,-2.1733,-2.1961,-2.1961,-2.1806,-2.1714,-2.1687,-2.1687,-2.1687,-2.1687,-2.1687,-2.1687,-2.1687,-2.1687,-2.1687,-2.1687,-2.1687,-2.1687,-2.1687,-2.1687,-2.1687,-2.1687,-2.1687,-2.1687,-2.1687,-2.1687,-2.1687,-2.1687,-2.1687,-2.19,-2.1776,-2.1687,-2.1687,-2.1705,-2.1705,-2.175,-2.2061,-2.2167,-2.2687,-2.2853,-2.294,-2.3105,-2.3671,-2.4145,-2.4274,-2.4445,-2.4584,-2.5052,-2.5516,-2.6041,-2.6389,-2.6554,-2.6621,-2.6276,-2.6131,-2.6354,-2.6157,-2.5497,-2.5463,-2.5681,-2.5551,-2.5004,-2.4877,-2.4395,-2.4189,-2.4189,-2.4189,-2.4189,-2.4189,-2.4189,-2.4189,-2.408,-2.3519,-2.3261,-2.3065,-2.2456,-2.2258,-2.2397,-2.2472,-2.2429,-2.2488,-2.2683,-2.2875,-2.3051,-2.3474,-2.3636,-2.3898,-2.4172,-2.3974,-2.3456,-2.3202,-2.3165,-2.3125,-2.336,-2.3565,-2.3456,-2.3506,-2.3323,-2.3236,-2.2809,-2.2467,-2.2476,-2.2476,-2.2476,-2.2476,-2.2511,-2.2422,-2.2334,-2.2122,-2.1945,-2.1909,-2.1776,-2.1731,-2.1705,-2.1787,-2.1769,-2.1742,-2.1778,-2.1797,-2.1705,-2.1687,-2.1687,-2.1687,-2.1687,-2.1687,-2.1687,-2.1687,-2.1687,-2.1687,-2.1687,-2.1687,-2.1687,-2.1687,-2.1687,-2.1687,-2.1687,-2.1687,-2.1687,-2.1687,-2.1687,-2.1687,-2.1687,-2.1687,-2.1687,-2.1687,-2.1687,-2.1687,-2.1687,-2.176,-2.1824,-2.1806,-2.1868,-2.1876,-2.1865,-2.1909,-2.1945,-2.2033,-2.2378,-2.3062,-2.3367,-2.3627,-2.3887,-2.4402,-2.4882,-2.4776,-2.5168,-2.5453,-2.5556,-2.5771,-2.5875,-2.5787,-2.5926,-2.613,-2.5758,-2.5424,-2.5683,-2.4763,-2.4522,-2.4281,-2.4189,-2.4189,-2.4189,-2.4189,-2.4189,-2.42,-2.397,-2.3556,-2.315,-2.274,-2.2381,-2.2031,-2.1794,-2.1776,-2.1794,-2.1939,-2.209,-2.2327,-2.2536,-2.2672,-2.3094,-2.3082,-2.3212,-2.3389,-2.3483,-2.3082,-2.305,-2.278,-2.2411,-2.2586,-2.2664,-2.265,-2.244,-2.2403,-2.2246,-2.1945,-2.1687,-2.1687,-2.1687,-2.1687,-2.1687,-2.1687,-2.1687,-2.1687,-2.1687,-2.1687,-2.1731,-2.1687,-2.1687,-2.1687,-2.1687,-2.1687,-2.1687,-2.1687,-2.1687,-2.1687,-2.1687,-2.1687,-2.1687,-2.1687,-2.1687,-2.1687,-2.1687,-2.1687,-2.1687,-2.1687,-2.1687,-2.1687,-2.1687,-2.1687,-2.1687,-2.1687,-2.1687,-2.1696,-2.1696,-2.1714,-2.1733,-2.1751,-2.1751,-2.1687,-2.1687,-2.1687,-2.1687,-2.1696,-2.1806,-2.1889,-2.1962,-2.198,-2.2007,-2.1935,-2.1654,-2.1626,-2.1599,-2.1653,-2.2152,-2.2413,-2.2721,-2.2809,-2.3105,-2.2877,-2.2604,-2.3173,-2.4178,-2.4638,-2.4914,-2.5039,-2.5193,-2.52,-2.5185,-2.5139,-2.5164,-2.5418,-2.4312,-2.397,-2.397,-2.397,-2.397,-2.397,-2.3934,-2.3956,-2.3838,-2.3397,-2.2815,-2.259,-2.2136,-2.1624,-2.1367,-2.1302,-2.1511,-2.1415,-2.1528,-2.18,-2.201,-2.2291,-2.2633,-2.2954,-2.2863,-2.2394,-2.2558,-2.2843,-2.2693,-2.2693,-2.234,-2.2029,-2.1748,-2.1687,-2.1767,-2.1882,-2.1687,-2.1687,-2.1687,-2.1687,-2.1687,-2.1687,-2.1687,-2.1687,-2.1687,-2.1687,-2.1687,-2.1687,-2.1687,-2.1687,-2.1687,-2.1687,-2.1687,-2.1687,-2.1687,-2.1687,-2.1687,-2.1687,-2.1687,-2.1687,-2.1687,-2.1687,-2.1687,-2.1687,-2.1687,-2.1687,-2.1687,-2.1687,-2.1687,-2.1687,-2.1687,-2.1687,-2.1687,-2.1687,-2.1687,-2.1696,-2.1733,-2.1778,-2.1879,-2.1888,-2.1861,-2.1833,-2.1806,-2.1696,-2.1696,-2.1662,-2.1671,-2.1762,-2.1861,-2.218,-2.2243,-2.2307,-2.2151,-2.1732,-2.1561,-2.1382,-2.149,-2.1735,-2.1733,-2.1758,-2.1678,-2.1588,-2.1419,-2.1571,-2.2129,-2.3139,-2.3564,-2.3963,-2.4076,-2.4173,-2.4223,-2.4352,-2.443,-2.4661,-2.4922,-2.3205,-2.315,-2.315,-2.315,-2.3113,-2.315,-2.3161,-2.3104,-2.2856,-2.237,-2.2015,-2.1556,-2.1174,-2.0664,-2.0068,-2.0127,-2.0454,-2.0548,-2.0627,-2.1046,-2.1297,-2.1443,-2.1469,-2.1729,-2.2077,-2.1885,-2.1889,-2.1856,-2.1989,-2.2033,-2.19,-2.1731,-2.1687,-2.1687,-2.1687,-2.1687,-2.1687,-2.1687,-2.1687,-2.1687,-2.1687,-2.1687,-2.1687,-2.1687,-2.1687,-2.1687,-2.1687,-2.1687,-2.1687,-2.1687,-2.1687,-2.1687,-2.1687,-2.1687,-2.1687,-2.1687,-2.1687,-2.1687,-2.1687,-2.1687,-2.1687,-2.1687,-2.1687,-2.1687,-2.1687,-2.1687,-2.1687,-2.1687,-2.1642,-2.1687,-2.1642,-2.1642,-2.1687,-2.1687,-2.1687,-2.1687,-2.1714,-2.1952,-2.2053,-2.2208,-2.2236,-2.2071,-2.1961,-2.1815,-2.166,-2.1644,-2.1644,-2.1769,-2.1983,-2.2373,-2.2418,-2.236,-2.233,-2.1928,-2.1558,-2.1362,-2.1428,-2.1529,-2.1353,-2.1166,-2.1273,-2.1326,-2.1121,-2.1338,-2.184,-2.2099,-2.2482,-2.2817,-2.3038,-2.312,-2.312,-2.3457,-2.3859,-2.4114,-2.4296,-2.1517,-2.1935,-2.2059,-2.2096,-2.2096,-2.2268,-2.2465,-2.2604,-2.2483,-2.2186,-2.173,-2.1312,-2.0745,-2.0238,-1.9951,-2.0214,-2.0438,-2.0305,-2.0484,-2.0787,-2.1053,-2.1236,-2.1491,-2.1586,-2.1687,-2.1687,-2.1687,-2.1776,-2.1687,-2.1687,-2.1687,-2.1687,-2.1687,-2.1687,-2.1687,-2.1687,-2.1687,-2.1687,-2.1687,-2.1687,-2.1687,-2.1687,-2.1687,-2.1687,-2.1687,-2.1687,-2.1687,-2.1687,-2.1687,-2.1687,-2.1687,-2.1687,-2.1687,-2.1687,-2.1687,-2.1687,-2.1687,-2.1687,-2.1687,-2.1687,-2.1687,-2.1687,-2.1687,-2.1687,-2.1687,-2.1642,-2.1642,-2.1687,-2.1177,-2.1141,-2.1374,-2.1186,-2.132,-2.141,-2.141,-2.15,-2.1617,-2.2071,-2.2318,-2.2446,-2.2518,-2.2204,-2.1946,-2.1826,-2.1792,-2.2005,-2.199,-2.2055,-2.2375,-2.2836,-2.2668,-2.2337,-2.2241,-2.2084,-2.1696,-2.141,-2.1543,-2.1585,-2.1368,-2.1263,-2.1395,-2.1395,-2.1237,-2.1064,-2.1355,-2.1532,-2.1644,-2.168,-2.1882,-2.1943,-2.1978,-2.2287,-2.2551,-2.2955,-2.3217,-1.9767,-2.0372,-2.0884,-2.1125,-2.1145,-2.1476,-2.1769,-2.2056,-2.205,-2.1794,-2.1424,-2.1055,-2.0643,-2.0334,-2.0429,-2.0552,-2.0799,-2.0714,-2.0915,-2.1145,-2.13,-2.1447,-2.1568,-2.1687,-2.1687,-2.1687,-2.1687,-2.1687,-2.1687,-2.1687,-2.1687,-2.1687,-2.1687,-2.1687,-2.1687,-2.1687,-2.1687,-2.1687,-2.1687,-2.1687,-2.1687,-2.1687,-2.1687,-2.1687,-2.1687,-2.1687,-2.1687,-2.1687,-2.1687,-2.1687,-2.1687,-2.1687,-2.1687,-2.1687,-2.1687,-2.1687,-2.1687,-2.1687,-2.1687,-2.1687,-2.1687,-2.1687,-2.1687,-2.1687,-2.1642,-2.1597,-2.1365,-2.1221,-2.0393,-2.0393,-2.0583,-2.0257,-2.0257,-2.0492,-2.0718,-2.096,-2.1147,-2.1371,-2.1543,-2.1566,-2.1698,-2.203,-2.1841,-2.1776,-2.1931,-2.2259,-2.2366,-2.232,-2.2504,-2.2778,-2.2612,-2.2212,-2.2308,-2.2149,-2.1819,-2.1559,-2.1695,-2.1648,-2.1427,-2.1371,-2.1483,-2.1483,-2.1324,-2.1191,-2.1139,-2.1112,-2.1274,-2.0991,-2.0781,-2.0988,-2.1114,-2.0952,-2.1132,-2.1633,-2.2087,-1.8152,-1.8304,-1.9698,-2.0275,-2.0313,-2.0917,-2.1173,-2.1268,-2.1226,-2.1066,-2.0787,-2.0647,-2.0832,-2.0851,-2.0778,-2.0955,-2.154,-2.1236,-2.1293,-2.1495,-2.165,-2.1623,-2.1687,-2.1687,-2.1687,-2.1687,-2.1687,-2.1687,-2.1687,-2.1687,-2.1687,-2.1687,-2.1687,-2.1687,-2.1687,-2.1687,-2.1687,-2.1687,-2.1687,-2.1687,-2.1687,-2.1687,-2.1687,-2.1687,-2.1687,-2.1687,-2.1687,-2.1687,-2.1687,-2.1687,-2.1687,-2.1687,-2.1687,-2.1687,-2.1687,-2.1687,-2.1687,-2.1687,-2.1687,-2.1687,-2.1687,-2.1687,-2.1597,-2.1499,-2.141,-2.0763,-2.0484,-2.0303,-1.9476,-1.9109,-1.9109,-1.8972,-1.9072,-1.95,-1.9833,-1.9891,-2.0099,-2.0307,-2.0451,-2.0547,-2.0824,-2.1254,-2.1196,-2.1038,-2.1164,-2.1506,-2.1458,-2.1387,-2.1745,-2.2022,-2.2096,-2.2035,-2.2297,-2.2178,-2.189,-2.1797,-2.1895,-2.1775,-2.1505,-2.1499,-2.1586,-2.1504,-2.1478,-2.1496,-2.1448,-2.1195,-2.0938,-2.091,-2.0801,-2.0477,-2.0346,-2.0462,-2.0622,-2.1084,-2.131,-1.808,-1.8313,-1.8993,-1.9301,-1.9329,-2.0056,-2.0495,-2.0754,-2.0989,-2.1034,-2.0897,-2.1092,-2.12,-2.111,-2.1266,-2.1366,-2.1659,-2.1549,-2.1586,-2.1632,-2.1687,-2.1687,-2.1687,-2.1687,-2.1687,-2.1687,-2.1687,-2.1687,-2.1687,-2.1687,-2.1687,-2.1687,-2.1687,-2.1687,-2.1687,-2.1687,-2.1687,-2.1687,-2.1687,-2.1687,-2.1687,-2.1687,-2.1687,-2.1687,-2.1687,-2.1687,-2.1687,-2.1687,-2.1687,-2.1642,-2.1642,-2.1597,-2.1553,-2.1553,-2.1508,-2.1508,-2.1508,-2.1508,-2.1553,-2.1597,-2.1687,-2.1553,-2.123,-2.0808,-2.0763,-1.9931,-1.9467,-1.9063,-1.8473,-1.801,-1.8696,-1.8334,-1.8071,-1.8612,-1.887,-1.8856,-1.9042,-1.931,-1.9579,-1.9756,-2.021,-2.0707,-2.0484,-2.0192,-2.0374,-2.061,-2.0537,-2.0507,-2.0864,-2.103,-2.1063,-2.115,-2.1373,-2.1167,-2.0849,-2.131,-2.1962,-2.1711,-2.1436,-2.1386,-2.1311,-2.1807,-2.1799,-2.1816,-2.1693,-2.144,-2.1236,-2.1126,-2.0925,-2.0617,-2.0463,-2.0457,-2.0589,-2.0773,-2.0925,-1.8152,-1.8442,-1.8612,-1.8732,-1.8874,-1.9725,-2.0214,-2.0534,-2.108,-2.13,-2.131,-2.1549,-2.1585,-2.1403,-2.1513,-2.1659,-2.1687,-2.1659,-2.1678,-2.1687,-2.1687,-2.1687,-2.1687,-2.1687,-2.1687,-2.1687,-2.1687,-2.1687,-2.1687,-2.1687,-2.1687,-2.1687,-2.1687,-2.1687,-2.1687,-2.1687,-2.1687,-2.1687,-2.1687,-2.1687,-2.1687,-2.1365,-2.123,-2.1087,-2.0853,-2.0628,-2.0583,-2.0583,-2.0853,-2.0907,-2.0952,-2.0997,-2.1042,-2.1042,-2.0907,-2.0862,-2.0862,-2.0862,-2.0862,-2.1132,-2.1087,-2.0583,-2.0212,-1.9832,-1.9505,-1.8826,-1.8226,-1.8141,-1.7412,-1.7091,-1.7924,-1.7225,-1.6998,-1.7347,-1.7691,-1.7834,-1.8113,-1.8386,-1.8715,-1.8986,-1.9295,-1.9317,-1.8894,-1.8589,-1.9162,-1.9537,-1.9882,-1.9817,-1.9804,-1.9901,-1.9782,-1.9899,-2.0076,-1.979,-1.9524,-2.0148,-2.0723,-2.0605,-2.0436,-2.0721,-2.0934,-2.132,-2.1287,-2.0811,-2.0821,-2.1337,-2.1342,-2.1071,-2.0933,-2.0788,-2.0746,-2.0771,-2.0874,-2.1084,-2.1161,-1.8152,-1.8393,-1.862,-1.8829,-1.9128,-2.0048,-2.0503,-2.0622,-2.1284,-2.1623,-2.1604,-2.1687,-2.1687,-2.1632,-2.1668,-2.1687,-2.1687,-2.1687,-2.1687,-2.1687,-2.1687,-2.1687,-2.1687,-2.1687,-2.1687,-2.1687,-2.1553,-2.1454,-2.1553,-2.1463,-2.1508,-2.1597,-2.1597,-2.1687,-2.1687,-2.1687,-2.1687,-2.1687,-2.1687,-2.1687,-2.1365,-2.0853,-2.0583,-2.0158,-1.9704,-1.943,-1.9438,-1.943,-1.9758,-2.0121,-1.9658,-1.9749,-2.0204,-1.9567,-1.9247,-1.9209,-1.9109,-1.9018,-1.898,-1.9795,-1.9749,-1.9293,-1.9063,-1.8688,-1.8311,-1.7623,-1.6983,-1.6983,-1.6333,-1.5919,-1.5947,-1.6069,-1.6252,-1.6464,-1.6856,-1.7078,-1.7455,-1.7749,-1.8131,-1.8116,-1.7796,-1.7523,-1.7047,-1.6882,-1.772,-1.8321,-1.8961,-1.9072,-1.8812,-1.8551,-1.8342,-1.8551,-1.87,-1.8648,-1.8499,-1.9072,-1.942,-1.9324,-1.9517,-1.9958,-2.001,-2.0,-1.9854,-1.962,-1.9977,-2.0474,-2.0751,-2.0851,-2.084,-2.0916,-2.1164,-2.1268,-2.1353,-2.1439,-2.1516,-1.8411,-1.8638,-1.9079,-1.939,-1.9684,-2.025,-2.0521,-2.0668,-2.1284,-2.1687,-2.1687,-2.1687,-2.1687,-2.1687,-2.1687,-2.1687,-2.1687,-2.1687,-2.1687,-2.1687,-2.1687,-2.1687,-2.1687,-2.1687,-2.1687,-2.1508,-2.123,-2.0808,-2.0754,-2.0763,-2.0763,-2.0862,-2.1186,-2.1687,-2.1687,-2.1687,-2.1687,-2.1687,-2.1642,-2.1454,-2.0799,-2.0393,-1.9886,-1.9285,-1.888,-1.8603,-1.8565,-1.8511,-1.8834,-1.9201,-1.8696,-1.8872,-1.9147,-1.8596,-1.8503,-1.8603,-1.8603,-1.8272,-1.7909,-1.7994,-1.8164,-1.818,-1.7956,-1.7537,-1.7304,-1.6332,-1.5961,-1.6021,-1.5903,-1.5818,-1.6132,-1.6382,-1.6574,-1.6605,-1.6843,-1.6918,-1.7139,-1.745,-1.7659,-1.7298,-1.6995,-1.6789,-1.6418,-1.6258,-1.6829,-1.6988,-1.7509,-1.7404,-1.714,-1.6935,-1.6723,-1.7094,-1.7305,-1.7298,-1.7509,-1.808,-1.829,-1.8185,-1.87,-1.9369,-1.9272,-1.8812,-1.8916,-1.8902,-1.9251,-1.9624,-1.9953,-2.0321,-2.0811,-2.1055,-2.0983,-2.1404,-2.1764,-2.185,-2.1953,-1.8523,-1.8745,-1.9344,-1.9711,-1.9976,-2.0493,-2.0796,-2.0964,-2.1458,-2.1687,-2.1687,-2.1687,-2.1687,-2.1687,-2.1687,-2.1687,-2.1687,-2.1687,-2.1687,-2.1687,-2.1687,-2.1687,-2.1687,-2.1597,-2.141,-2.1177,-2.0673,-2.0257,-1.9795,-1.9795,-1.9749,-1.994,-2.0402,-2.0348,-2.0529,-2.0709,-2.0907,-2.0673,-2.0303,-2.0167,-1.9695,-1.9285,-1.8788,-1.828,-1.7909,-1.7677,-1.7731,-1.7824,-1.7963,-1.8102,-1.8048,-1.7956,-1.7948,-1.7762,-1.7529,-1.7444,-1.7304,-1.6936,-1.652,-1.6332,-1.6655,-1.7124,-1.6655,-1.6285,-1.6096,-1.5445,-1.5399,-1.549,-1.57,-1.6019,-1.6348,-1.6623,-1.6653,-1.6713,-1.6795,-1.68,-1.6853,-1.7154,-1.7186,-1.6783,-1.6624,-1.6365,-1.6105,-1.5992,-1.6152,-1.6099,-1.5992,-1.5885,-1.5885,-1.5885,-1.5885,-1.6205,-1.6418,-1.6571,-1.6723,-1.7035,-1.7147,-1.7047,-1.7615,-1.8342,-1.7975,-1.7404,-1.7825,-1.8192,-1.8359,-1.8651,-1.925,-1.9708,-2.0015,-2.0245,-2.0249,-2.0897,-2.1919,-2.216,-2.2112,-1.8531,-1.8794,-1.9353,-1.9748,-2.0049,-2.0805,-2.1302,-2.1659,-2.1678,-2.1687,-2.1687,-2.1687,-2.1687,-2.1687,-2.1687,-2.1687,-2.1687,-2.1687,-2.1687,-2.1597,-2.1499,-2.1544,-2.1419,-2.1329,-2.0763,-2.0393,-1.9886,-1.9201,-1.8788,-1.8742,-1.8742,-1.888,-1.9147,-1.901,-1.9139,-1.9231,-1.9513,-1.9285,-1.9047,-1.8918,-1.8596,-1.7762,-1.7444,-1.703,-1.6662,-1.6339,-1.6292,-1.6292,-1.6622,-1.6669,-1.648,-1.652,-1.6332,-1.5961,-1.5499,-1.5267,-1.5315,-1.5363,-1.5363,-1.5315,-1.5261,-1.5683,-1.5356,-1.4981,-1.4984,-1.4986,-1.5099,-1.5409,-1.5679,-1.6156,-1.655,-1.6579,-1.6614,-1.6662,-1.6729,-1.6723,-1.6736,-1.6768,-1.6751,-1.6636,-1.6524,-1.6365,-1.6158,-1.6051,-1.5885,-1.5885,-1.5885,-1.5885,-1.5885,-1.5885,-1.5885,-1.5939,-1.6045,-1.5992,-1.6199,-1.6465,-1.6465,-1.6465,-1.6311,-1.6723,-1.6305,-1.6305,-1.6723,-1.7094,-1.7259,-1.7575,-1.8035,-1.8551,-1.9065,-1.9243,-1.9427,-2.0456,-2.1485,-2.1938,-2.2038,-1.8732,-1.8994,-1.9856,-2.0263,-2.0424,-2.1165,-2.1586,-2.1687,-2.1687,-2.1687,-2.1687,-2.1687,-2.1687,-2.1687,-2.1687,-2.1687,-2.1687,-2.1687,-2.1687,-2.1499,-2.1078,-2.0808,-2.0484,-2.0121,-1.9567,-1.9117,-1.8611,-1.8195,-1.7831,-1.7738,-1.8195,-1.8696,-1.8365,-1.794,-1.7615,-1.7522,-1.7886,-1.8118,-1.7933,-1.7708,-1.7436,-1.6835,-1.6419,-1.6008,-1.5825,-1.5642,-1.5737,-1.5737,-1.6015,-1.5872,-1.5778,-1.573,-1.5458,-1.5166,-1.4885,-1.4838,-1.4879,-1.4885,-1.4987,-1.4742,-1.4592,-1.4742,-1.464,-1.4776,-1.4801,-1.49,-1.4998,-1.5351,-1.5777,-1.6195,-1.6541,-1.6632,-1.6697,-1.6782,-1.6762,-1.6579,-1.6584,-1.6622,-1.653,-1.6318,-1.6258,-1.6258,-1.6051,-1.5998,-1.5885,-1.5885,-1.5885,-1.5885,-1.5885,-1.5885,-1.5885,-1.5885,-1.5885,-1.5885,-1.5885,-1.6152,-1.6045,-1.5939,-1.5885,-1.5885,-1.5992,-1.6045,-1.5939,-1.6099,-1.6524,-1.6577,-1.6571,-1.7199,-1.7982,-1.8356,-1.8665,-1.9826,-2.0834,-2.1148,-2.1556,-1.8812,-1.9083,-1.9884,-2.0415,-2.0842,-2.1412,-2.1687,-2.1687,-2.1687,-2.1687,-2.1687,-2.1687,-2.1687,-2.1687,-2.1687,-2.1687,-2.1687,-2.1687,-2.1508,-2.0898,-2.0484,-2.0121,-1.9567,-1.9063,-1.865,-1.8156,-1.7652,-1.7279,-1.6911,-1.6763,-1.7084,-1.7257,-1.7343,-1.6875,-1.6271,-1.6089,-1.6318,-1.6593,-1.6648,-1.6506,-1.6278,-1.5994,-1.5581,-1.5445,-1.5356,-1.5452,-1.5594,-1.5642,-1.5499,-1.5445,-1.5452,-1.522,-1.4987,-1.4694,-1.4538,-1.4538,-1.4544,-1.4592,-1.4646,-1.4496,-1.4442,-1.4448,-1.4424,-1.4619,-1.4814,-1.4874,-1.5127,-1.5419,-1.5858,-1.6257,-1.6553,-1.678,-1.6884,-1.6942,-1.673,-1.6471,-1.6471,-1.6465,-1.6264,-1.5992,-1.5939,-1.5939,-1.5885,-1.5885,-1.5885,-1.5885,-1.5885,-1.5885,-1.5885,-1.5885,-1.5885,-1.5885,-1.5885,-1.5885,-1.5885,-1.5885,-1.5885,-1.5885,-1.5885,-1.5885,-1.5885,-1.5885,-1.5885,-1.5885,-1.5939,-1.6045,-1.6152,-1.6365,-1.6942,-1.7312,-1.7621,-1.8244,-1.9124,-1.9857,-2.0372,-1.8812,-1.9078,-1.9715,-2.0397,-2.1108,-2.1548,-2.1687,-2.1687,-2.1687,-2.1687,-2.1687,-2.1687,-2.1687,-2.1687,-2.1687,-2.1553,-2.141,-2.132,-2.0853,-2.0158,-1.9704,-1.9293,-1.8788,-1.8511,-1.7731,-1.7326,-1.7005,-1.6581,-1.6062,-1.6015,-1.6015,-1.554,-1.5866,-1.5771,-1.5397,-1.5309,-1.5445,-1.5439,-1.5439,-1.5302,-1.5166,-1.4933,-1.479,-1.5035,-1.5083,-1.5178,-1.5315,-1.5309,-1.522,-1.5261,-1.5213,-1.4933,-1.4688,-1.4496,-1.4346,-1.4346,-1.4346,-1.44,-1.4472,-1.4407,-1.4383,-1.4377,-1.437,-1.4654,-1.4903,-1.4952,-1.5137,-1.5526,-1.5977,-1.6252,-1.6476,-1.6527,-1.6624,-1.6583,-1.6424,-1.6264,-1.6211,-1.6264,-1.6158,-1.5945,-1.5885,-1.5885,-1.5885,-1.5885,-1.5885,-1.5885,-1.5885,-1.5885,-1.5885,-1.5885,-1.5885,-1.5885,-1.5885,-1.5885,-1.5885,-1.5885,-1.5885,-1.5885,-1.5885,-1.5885,-1.5885,-1.5885,-1.5885,-1.5885,-1.5885,-1.5885,-1.5992,-1.6205,-1.6258,-1.6311,-1.6571,-1.663,-1.7305,-1.8349,-1.9228,-1.8931,-1.9295,-2.004,-2.0668,-2.1135,-2.1513,-2.1687,-2.1687,-2.1687,-2.1687,-2.1687,-2.1687,-2.1687,-2.1687,-2.1597,-2.132,-2.0808,-2.0583,-2.0022,-1.9155,-1.8611,-1.8234,-1.7544,-1.7124,-1.6574,-1.6292,-1.6109,-1.6109,-1.5872,-1.5784,-1.5784,-1.5683,-1.5683,-1.5404,-1.5213,-1.522,-1.5035,-1.4933,-1.4981,-1.4885,-1.4783,-1.464,-1.4496,-1.4694,-1.4838,-1.4933,-1.5077,-1.5131,-1.4981,-1.4933,-1.4831,-1.464,-1.4394,-1.4352,-1.4304,-1.4304,-1.4346,-1.4383,-1.4425,-1.4521,-1.4606,-1.469,-1.4763,-1.4932,-1.504,-1.5022,-1.5224,-1.5667,-1.5998,-1.6184,-1.6346,-1.6311,-1.6271,-1.6211,-1.6211,-1.6105,-1.5998,-1.5998,-1.6004,-1.5945,-1.5885,-1.5885,-1.5885,-1.5885,-1.5885,-1.5885,-1.5885,-1.5885,-1.5885,-1.5885,-1.5885,-1.5885,-1.5885,-1.5885,-1.5885,-1.5885,-1.5885,-1.5885,-1.5885,-1.5885,-1.5885,-1.5885,-1.5885,-1.5885,-1.5885,-1.5885,-1.5885,-1.5939,-1.5939,-1.5885,-1.5939,-1.6205,-1.6205,-1.6935,-1.7923,-1.8425,-1.8874,-2.0007,-2.0607,-2.0934,-2.1431,-2.1687,-2.1687,-2.1687,-2.1687,-2.1687,-2.1687,-2.1687,-2.1553,-2.132,-2.0862,-2.0167,-1.9795,-1.9063,-1.8149,-1.7598,-1.7138,-1.6527,-1.6109,-1.6015,-1.5825,-1.5825,-1.5825,-1.5825,-1.5784,-1.5784,-1.5683,-1.554,-1.5452,-1.5363,-1.5178,-1.5131,-1.5083,-1.5131,-1.4981,-1.4736,-1.4586,-1.4442,-1.4592,-1.4592,-1.4688,-1.479,-1.4838,-1.4742,-1.464,-1.4592,-1.449,-1.4388,-1.4431,-1.4485,-1.4539,-1.46,-1.4654,-1.469,-1.4769,-1.489,-1.4962,-1.4992,-1.5101,-1.5282,-1.5282,-1.5294,-1.5706,-1.5883,-1.6086,-1.6086,-1.6105,-1.6105,-1.6051,-1.6051,-1.5992,-1.5939,-1.5945,-1.5945,-1.5945,-1.5885,-1.5885,-1.5885,-1.5885,-1.5885,-1.5885,-1.5885,-1.5885,-1.5885,-1.5885,-1.5885,-1.5885,-1.5885,-1.5885,-1.5885,-1.5885,-1.5885,-1.5885,-1.5885,-1.5885,-1.5885,-1.5885,-1.5885,-1.5891,-1.5891,-1.5885,-1.5885,-1.5946,-1.5903,-1.5885,-1.5885,-1.5939,-1.5891,-1.5903,-1.6762,-1.7732,-1.823,-1.9612,-2.0349,-2.0631,-2.1319,-2.1641,-2.1687,-2.1687,-2.1597,-2.1454,-2.1463,-2.1553,-2.1221,-2.0574,-2.0204,-1.9658,-1.888,-1.801,-1.7365,-1.7091,-1.6574,-1.6204,-1.5825,-1.5825,-1.5825,-1.5825,-1.5825,-1.5825,-1.5784,-1.573,-1.5588,-1.5493,-1.5404,-1.522,-1.5178,-1.522,-1.5267,-1.5267,-1.5077,-1.4879,-1.4688,-1.4538,-1.4394,-1.4346,-1.44,-1.4496,-1.4496,-1.4442,-1.4442,-1.4454,-1.4401,-1.4431,-1.4564,-1.469,-1.4763,-1.489,-1.498,-1.5052,-1.5089,-1.5143,-1.5167,-1.5173,-1.5288,-1.5487,-1.5541,-1.5553,-1.5632,-1.5813,-1.5879,-1.5939,-1.5945,-1.5945,-1.5945,-1.5885,-1.5885,-1.5885,-1.5885,-1.5885,-1.5885,-1.5832,-1.5832,-1.5779,-1.5832,-1.5832,-1.5885,-1.5885,-1.5885,-1.5885,-1.5885,-1.5885,-1.5885,-1.5885,-1.5885,-1.5885,-1.5885,-1.5885,-1.5885,-1.5885,-1.5885,-1.5885,-1.5885,-1.5891,-1.5903,-1.5903,-1.5988,-1.6042,-1.6109,-1.6036,-1.5988,-1.6,-1.6024,-1.5922,-1.594,-1.5976,-1.7204,-1.808,-1.8718,-1.9543,-2.0482,-2.1034,-2.142,-2.1659,-2.1642,-2.132,-2.0673,-2.0574,-2.0574,-2.0484,-1.9521,-1.888,-1.8288,-1.7731,-1.699,-1.6204,-1.6292,-1.6062,-1.5872,-1.5825,-1.5825,-1.5825,-1.5825,-1.5825,-1.5825,-1.5825,-1.5778,-1.5689,-1.5493,-1.554,-1.5642,-1.5547,-1.541,-1.5499,-1.5547,-1.5404,-1.5029,-1.4838,-1.4544,-1.4394,-1.4298,-1.4346,-1.4346,-1.4346,-1.4346,-1.4346,-1.4358,-1.4413,-1.4564,-1.4702,-1.4841,-1.5028,-1.5161,-1.5203,-1.5264,-1.536,-1.5403,-1.5439,-1.5493,-1.5644,-1.5759,-1.5765,-1.5771,-1.5771,-1.5885,-1.5885,-1.5885,-1.5885,-1.5885,-1.5885,-1.5885,-1.5885,-1.5885,-1.5885,-1.5838,-1.5779,-1.5672,-1.5565,-1.5452,-1.5512,-1.5672,-1.5725,-1.5832,-1.5832,-1.5885,-1.5885,-1.5885,-1.5885,-1.5885,-1.5885,-1.5885,-1.5885,-1.5885,-1.5885,-1.5916,-1.597,-1.5964,-1.5891,-1.5903,-1.606,-1.6139,-1.6223,-1.6266,-1.6308,-1.6314,-1.6284,-1.6229,-1.6187,-1.6072,-1.606,-1.6169]},{"header":{"parameterUnit":"m.s-1","parameterCategory":1,"la1":31.0,"la2":29.5877,"lo1":-88.7671,"lo2":-86.6584,"dy":0.0162,"dx":0.0185,"nx":115,"ny":88,"refTime":"2024-08-15T00:00:00:Z","depth":0,"parameterNumber":3,"parameterNumberName":"V-component_of_WINDS"},"data":[0.0,0.0,0.0,0.0,0.0,0.0,0.0,0.0,0.0,0.0,0.0,0.0,0.0,0.0,0.0,0.0,0.0,0.0,0.0,0.0,0.0,0.0,0.0,0.0,0.0,0.0,0.0,0.0,0.0,0.0,0.0,0.0,0.0,0.0,0.0,0.0,0.0,0.0,0.0,0.0,0.0,0.0,0.0,0.0,0.0,0.0,0.0,0.0,0.0,0.0,0.0,0.0,0.0,0.0,0.0,0.0,0.0,0.0,0.0,0.0,0.0,0.0,0.0,0.0,0.0,0.0,0.0,0.0,0.0,0.0,0.0,0.0,0.0,0.0,0.0,0.0,0.0,0.0,0.0,0.0,0.0,0.0,0.0,0.0,0.0,0.0,0.0,0.0,0.0,0.0,0.0,0.0,0.0,0.0,0.0,0.0,0.0,0.0,0.0,0.0,0.0,0.0,0.0,0.0,0.0,0.0,0.0,0.0,0.0,0.0,0.0,0.0,0.0,0.0,0.0,0.0,0.0,0.0,0.0,0.0,0.0,0.0,0.0,0.0,0.0,0.0,0.0,0.0,0.0,0.0,0.0,0.0,0.0,0.0,0.0,0.0,0.0,0.0,0.0,0.0,0.0,0.0,0.0,0.0,0.0,0.0,0.0,0.0,0.0,0.0,0.0,0.0,0.0,0.0,0.0,0.0,0.0,0.0,0.0,0.0,0.0,0.0,0.0,0.0,0.0,0.0,0.0,0.0,0.0,0.0,0.0,0.0,0.0,0.0,0.0,0.0,0.0,0.0,0.0,0.0,0.0,0.0,0.0,0.0,0.0,0.0,0.0,0.0,0.0,0.0,0.0,0.0,0.0,0.0,0.0,0.0,0.0,0.0,0.0,0.0,0.0,0.0,0.0,0.0,0.0,0.0,0.0,0.0,0.0,0.0,0.0,0.0,0.0,0.0,0.0,0.0,0.0,0.0,0.0,0.0,0.0,0.0,0.0,0.0,0.0,0.0,0.0,0.0,0.0,0.0,0.0,0.0,0.0,0.0,0.0,0.0,0.0,0.0,0.0,0.0,0.0,0.0,0.0,0.0,0.0,0.0,0.0,0.0,0.0,0.0,0.0,0.0,0.0,0.0,0.0,0.0,0.0,0.0,0.0,0.0,0.0,0.0,0.0,0.0,0.0,0.0,0.0,0.0,0.0,0.0,0.0,0.0,0.0,0.0,0.0,0.0,0.0,0.0,0.0,0.0,0.0,0.0,0.0,0.0,0.0,0.0,0.0,0.0,0.0,0.0,0.0,0.0,0.0,0.0,0.0,0.0,0.0,0.0,0.0,0.0,0.0,0.0,0.0,0.0,0.0,0.0,0.0,0.0,0.0,0.0,0.0,0.0,0.0,0.0,0.0,0.0,0.0,0.0,0.0,0.0,0.0,0.0,0.0,0.0,0.0,0.0,0.0,0.0,0.0,0.0,0.0,0.0,0.0,0.0,0.0,0.0,0.0,0.0,0.0,0.0,0.0,0.0,0.0,0.0,0.0,0.0,0.0,0.0,0.0,0.0,0.0,0.0,0.0,0.0,0.0,0.0,0.0,0.0,0.0,0.0,0.0,0.0,0.0,0.0,0.0,0.0,0.0,0.0,0.0,0.0,0.0,0.0,0.0,0.0,0.0,0.0,0.0,0.0,0.0,0.0,0.0,0.0,0.0,0.0,0.0,0.0,0.0,0.0,0.0,0.0,0.0,0.0,0.0,0.0,0.0,0.0,0.0,0.0,0.0,0.0,0.0,0.0,0.0,0.0,0.0,0.0,0.0,0.0,0.0,0.0,0.0,0.0,0.0,0.0,0.0,0.0,0.0,0.0,0.0,0.0,0.0,0.0,0.0,0.0,0.0,0.0,0.0,0.0,0.0,0.0,0.0,0.0,0.0,0.0,0.0,0.0,0.0,0.0,0.0,0.0,0.0,0.0,0.0,0.0,0.0,0.0,0.0,0.0,0.0,0.0,0.0,0.0,0.0,0.0,0.0,0.0,0.0,0.0,0.0,0.0,0.0,0.0,0.0,0.0,0.0,0.0,0.0,0.0,0.0,0.0,0.0,0.0,0.0,0.0,0.0,0.0,0.0,0.0,0.0,0.0,0.0,0.0,0.0,0.0,0.0,0.0,0.0,0.0,0.0,0.0,0.0,0.0,0.0,0.0,0.0,0.0,0.0,0.0,0.0,0.0,0.0,0.0,0.0,0.0,0.0,0.0,0.0,0.0,0.0,0.0,0.0,0.0,0.0,0.0,0.0,0.0,0.0,0.0,0.0,0.0,0.0,0.0,0.0,0.0,0.0,0.0,0.0,0.0,0.0,0.0,0.0,0.0,0.0,0.0,0.0,0.0,0.0,0.0,0.0,0.0,0.0,0.0,0.0,0.0,0.0,0.0,0.0,0.0,0.0,0.0,0.0,0.0,0.0,0.0,0.0,0.0,0.0,0.0,0.0,0.0,0.0,0.0,0.0,0.0,0.0,0.0,0.0,0.0,0.0,0.0,0.0,0.0,0.0,0.0,0.0,0.0,0.0,0.0,0.0,0.0,0.0,0.0,0.0,0.0,0.0,0.0,0.0,0.0,0.0,0.0,0.0,0.0,0.0,0.0,0.0,0.0,0.0,0.0,0.0,0.0,0.0,0.0,0.0,0.0,0.0,0.0,0.0,0.0,0.0,0.0,0.0,0.0,0.0,0.0,0.0,0.0,0.0,0.0,0.0,0.0,0.0,0.0,0.0,0.0,0.0,0.0,0.0,0.0,0.0,0.0,0.0,0.0,0.0,0.0,0.0,0.0,0.0,0.0,0.0,0.0,0.0,0.0,0.0,0.0,0.0,0.0,0.0,0.0,0.0,0.0,0.0,0.0,0.0,0.0,0.0,0.0,0.0,0.0,0.0,0.0,0.0,0.0,0.0,0.0,0.0,0.0,0.0,0.0,0.0,0.0,0.0,0.0,0.0,0.0,0.0,0.0,0.0,0.0,0.0,0.0,0.0,0.0,0.0,0.0,0.0,0.0,0.0,0.0,0.0,0.0,0.0,0.0,0.0,0.0,0.0,0.0,0.0,0.0,0.0,0.0,0.0,0.0,0.0,0.0,0.0,0.0,0.0,0.0,0.0,0.0,0.0,0.0,0.0,0.0,0.0,0.0,0.0,0.0,0.0,0.0,0.0,0.0,0.0,0.0,0.0,0.0,0.0,0.0,0.0,0.0,0.0,0.0,0.0,0.0,0.0,0.0,0.0,0.0,0.0,0.0,0.0,0.0,0.0,0.0,0.0,0.0,0.0,0.0,0.0,0.0,0.0,0.0,0.0,0.0,0.0,0.0,0.0,0.0,0.0,0.0,0.0,0.0,0.0,0.0,0.0,0.0,0.0,0.0,0.0,0.0,0.0,0.0,0.0,0.0,0.0,0.0,0.0,0.0,0.0,0.0,0.0,0.0,0.0,0.0,0.0,0.0,0.0,0.0,0.0,0.0,0.0,0.0,0.0,0.0,0.0,0.0,0.0,0.0,0.0,0.0,0.0,0.0,0.0,0.0,0.0,0.0,0.0,0.0,0.0,0.0,0.0,0.0,0.0,0.0,0.0,0.0,0.0,0.0,0.0,0.0,0.0,0.0,0.0,0.0,0.0,0.0,0.0,0.0,0.0,0.0,0.0,0.0,0.0,0.0,0.0,0.0,0.0,0.0,0.0,0.0,0.0,0.0,0.0,0.0,0.0,0.0,0.0,0.0,0.0,0.0,0.0,0.0,0.0,0.0,0.0,0.0,0.0,0.0,0.0,0.0,0.0,0.0,0.0,0.0,0.0,0.0,0.0,0.0,0.0,0.0,0.0,0.0,0.0,0.0,0.0,0.0,0.0,0.0,0.0,0.0,0.0,0.0,0.0,0.0,0.0,0.0,0.0,0.0,0.0,0.0,0.0,0.0,0.0,0.0,0.0,0.0,0.0,0.0,0.0,0.0,0.0,0.0,0.0,0.0,0.0,0.0,0.0,0.0,0.0,0.0,0.0,0.0,0.0,0.0,0.0,0.0,0.0,0.0,0.0,0.0,0.0,0.0,0.0,0.0,0.0,0.0,0.0,0.0,0.0,0.0,0.0,0.0,0.0,0.0,0.0,0.0,0.0,0.0,0.0,0.0,0.0,0.0,0.0,0.0,0.0,0.0,0.0,0.0,0.0,0.0,0.0,0.0,0.0,0.0,0.0,0.0,0.0,0.0,0.0,0.0,0.0,0.0,0.0,0.0,0.0,0.0,0.4069,0.0,0.0,0.0,0.0,0.0,0.0,0.0,0.0,0.0,0.0,0.0,0.0,0.0,0.0,0.0,0.0,0.0,0.0,0.0,0.0,0.0,0.0,0.0,0.0,0.0,0.0,0.0,0.0,0.0,0.0,0.0,0.0,0.0,0.0,0.0,0.0,0.0,0.0,0.0,0.0,0.0,0.0,0.0,0.0,0.0,0.0,0.0,0.0,0.0,0.0,0.0,0.0,0.0,0.0,0.0,0.0,0.0,0.0,0.0,0.0,0.0,0.0,0.0,0.0,0.0,0.0,0.0,0.0,0.0,0.0,0.0,0.0,0.0,0.0,0.0,0.0,0.0,0.0,0.0,0.0,0.0,0.0,0.0,0.0,0.0,0.0,0.0,0.0,0.0,0.0,0.0,0.0,0.0,0.0,0.0,0.0,0.0,0.0,0.0,0.0,0.0,0.0,0.0,0.0,0.0,0.0,0.0,0.0,0.0,0.0,0.6234,0.5586,0.5508,0.5004,0.4045,0.0,0.0,0.0,0.0,0.0,0.0,0.0,0.0,0.0,0.0,0.0,0.0,0.0,0.0,0.0,0.0,0.0,0.0,0.0,0.0,0.0,0.0,0.0,0.0,0.0,0.0,0.0,0.0,0.0,0.0,0.0,0.0,0.0,0.0,0.0,0.0,0.0,0.0,0.0,0.0,0.0,0.0,0.0,0.0,0.0,0.0,0.0,0.0,0.0,0.0,0.0,0.0,0.0,0.0,0.0,0.0,0.0,0.0,0.0,0.0,0.0,0.0,0.0,0.0,0.0,0.0,0.0,0.0,0.0,0.0,0.0,0.0,0.0,0.0,0.0,0.0,0.0,0.0,0.0,0.0,0.0,0.0,0.0,0.0,0.0,0.0,0.0,0.0,0.0,0.0,0.0,0.0,0.0,0.0,0.0,0.0,0.0,0.0,0.0,0.0,0.0,0.0,0.0,0.0,0.0,0.0,0.0,0.0,0.0,0.0,0.0,0.0,0.56,0.5047,0.4238,0.0,0.0,0.0,0.0,0.0,0.0,0.0,0.0,0.0,0.0,0.0,0.0,0.0,0.0,0.0,0.0,0.0,0.0,0.0,0.0,0.0,0.0,0.0,0.0,0.0,0.0,0.0,0.0,0.0,0.0,0.0,0.0,0.0,0.0,0.0,0.0,0.0,0.0,0.0,0.0,0.0,0.0,0.0,0.0,0.0,0.0,0.0,0.0,0.0,0.0,0.0,0.0,0.0,0.0,0.0,0.0,0.0,0.0,0.0,0.0,0.0,0.0,0.0,0.0,0.0,0.0,0.0,0.0,0.0,0.0,0.0,0.0,0.0,0.0,0.0,0.0,0.0,0.0,0.0,0.0,0.0,0.0,0.0,0.0,0.0,0.0,0.0,0.0,0.0,0.0,0.0,0.0,0.0,0.0,0.0,0.0,0.0,0.0,0.0,0.0,0.0,0.0,0.0,0.0,0.0,0.0,0.0,0.0,0.0,0.0,0.7288,0.7045,0.6734,0.0,0.4607,0.0,0.0,0.0,0.0,0.0,0.0,0.0,0.0,0.0,0.0,0.0,0.0,0.0,0.0,0.0,0.0,0.0,0.0,0.0,0.0,0.0,0.0,0.0,0.0,0.0,0.0,0.0,0.0,0.0,0.0,0.0,0.0,0.0,0.0,0.0,0.0,0.0,0.0,0.0,0.0,0.0,0.0,0.0,0.0,0.0,0.0,0.0,0.0,0.0,0.0,0.0,0.0,0.0,0.0,0.0,0.0,0.0,0.0,0.0,0.0,0.0,0.0,0.0,0.0,0.0,0.0,0.0,0.0,0.0,0.0,0.0,0.0,0.0,0.0,0.0,0.0,0.0,0.0,0.0,0.0,0.0,0.0,0.0,0.0,0.0,0.0,0.0,0.0,0.0,0.0,0.0,0.0,0.0,0.0,0.0,0.0,0.0,0.0,0.0,0.0,0.0,0.0,0.0,0.0,0.0,0.0,0.0,0.0,0.0,0.0,0.7455,0.7147,0.6625,0.6094,0.0,0.0,0.0,0.0,0.0,0.0,0.0,0.0,0.0,0.0,0.0,0.0,0.0,0.0,0.0,0.0,0.0,0.0,0.0,0.0,0.0,0.0,0.0,0.0,0.0,0.0,0.0,0.0,0.0,0.0,0.0,0.0,0.0,0.0,0.0,0.0,0.0,0.0,0.0,0.0,0.0,0.0,0.0,0.0,0.0,0.0,0.0,0.0,0.0,0.0,0.0,0.0,0.0,0.0,0.0,0.0,0.0,0.0,0.0,0.0,0.0,0.0,0.0,0.0,0.0,0.0,0.0,0.0,0.0,0.0,0.0,0.0,0.0,0.0,0.0,0.0,0.0,0.0,0.0,0.0,0.0,0.0,0.0,0.0,0.0,0.0,0.0,0.0,0.0,0.0,0.0,0.0,0.0,0.0,0.0,0.0,0.0,0.0,0.0,0.0,0.0,0.0,0.0,0.0,0.0,0.0,0.0,0.0,0.0,0.0,0.7683,0.7635,0.7288,0.6873,0.6526,0.6214,0.0,0.0,0.0,0.0,0.0,0.0,0.0,0.0,0.0,0.0,0.0,0.0,0.0,0.0,0.0,0.0,0.0,0.0,0.0,0.0,0.0,0.0,0.0,0.0,0.0,0.0,0.0,0.0,0.0,0.0,0.0,0.0,0.0,0.0,0.0,0.0,0.0,0.0,0.0,0.0,0.0,0.0,0.0,0.0,0.0,0.0,0.0,0.0,0.0,0.0,0.0,0.0,0.0,0.0,0.0,0.0,0.0,0.0,0.0,0.0,0.0,0.0,0.0,0.0,0.0,0.0,0.0,0.0,0.0,0.0,0.0,0.0,0.0,0.0,0.0,0.0,0.0,0.0,0.0,0.0,0.0,0.0,0.0,0.0,0.0,0.0,0.0,0.0,0.0,0.0,0.0,0.0,0.0,0.0,0.0,0.0,0.0,0.0,0.0,0.0,0.0,0.0,0.0,0.0,0.0,0.0,0.0,0.0,0.8707,0.826,0.793,0.7808,0.7931,0.7378,0.0,0.0,0.0,0.0,0.0,0.0,0.0,0.0,0.0,0.0,0.0,0.0,0.0,0.0,0.0,0.0,0.0,0.0,0.0,0.0,0.0,0.0,0.0,0.0,0.0,0.0,0.0,0.0,0.0,0.0,0.0,0.0,0.0,0.0,0.0,0.0,0.0,0.0,0.0,0.0,0.0,0.0,0.0,0.0,0.0,0.0,0.0,0.0,0.0,0.0,0.0,0.0,0.0,0.0,0.0,0.0,0.0,0.0,0.0,0.0,0.0,0.0,0.0,0.0,0.0,0.0,0.0,0.0,0.0,0.0,0.0,0.0,0.0,0.0,0.0,0.0,0.0,0.0,0.0,0.0,0.0,0.0,0.0,0.0,0.0,0.0,0.0,0.0,0.0,0.0,0.0,0.0,0.0,0.0,0.0,0.0,0.0,0.0,0.0,0.0,0.0,0.0,0.0,0.0,0.0,0.0,0.0,0.0,0.0,0.817,0.8174,0.8485,0.9093,0.8203,0.7651,0.0,0.0,0.0,0.0,0.0,0.0,0.0,0.0,0.0,0.0,0.0,0.0,0.0,0.0,0.0,0.0,0.0,0.0,0.0,0.0,0.0,0.0,0.0,0.0,0.0,0.0,0.0,0.0,0.0,0.0,0.0,0.0,0.0,0.0,0.0,0.0,0.0,0.0,0.0,0.0,0.0,0.0,0.0,0.0,0.0,0.0,0.0,0.0,0.0,0.0,0.0,0.0,0.0,0.0,0.0,0.0,0.0,0.0,0.0,0.0,0.0,0.0,0.0,0.0,0.0,0.0,0.0,0.0,0.0,0.0,0.0,0.0,0.0,0.0,0.0,0.0,0.0,0.0,0.0,0.0,0.0,0.0,0.0,0.0,0.0,0.0,0.0,0.0,0.0,0.0,0.0,0.0,0.0,0.0,0.0,0.0,0.0,0.0,0.0,0.0,0.0,0.0,0.0,0.0,0.0,0.0,0.0,0.0,0.0,0.8024,0.0,0.8961,0.0,0.846,0.7948,0.0,0.0,0.0,0.0,0.0,0.0,0.0,0.0,0.0,0.0,0.0,0.0,0.0,0.0,0.0,0.0,0.0,0.0,0.0,0.0,0.0,0.0,0.0,0.0,0.0,0.0,0.0,0.0,0.0,0.0,0.0,0.0,0.0,0.0,0.0,0.0,0.0,0.0,0.0,0.0,0.0,0.0,0.0,0.0,0.0,0.0,0.0,0.0,0.0,0.0,0.0,0.0,0.0,0.0,0.0,0.0,0.0,0.0,0.0,0.0,0.0,0.0,0.0,0.0,0.0,0.0,0.0,0.0,0.0,0.0,0.0,0.0,0.0,0.0,0.0,0.0,0.0,0.0,0.0,0.0,0.0,0.0,0.0,0.0,0.0,0.0,0.0,0.0,0.0,0.0,0.0,0.0,0.0,0.0,0.0,0.0,0.0,0.0,0.0,0.0,0.0,0.0,0.0,0.0,0.0,0.0,0.0,0.0,0.7832,0.8498,0.9123,0.921,0.8666,0.875,0.825,0.0,0.0,0.0,0.0,0.0,0.0,0.0,0.0,0.0,0.0,0.0,0.0,0.0,0.0,0.0,0.0,0.0,0.0,0.0,0.0,0.0,0.0,0.0,0.0,0.0,0.0,0.0,0.0,0.0,0.0,0.0,0.0,0.0,0.0,0.0,0.0,0.0,0.0,0.0,0.0,0.0,0.0,0.0,0.0,0.0,0.0,0.0,0.0,0.0,0.0,0.0,0.0,0.0,0.0,0.0,0.0,0.0,0.0,0.0,0.0,0.0,0.0,0.0,0.0,0.0,0.0,0.0,0.0,0.0,0.0,0.0,0.0,0.0,0.0,0.0,0.0,0.0,0.0,0.0,0.0,0.0,0.0,0.0,0.0,0.0,0.0,0.0,0.0,0.0,0.0,0.0,0.0,0.0,0.0,0.0,0.0,0.0,0.0,0.0,0.0,0.0,0.0,0.0,0.0,0.0,0.0,0.0,0.0,0.0,0.8391,0.8845,0.9127,0.9173,0.8496,0.8075,0.0,0.0,0.0,0.0,0.0,0.0,0.0,0.0,0.0,0.0,0.0,0.0,0.0,0.0,0.0,0.0,0.0,0.0,0.0,0.0,0.0,0.0,0.0,0.0,0.0,0.0,0.0,0.0,0.0,0.0,0.0,0.0,0.0,0.0,0.0,0.0,0.0,0.0,0.0,0.0,0.0,0.0,0.0,0.0,0.0,0.0,0.0,0.0,0.0,0.0,0.0,0.0,0.0,0.0,0.0,0.0,0.0,0.0,0.0,0.0,0.0,0.0,0.0,0.0,0.0,0.0,0.0,0.0,0.0,0.0,0.0,0.0,0.0,0.0,0.0,0.0,0.0,0.0,0.0,0.0,0.0,0.0,0.0,0.0,0.0,0.0,0.0,0.0,0.0,0.0,0.0,0.0,0.0,0.0,0.0,0.0,0.0,0.0,0.0,0.0,0.0,0.0,0.0,0.0,0.0,0.0,0.0,0.0,0.0,0.9239,0.9207,0.9196,0.9267,0.8434,0.8069,0.8121,0.0,0.0,0.0,0.0,0.0,0.0,0.0,0.0,0.0,0.0,0.0,0.0,0.0,0.0,0.0,0.0,0.0,0.0,0.0,0.0,0.0,0.0,0.0,0.0,0.0,0.0,0.0,0.0,0.0,0.0,0.0,0.0,0.0,0.0,0.0,0.0,0.0,0.0,0.0,0.0,0.0,0.0,0.0,0.0,0.0,0.0,0.0,0.0,0.0,0.0,0.0,0.0,0.0,0.0,0.0,0.0,0.0,0.0,0.0,0.0,0.0,0.0,0.0,0.0,0.0,0.0,0.0,0.0,0.0,0.0,0.0,0.0,0.0,0.0,0.0,0.0,0.0,0.0,0.0,0.0,0.0,0.0,0.0,0.0,0.0,0.0,0.0,0.0,0.0,0.0,0.0,0.0,0.0,0.0,0.0,0.0,0.0,0.0,0.0,0.0,0.0,0.0,0.0,0.0,0.0,0.0,0.0,0.0,1.079,1.0001,0.9376,0.8843,0.87,0.8246,0.0,0.0,0.0,0.0,0.0,0.0,0.0,0.0,0.0,0.0,0.0,0.0,0.0,0.0,0.0,0.0,0.0,0.0,0.0,0.0,0.0,0.0,0.0,0.0,0.0,0.0,0.0,0.0,0.0,0.0,0.0,0.0,0.0,0.0,0.0,0.0,0.0,0.0,0.0,0.0,0.0,0.0,0.0,0.0,0.0,0.0,0.0,0.0,0.0,0.0,0.0,0.0,0.0,0.0,0.0,0.0,0.0,0.0,0.0,0.0,0.0,0.0,0.0,0.0,0.0,0.0,0.0,0.0,0.0,0.0,0.0,0.0,0.0,0.0,0.0,0.0,0.0,0.0,0.0,0.0,0.0,0.0,0.0,0.0,0.0,0.0,0.0,0.0,0.0,0.0,0.0,0.0,0.0,0.0,0.0,0.0,0.0,0.0,0.0,0.0,0.0,0.0,0.0,0.0,0.0,0.0,0.0,0.0,0.0,1.0503,0.9936,0.9559,0.9405,0.9002,0.8866,0.0,0.0,0.0,0.0,0.0,0.0,0.0,0.0,0.0,0.0,0.0,0.0,0.0,0.0,0.0,0.0,0.0,0.0,0.0,0.0,0.0,0.0,0.0,0.0,0.0,0.0,0.0,0.0,0.0,0.0,0.0,0.0,0.0,0.0,0.0,0.0,0.0,0.0,0.0,0.0,0.0,0.0,0.0,0.0,0.0,0.0,0.0,0.0,0.0,0.0,0.0,0.0,0.0,0.0,0.0,0.0,0.0,0.0,0.0,0.0,0.0,0.0,0.0,0.0,0.0,0.0,0.0,0.0,0.0,0.0,0.0,0.0,0.0,0.0,0.0,0.0,0.0,0.0,0.0,0.0,0.0,0.0,0.0,0.0,0.0,0.0,0.0,0.0,0.0,0.0,0.0,0.0,0.0,0.0,0.0,0.0,0.0,0.0,0.0,0.0,0.0,0.0,0.0,0.0,0.0,0.0,0.0,0.0,1.1997,1.1976,1.1262,1.089,1.0886,1.0159,0.9971,0.0,0.0,0.0,0.0,0.0,0.0,0.0,0.0,0.0,0.0,0.0,0.0,0.0,0.0,0.0,0.0,0.0,0.0,0.0,0.0,0.0,0.0,0.0,0.0,0.0,0.0,0.0,0.0,0.0,0.0,0.0,0.0,0.0,0.0,0.0,0.0,0.0,0.0,0.0,0.0,0.0,0.0,0.0,0.0,0.0,0.0,0.0,0.0,0.0,0.0,0.0,0.0,0.0,0.0,0.0,0.0,0.0,0.0,0.0,0.0,0.0,0.0,0.0,0.0,0.0,0.0,0.0,0.0,0.0,0.0,0.0,0.0,0.0,0.0,0.0,0.0,0.0,0.0,0.0,0.0,0.0,0.0,0.0,0.0,0.0,0.0,0.0,0.0,0.0,0.0,0.0,0.0,0.0,0.0,0.0,0.0,0.0,0.0,0.0,0.0,0.0,0.0,0.0,0.0,0.0,0.0,0.0,0.0,1.3473,1.4146,1.3214,1.2721,1.2775,1.1719,1.125,0.0,0.0,0.0,0.0,0.0,0.0,0.0,0.0,0.0,0.0,0.0,0.0,0.0,0.0,0.0,0.0,0.0,0.0,0.0,0.0,0.0,0.0,0.0,0.0,0.0,0.0,0.0,0.0,0.0,0.0,0.0,0.0,0.0,0.0,0.0,0.0,0.0,0.0,0.0,0.0,0.0,0.0,0.0,0.0,0.0,0.0,0.0,0.0,0.0,0.0,0.0,0.0,0.0,0.0,0.0,0.0,0.0,0.0,0.0,0.0,0.0,0.0,0.0,0.0,0.0,0.0,0.0,0.0,0.0,0.0,0.0,0.0,0.0,0.0,0.0,0.0,0.0,0.0,0.0,0.0,0.0,0.0,0.0,0.0,0.0,0.0,0.0,0.0,0.0,0.0,0.0,0.0,0.0,0.0,0.0,0.0,0.0,0.0,0.0,0.0,0.0,0.0,0.0,0.0,0.0,0.0,0.0,0.0,1.3718,1.4113,1.3171,1.2971,1.3538,1.2632,1.2169,0.0,0.0,0.0,0.0,0.0,0.0,0.0,0.0,0.0,0.0,0.0,0.0,0.0,0.0,0.0,0.0,0.0,0.0,0.0,0.0,0.0,0.0,0.0,0.0,0.0,0.0,0.0,0.0,0.0,0.0,0.0,0.0,0.0,0.0,0.0,0.0,0.0,0.0,0.0,0.0,0.0,0.0,0.0,0.0,0.0,0.0,0.0,0.0,1.1321,0.0,0.0,0.0,0.0,0.0,0.0,0.0,0.0,0.0,0.0,0.0,0.0,0.0,0.0,0.0,0.0,0.0,0.0,0.0,0.0,0.0,0.0,0.0,0.0,0.0,0.0,0.0,0.0,0.0,0.0,0.0,0.0,0.0,0.0,0.0,0.0,0.0,0.0,0.0,0.0,0.0,0.0,0.0,0.0,0.0,0.0,0.0,0.0,0.0,0.0,0.0,0.0,0.0,0.0,0.0,0.0,0.0,0.0,0.0,1.4731,1.5022,1.4337,1.4215,1.4619,1.404,1.3547,0.0,0.0,0.0,0.0,0.0,0.0,0.0,0.0,0.0,0.0,0.0,0.0,0.0,0.0,0.0,0.0,0.0,0.0,0.0,0.0,0.0,0.0,0.0,0.0,0.0,0.0,0.0,0.0,0.0,0.0,0.0,0.0,0.0,0.0,0.0,0.0,0.0,0.0,0.0,0.0,0.0,0.0,0.0,0.0,0.0,0.0,0.0,0.0,0.0,0.0,0.0,0.0,0.0,0.0,0.0,0.0,0.0,0.0,0.0,0.0,0.0,0.0,0.0,0.0,0.0,0.0,0.0,0.0,0.0,0.0,0.0,0.0,0.0,0.0,0.0,0.0,0.0,0.0,0.0,0.0,0.0,0.0,0.0,0.0,0.0,0.0,0.0,0.0,0.0,0.0,0.0,0.0,0.0,0.0,0.0,0.0,0.0,0.0,0.0,0.0,0.0,0.0,0.0,0.0,0.0,0.0,0.0,1.5437,1.5781,1.6224,1.5691,1.5463,1.5645,1.5327,1.472,1.3712,0.0,0.0,0.0,0.0,0.0,0.0,0.0,0.0,0.0,0.0,0.0,0.0,0.0,0.0,0.0,0.0,0.0,0.0,0.0,0.0,0.0,0.0,0.0,0.0,0.0,0.0,0.0,0.0,0.0,0.0,0.0,0.0,0.0,0.0,0.0,0.0,0.0,0.0,1.4331,1.5439,0.0,0.0,0.0,0.0,0.0,0.0,0.0,0.0,1.2554,0.0,0.0,0.0,0.0,0.0,0.0,0.0,0.0,0.0,0.0,0.0,0.0,0.0,0.0,0.0,0.0,0.0,0.0,0.0,0.0,0.0,0.0,0.0,0.0,0.0,0.0,0.0,0.0,0.0,0.0,0.0,0.0,0.0,0.0,0.0,0.0,0.0,0.0,0.0,0.0,0.0,0.0,0.0,0.0,0.0,0.0,0.0,0.0,0.0,0.0,0.0,0.0,0.0,0.0,0.0,0.0,1.6133,1.5524,1.561,1.6513,1.5777,1.5369,1.5359,1.526,1.4647,1.3555,0.0,0.0,0.0,0.0,0.0,0.0,0.0,0.0,0.0,0.0,0.0,0.0,0.0,0.0,0.0,0.0,0.0,0.0,0.0,0.0,0.0,0.0,0.0,0.0,0.0,0.0,0.0,0.0,0.0,0.0,0.0,0.0,0.0,0.0,0.0,0.0,0.0,0.0,0.0,1.5898,1.6367,0.0,0.0,0.0,0.0,0.0,0.0,0.0,0.0,1.2915,0.0,0.0,0.0,0.0,0.0,0.0,0.0,0.0,0.0,0.0,0.0,0.0,0.0,0.0,0.0,0.0,0.0,0.0,0.0,0.0,0.0,0.0,0.0,0.0,0.0,0.0,0.0,0.0,0.0,0.0,0.0,0.0,0.0,0.0,0.0,0.0,0.0,0.0,0.0,0.0,0.0,0.0,0.0,0.0,0.0,0.0,0.0,0.0,0.0,0.0,0.0,0.0,0.0,0.0,0.0,1.5826,1.6027,1.6246,1.6515,1.5769,1.5376,1.5383,1.4811,1.4144,0.0,0.0,0.0,0.0,0.0,0.0,0.0,0.0,0.0,0.0,0.0,0.0,0.0,0.0,0.0,0.0,0.0,0.0,0.0,0.0,0.0,0.0,0.0,0.0,0.0,0.0,0.0,0.0,0.0,0.0,0.0,0.0,0.0,0.0,0.0,0.0,0.0,0.0,0.0,0.0,1.6586,1.6927,1.728,0.0,0.0,0.0,0.0,0.0,0.0,1.3686,1.3642,0.0,0.0,0.0,0.0,0.0,0.0,0.0,0.0,0.0,0.0,0.0,0.0,0.0,0.0,0.0,0.0,0.0,0.0,0.0,0.0,0.0,0.0,0.0,0.0,0.0,0.0,0.0,0.0,0.0,0.0,0.0,0.0,0.0,0.0,0.0,0.0,0.0,0.0,0.0,0.0,0.0,0.0,0.0,0.0,0.0,0.0,0.0,0.0,0.0,0.0,0.0,0.0,0.0,0.0,0.0,1.5301,1.6202,1.66,1.6361,1.5683,1.536,1.5461,1.4485,1.3824,0.0,0.0,0.0,0.0,0.0,0.0,0.0,0.0,0.0,0.0,0.0,0.0,0.0,0.0,0.0,0.0,0.0,0.0,0.0,0.0,0.0,0.0,0.0,0.0,0.0,0.0,0.0,0.0,0.0,0.0,0.0,0.0,0.0,0.0,0.0,0.0,0.0,0.0,0.0,0.0,0.0,1.766,1.7894,1.7435,0.0,0.0,0.0,0.0,1.4938,1.4728,0.0,0.0,0.0,0.0,0.0,0.0,0.0,0.0,0.0,0.0,0.0,0.0,0.0,0.0,0.0,0.0,0.0,0.0,0.0,0.0,0.0,0.0,0.0,0.0,0.0,0.0,0.0,0.0,0.0,0.0,0.0,0.0,0.0,0.0,0.0,0.0,0.0,0.0,0.0,0.0,0.0,0.0,0.0,0.0,0.0,0.0,0.0,0.0,0.0,0.0,0.0,0.0,0.0,0.0,0.0,0.0,1.4944,1.5447,1.5797,1.6011,1.5507,1.5281,1.5497,1.4862,1.4248,0.0,0.0,0.0,0.0,0.0,0.0,0.0,0.0,0.0,0.0,0.0,0.0,0.0,0.0,0.0,0.0,0.0,0.0,0.0,0.0,0.0,0.0,0.0,0.0,0.0,0.0,0.0,0.0,0.0,0.0,0.0,0.0,0.0,0.0,0.0,0.0,0.0,0.0,0.0,0.0,0.0,1.8549,1.8279,1.8195,1.7911,0.0,0.0,1.6755,1.6088,1.5976,0.0,0.0,0.0,0.0,0.0,0.0,0.0,0.0,0.0,0.0,0.0,0.0,0.0,0.0,0.0,0.0,0.0,0.0,0.0,0.0,0.0,0.0,0.0,0.0,0.0,0.0,0.0,0.0,0.0,0.0,0.0,0.0,0.0,0.0,0.0,0.0,0.0,0.0,0.0,0.0,0.0,0.0,0.0,0.0,0.0,0.0,0.0,0.0,0.0,0.0,0.0,0.0,0.0,0.0,0.0,1.4858,1.5094,1.5885,1.6154,1.5951,1.559,1.5668,1.6145,1.5247,1.4804,0.0,0.0,0.0,0.0,0.0,0.0,0.0,0.0,0.0,0.0,0.0,0.0,0.0,0.0,0.0,0.0,0.0,0.0,0.0,0.0,0.0,0.0,0.0,0.0,0.0,0.0,0.0,0.0,0.0,0.0,0.0,0.0,0.0,0.0,0.0,0.0,0.0,0.0,0.0,0.0,0.0,0.0,1.8557,1.8422,0.0,0.0,0.0,1.7575,1.6888,0.0,0.0,0.0,0.0,0.0,0.0,0.0,0.0,0.0,0.0,0.0,0.0,0.0,0.0,0.0,0.0,0.0,0.0,0.0,0.0,0.0,0.0,0.0,0.0,0.0,0.0,0.0,0.0,0.0,0.0,0.0,0.0,0.0,0.0,0.0,0.0,0.0,0.0,0.0,0.0,0.0,0.0,0.0,0.0,0.0,0.0,0.0,0.0,0.0,0.0,0.0,0.0,0.0,0.0,0.0,0.0,0.0,1.5779,1.6831,1.707,1.6511,1.6319,1.6476,1.7058,1.5962,0.0,0.0,0.0,0.0,0.0,0.0,0.0,0.0,0.0,0.0,0.0,0.0,0.0,0.0,0.0,0.0,0.0,0.0,0.0,0.0,0.0,0.0,0.0,0.0,0.0,0.0,0.0,1.6841,0.0,0.0,0.0,0.0,0.0,0.0,0.0,0.0,0.0,0.0,0.0,0.0,0.0,0.0,1.8842,1.9257,1.8986,1.8746,0.0,0.0,1.8385,1.7713,1.7446,1.7071,0.0,0.0,0.0,0.0,0.0,0.0,0.0,0.0,0.0,0.0,0.0,0.0,0.0,0.0,0.0,0.0,0.0,0.0,0.0,0.0,0.0,0.0,0.0,0.0,0.0,0.0,0.0,0.0,0.0,0.0,0.0,0.0,0.0,0.0,0.0,0.0,0.0,0.0,0.0,0.0,0.0,0.0,0.0,0.0,0.0,0.0,0.0,0.0,0.0,0.0,0.0,0.0,0.0,0.0,0.0,1.7261,1.8184,1.8484,1.8121,1.7942,1.7942,1.8164,1.7372,1.6722,0.0,0.0,0.0,0.0,0.0,0.0,0.0,0.0,0.0,0.0,0.0,0.0,0.0,0.0,0.0,0.0,0.0,0.0,0.0,0.0,0.0,0.0,0.0,0.0,0.0,0.0,0.0,0.0,0.0,0.0,0.0,0.0,0.0,0.0,0.0,0.0,0.0,0.0,0.0,0.0,0.0,2.0962,2.0684,2.0375,2.0022,0.0,0.0,1.933,1.8788,1.8672,1.836,1.7451,0.0,0.0,0.0,0.0,0.0,0.0,0.0,0.0,0.0,0.0,0.0,0.0,0.0,0.0,0.0,0.0,0.0,0.0,0.0,0.0,0.0,0.0,0.0,0.0,0.0,0.0,0.0,0.0,0.0,0.0,0.0,0.0,0.0,0.0,0.0,0.0,0.0,0.0,0.0,0.0,0.0,0.0,0.0,0.0,0.0,0.0,0.0,0.0,0.0,0.0,0.0,0.0,0.0,1.7807,1.7591,1.8523,1.8839,1.8501,1.8404,1.8661,1.9256,1.8467,1.7968,0.0,0.0,0.0,0.0,0.0,0.0,0.0,0.0,0.0,0.0,0.0,0.0,0.0,0.0,0.0,0.0,0.0,0.0,0.0,0.0,0.0,0.0,0.0,0.0,0.0,0.0,0.0,0.0,1.9725,2.0074,2.0686,0.0,0.0,0.0,0.0,0.0,0.0,0.0,0.0,0.0,0.0,2.1634,2.177,2.1655,0.0,0.0,2.0664,2.0447,1.9828,1.9554,1.9296,1.8924,1.88,0.0,0.0,0.0,0.0,0.0,0.0,0.0,0.0,0.0,0.0,0.0,0.0,0.0,0.0,0.0,0.0,0.0,0.0,0.0,0.0,0.0,0.0,0.0,0.0,0.0,0.0,0.0,0.0,0.0,0.0,0.0,0.0,0.0,0.0,0.0,0.0,0.0,0.0,0.0,0.0,0.0,0.0,0.0,0.0,0.0,0.0,0.0,0.0,0.0,0.0,0.0,0.0,1.8918,1.8525,1.9513,1.9805,1.9268,1.934,1.9537,1.9908,1.9375,1.899,0.0,0.0,0.0,0.0,0.0,0.0,0.0,0.0,0.0,0.0,0.0,0.0,0.0,0.0,0.0,0.0,0.0,0.0,0.0,0.0,0.0,0.0,0.0,0.0,0.0,0.0,0.0,0.0,2.0643,2.1062,2.1888,0.0,0.0,0.0,0.0,0.0,0.0,0.0,0.0,0.0,0.0,2.282,2.3114,2.2979,2.2585,2.1952,2.1641,2.1293,2.0673,2.0326,2.0073,1.9973,0.0,0.0,0.0,0.0,0.0,0.0,0.0,0.0,0.0,0.0,0.0,0.0,0.0,0.0,0.0,0.0,0.0,0.0,0.0,0.0,0.0,0.0,0.0,0.0,0.0,0.0,0.0,0.0,0.0,0.0,1.6994,0.0,0.0,0.0,0.0,0.0,0.0,0.0,0.0,0.0,0.0,0.0,0.0,0.0,0.0,0.0,0.0,0.0,0.0,0.0,0.0,0.0,0.0,2.0324,2.0334,2.1454,2.1631,2.0778,2.1012,2.0772,2.0128,2.0073,1.9741,1.9085,0.0,0.0,0.0,0.0,0.0,0.0,0.0,0.0,0.0,0.0,0.0,0.0,0.0,0.0,0.0,0.0,0.0,0.0,0.0,0.0,0.0,0.0,0.0,0.0,0.0,0.0,2.1572,2.1941,2.2328,0.0,0.0,0.0,0.0,0.0,0.0,0.0,0.0,0.0,0.0,2.4986,2.484,2.4818,2.4241,2.3617,2.3149,2.2482,2.1872,2.141,2.1116,2.0795,0.0,0.0,0.0,0.0,0.0,0.0,0.0,0.0,0.0,0.0,0.0,0.0,0.0,0.0,0.0,0.0,0.0,0.0,0.0,0.0,0.0,0.0,0.0,0.0,0.0,0.0,0.0,2.121,2.0255,0.0,0.0,0.0,0.0,0.0,0.0,0.0,0.0,0.0,0.0,0.0,2.2675,2.3226,0.0,0.0,0.0,0.0,0.0,0.0,0.0,0.0,0.0,0.0,0.0,0.0,2.085,2.0901,2.1876,2.194,2.1044,2.1083,2.0868,2.0309,2.0025,1.9483,1.8673,0.0,0.0,0.0,0.0,0.0,0.0,0.0,0.0,0.0,0.0,0.0,0.0,0.0,0.0,0.0,0.0,0.0,0.0,0.0,0.0,0.0,0.0,0.0,0.0,0.0,2.2905,0.0,0.0,0.0,0.0,0.0,0.0,0.0,0.0,0.0,0.0,0.0,2.6703,2.702,2.6741,2.6381,2.6032,2.5527,2.5083,0.0,0.0,0.0,0.0,0.0,0.0,0.0,0.0,0.0,0.0,0.0,0.0,0.0,0.0,2.1142,2.0322,2.0009,1.954,1.8594,0.0,0.0,0.0,0.0,0.0,0.0,0.0,0.0,0.0,0.0,0.0,0.0,0.0,0.0,2.3534,0.0,2.2266,0.0,0.0,0.0,0.0,0.0,0.0,0.0,0.0,2.3875,2.4599,2.5159,2.5745,2.6068,0.0,2.5914,2.4925,0.0,0.0,0.0,0.0,0.0,0.0,0.0,0.0,2.1343,2.124,2.2063,2.1973,2.0938,2.1186,2.087,1.9996,1.971,1.9291,1.8776,1.885,1.9104,0.0,0.0,0.0,0.0,0.0,0.0,0.0,0.0,0.0,0.0,0.0,0.0,0.0,0.0,0.0,0.0,0.0,0.0,0.0,0.0,0.0,0.0,0.0,2.441,0.0,0.0,0.0,0.0,0.0,0.0,0.0,0.0,0.0,2.7383,2.7439,2.76,2.7686,2.7459,2.7137,2.6779,0.0,0.0,0.0,0.0,0.0,0.0,0.0,2.5166,2.5043,2.471,2.4259,2.3605,2.317,2.276,2.2401,0.0,0.0,2.1861,2.163,2.1227,2.0246,1.9809,1.911,1.776,1.7294,1.6818,0.0,0.0,0.0,0.0,0.0,0.0,0.0,0.0,2.57,2.5477,0.0,2.4893,0.0,0.0,0.0,0.0,0.0,0.0,0.0,0.0,2.7621,2.8165,2.7796,2.8228,2.8442,2.8426,2.7711,2.7453,2.7548,2.5233,0.0,0.0,0.0,0.0,0.0,0.0,2.1918,2.1481,2.215,2.1877,2.0581,2.1327,2.0959,1.9302,1.9218,1.9284,1.9525,2.0587,2.1185,2.1151,2.1701,0.0,0.0,0.0,0.0,0.0,0.0,0.0,0.0,0.0,0.0,0.0,0.0,0.0,0.0,0.0,0.0,0.0,0.0,0.0,0.0,2.5495,0.0,0.0,0.0,0.0,0.0,0.0,0.0,0.0,0.0,0.0,2.7719,2.7775,2.7872,2.737,0.0,0.0,0.0,0.0,2.7185,2.7219,2.7121,2.6845,2.6382,2.6411,2.6091,2.491,0.0,0.0,2.3773,2.3808,2.3639,2.2557,2.2695,2.2914,2.2859,2.2511,2.2227,2.2181,2.1478,2.0669,1.9496,1.8785,1.8178,2.8114,0.0,0.0,0.0,0.0,2.688,2.7524,2.8743,2.896,2.8446,2.7508,2.7265,0.0,0.0,0.0,0.0,0.0,0.0,2.6392,2.7301,2.7861,2.8551,2.9313,2.9488,2.9884,3.0431,3.0088,2.9667,2.9133,2.8356,2.6496,2.3634,0.0,0.0,0.0,0.0,2.2781,2.2158,2.2499,2.2469,2.1976,2.1722,2.1305,2.0743,2.0741,2.0833,2.0968,2.1707,2.2142,2.2242,2.2827,0.0,0.0,0.0,0.0,0.0,0.0,0.0,0.0,0.0,0.0,0.0,0.0,0.0,0.0,0.0,0.0,0.0,0.0,0.0,2.6564,2.7378,2.8109,0.0,0.0,0.0,0.0,0.0,0.0,0.0,0.0,0.0,2.9585,2.9509,2.9371,0.0,0.0,2.8052,2.7714,2.74,2.7311,2.7667,0.0,0.0,0.0,2.7674,2.748,2.743,2.6932,2.6282,2.553,2.5069,2.4461,2.3521,2.3487,2.3353,2.2666,2.2409,2.2208,2.1888,2.1255,2.0592,2.0217,1.9592,1.8789,2.9983,2.835,2.8014,2.835,2.9021,2.8805,2.9415,3.0574,3.0721,3.0401,2.9757,2.9585,2.8504,2.6796,2.6265,0.0,0.0,0.0,2.8075,2.8888,2.9012,2.9374,2.991,2.991,3.0275,3.0929,3.0472,3.0225,3.0216,2.9858,2.8485,2.625,0.0,0.0,2.4047,2.4251,2.4175,2.3765,2.3641,2.3431,2.3161,2.2546,2.2161,2.2057,2.1911,2.1891,2.2002,2.2843,2.351,2.383,2.4479,2.4705,0.0,0.0,0.0,0.0,0.0,0.0,0.0,0.0,0.0,0.0,0.0,2.5795,2.5659,0.0,0.0,0.0,2.7907,2.8456,2.9158,2.9746,0.0,0.0,0.0,0.0,0.0,0.0,0.0,3.1859,3.1912,3.1666,3.1072,3.074,3.0375,2.9757,2.9237,2.8807,2.8546,0.0,2.783,2.8105,2.8327,2.849,2.8566,2.8496,2.8407,2.8314,2.7599,2.6822,2.6293,2.5788,2.5274,2.4553,2.4296,2.4125,2.3574,2.3018,2.2381,2.1741,2.1013,2.0493,2.0278,1.9769,1.9134,3.1022,3.0959,3.0357,3.0411,3.0921,3.0424,3.065,3.1296,3.1347,3.1447,3.1609,3.1633,3.0762,2.9213,2.7921,0.0,0.0,2.9654,2.9957,3.0623,3.0659,3.033,2.9837,2.9824,3.0011,3.0415,2.9632,2.9854,3.0923,3.0228,2.9593,2.9138,2.8345,2.7645,2.6975,2.6237,2.5852,2.5803,2.5027,2.4449,2.407,2.3732,2.3435,2.325,2.2876,2.2706,2.2744,2.3997,2.4982,2.5599,2.6335,2.6758,2.668,0.0,0.0,0.0,0.0,0.0,0.0,0.0,0.0,0.0,0.0,0.0,0.0,0.0,0.0,0.0,2.951,0.0,3.2141,3.2246,0.0,0.0,0.0,3.2246,3.2304,3.2725,3.3061,3.3101,0.0,0.0,3.2177,0.0,3.1071,3.0507,2.9871,2.9445,2.938,2.8922,2.855,2.8495,2.8919,2.9023,2.8582,2.885,2.8848,2.8127,2.7574,2.7156,2.6588,2.6367,2.6077,2.5334,2.5167,2.5071,2.4998,2.3907,2.2814,2.1779,2.1001,2.0398,2.0058,1.9644,1.9301,3.1037,3.1355,3.0298,3.0299,3.0998,3.1191,3.1278,3.1347,3.1619,3.178,3.1853,3.2013,3.183,3.1397,3.0485,3.0268,3.0654,3.0011,2.9835,3.0024,3.0164,3.0153,3.0019,3.0019,3.0306,3.0797,3.0497,3.0605,3.1185,3.0998,3.0782,3.0502,3.0339,2.9139,2.7062,2.6513,2.6194,2.6045,2.4838,2.4418,2.4755,2.5261,2.5138,2.4317,2.424,2.4045,2.3772,2.489,2.5591,2.5756,2.6746,2.7131,2.6719,2.6102,0.0,0.0,0.0,0.0,0.0,0.0,0.0,0.0,0.0,2.896,2.7991,0.0,3.0707,0.0,3.1243,3.201,3.2803,3.2477,0.0,0.0,3.2806,3.2535,3.3379,3.2847,3.2599,3.3047,3.2707,3.2336,3.2189,3.2067,3.19,3.174,3.0797,2.9947,2.9445,2.9302,2.9,2.8642,2.8671,2.8655,2.8546,2.8607,2.8627,2.8375,2.8271,2.8127,2.7966,2.7596,2.7088,2.6285,2.574,2.5249,2.4599,2.4028,2.3304,2.2201,2.1244,2.0577,2.0464,1.9965,1.9518,3.0743,3.0756,3.0174,3.0126,3.0471,3.0701,3.081,3.0783,3.1012,3.1133,3.1267,3.136,3.1395,3.1355,3.0937,3.0732,3.0705,3.0277,2.992,2.9678,2.9767,2.97,2.9443,2.9443,2.9686,3.0175,3.036,3.0646,3.1023,3.1302,3.136,3.1286,3.1261,3.0511,2.9086,2.815,2.7637,2.7498,2.6283,2.5802,2.6106,2.6545,2.6291,2.5239,2.5452,2.5266,2.453,2.5602,2.6086,2.5832,2.6889,2.7413,2.7197,2.6946,2.6863,0.0,0.0,0.0,0.0,0.0,0.0,0.0,0.0,0.0,0.0,0.0,3.1694,0.0,3.2259,0.0,3.3061,3.2996,3.3189,3.384,3.3132,3.287,3.3485,3.2738,3.2341,3.2667,3.2409,3.2205,3.2205,3.2205,3.2205,3.2205,3.1606,3.091,3.033,2.9986,2.9678,2.9341,2.9079,2.8816,2.855,2.851,2.851,2.851,2.851,2.8438,2.817,2.7882,2.7463,2.6776,2.6379,2.6027,2.5504,2.4786,2.4117,2.3453,2.2446,2.142,2.0482,1.9984,1.9754,3.0294,2.9894,2.9906,2.9845,2.9739,2.9693,2.9816,3.0089,3.0123,3.0254,3.0405,3.0405,3.0405,3.0405,3.0337,3.0296,3.0296,3.0201,2.9876,2.9407,2.9393,2.9089,2.86,2.8587,2.8801,2.9262,2.9773,3.0282,3.0739,3.1273,3.1529,3.1596,3.1609,3.1609,3.1519,3.0194,2.9358,2.9109,2.808,2.7536,2.7503,2.7503,2.6994,2.5989,2.6412,2.6209,2.5201,2.624,2.662,2.6112,2.7177,2.788,2.8047,2.81,2.8452,0.0,2.8934,0.0,0.0,0.0,0.0,0.0,0.0,0.0,0.0,3.2019,3.2372,3.2341,3.2857,3.321,3.321,3.358,3.3799,3.3786,3.3295,3.2979,3.2952,3.2517,3.2205,3.2205,3.2205,3.2205,3.2205,3.2205,3.2205,3.2169,3.2132,3.1863,3.1394,3.0771,3.0393,3.033,2.9883,2.938,2.8949,2.8715,2.8603,2.8548,2.8427,2.8189,2.7693,2.7498,2.7294,2.6885,2.6656,2.6596,2.6693,2.5683,2.4934,2.4654,2.3754,2.2505,2.0809,2.0225,2.0059,2.9937,3.0193,2.9267,2.9145,2.9504,2.9031,2.9315,3.0102,3.0288,3.037,3.0405,3.0405,3.0405,3.0364,2.9876,2.9659,2.9665,2.9157,2.8872,2.875,2.8763,2.8709,2.8587,2.8587,2.8899,2.9435,2.9571,3.0078,3.0931,3.1052,3.1288,3.1596,3.1609,3.1609,3.1569,0.0,0.0,0.0,2.7861,2.7656,2.749,2.7503,2.721,2.6543,2.6654,0.0,2.5746,2.6914,2.7532,2.7466,2.8716,0.0,0.0,0.0,0.0,0.0,0.0,0.0,0.0,0.0,0.0,0.0,3.2027,3.2346,3.2092,3.2983,3.3417,3.3006,3.343,3.3745,3.3745,3.3444,3.3264,3.3237,3.2735,3.2345,3.2381,3.2273,3.2205,3.2205,3.2205,3.2205,3.2241,3.2205,3.2205,3.2241,3.2205,3.2132,3.2023,3.1468,3.0846,3.0393,3.0203,3.0088,2.9973,2.9505,2.9025,2.8685,2.8137,2.7703,2.7205,2.6707,2.643,2.625,2.5913,2.5648,2.5636,2.5373,2.5003,2.4378,2.4068,2.339,2.1794,2.1308,2.1011,2.9529,0.0,2.8858,2.8763,0.0,2.8755,2.8893,2.9349,2.9476,2.9523,2.9509,2.9509,2.9523,2.9496,2.9184,2.9067,2.9054,2.8736,2.8587,2.8587,2.8587,2.8587,2.8587,2.8587,2.8736,2.9081,2.938,2.9923,3.0699,3.0975,3.1384,3.189,3.189,3.189,3.1863,3.1285,3.0145,2.8405,2.8392,2.8325,2.8237,2.8136,2.7958,2.7729,0.0,0.0,0.0,0.0,0.0,0.0,0.0,0.0,0.0,0.0,0.0,3.1694,3.2489,3.262,3.197,3.2805,3.3202,3.2833,3.3959,3.4212,3.3125,3.3826,3.4014,3.3196,3.3349,3.339,3.3091,3.2793,3.2667,3.2653,3.2395,3.2241,3.2408,3.2431,3.2516,3.2731,3.2717,3.2717,3.2767,3.2731,3.2753,3.2717,3.2753,3.2731,3.2682,3.2155,3.1468,3.0846,3.0733,3.0517,2.9958,2.964,2.9196,2.8672,2.8308,2.7789,2.7017,2.6688,2.6335,2.5841,2.548,2.5312,2.5312,2.5312,2.5158,2.4814,2.4707,2.4337,2.3158,2.2574,2.2134,2.9048,2.86,2.8587,2.8587,2.8587,2.8587,2.8587,2.8587,0.0,0.0,0.0,2.8587,2.8587,2.8587,2.8587,2.8587,2.8587,2.8587,2.8587,2.8587,2.8587,2.8587,2.8587,2.8587,2.8587,2.8627,2.9197,2.9794,3.0418,3.1015,3.1585,3.2164,3.2205,3.2205,3.2178,3.1694,3.0767,2.9455,2.926,2.9173,2.9139,2.9016,2.89,2.8913,2.9411,2.9459,2.9105,2.9845,3.0111,2.9788,3.0337,3.1014,3.1724,3.2357,3.3157,3.4187,3.4533,3.4581,3.4346,3.4547,3.4716,3.482,3.5674,3.5675,3.4413,3.4753,3.4571,3.3427,3.3317,3.3111,3.2643,3.2624,3.2624,3.2624,3.2538,3.2646,3.2903,3.2846,3.2952,3.3234,3.3269,3.3304,3.3269,3.3269,3.3304,3.3269,3.3234,3.3304,3.3248,3.2767,3.2178,3.1626,3.1396,3.095,3.0056,2.952,2.9192,2.8656,2.844,2.7997,2.7218,2.6939,2.6517,2.5715,2.5453,2.5418,2.5347,2.5312,2.5312,2.5312,2.5276,2.5087,2.4456,2.3818,2.3316,2.8668,2.8587,2.8587,2.8587,2.8587,2.8587,2.8587,2.8587,2.8587,2.8587,2.8587,2.8587,2.8587,2.8587,2.8587,2.8587,2.8587,2.8587,2.8587,0.0,2.8587,2.8587,2.8587,2.8587,2.8587,2.8641,2.9197,2.9794,3.0418,3.1002,3.1599,3.2151,3.2205,3.2205,3.2205,3.2137,3.1721,3.0972,3.0306,2.9899,2.976,2.9739,2.9726,2.9726,2.9854,3.0104,3.0567,3.1377,3.2064,3.2582,3.3288,3.3734,3.3869,3.4523,3.4758,3.4399,3.5464,3.564,3.4447,3.5464,3.6396,3.682,3.6465,3.6092,3.5913,3.5964,3.5453,3.4261,3.4097,3.4122,3.4007,3.4109,3.4158,3.4177,3.3939,3.3754,3.3822,3.3485,3.3304,3.3374,3.3304,3.3339,3.3374,3.3339,3.3374,3.3339,3.3409,3.3339,3.3339,3.3213,3.2952,3.2514,3.2036,3.1558,3.0858,3.011,2.9415,2.8778,2.8302,2.7884,2.7246,2.7152,2.6862,2.6198,2.6117,2.5908,2.5488,2.5312,2.5312,2.5347,2.5312,2.5194,2.5052,2.4898,2.4492,2.8587,2.8587,2.8587,2.8587,2.8587,2.8587,2.8587,2.8587,2.8587,2.8587,2.8587,2.8587,2.8587,2.8587,2.8587,2.8587,2.8587,2.8587,2.8587,2.8587,2.8587,2.8587,2.8587,2.8587,2.8587,2.8627,2.923,2.9808,3.0418,3.1002,3.1785,3.2698,3.3136,3.3346,3.3346,3.3346,3.3205,3.2909,3.1888,3.1309,3.1227,3.1487,3.1796,3.2117,3.2131,3.2254,3.258,3.3033,3.3427,3.3762,3.4105,3.448,3.4879,3.5222,3.5432,3.5497,3.6116,3.6211,3.5529,3.6116,3.6903,3.7843,3.73,3.7121,3.7583,3.6742,3.5662,3.4457,3.4413,3.4447,3.4447,3.4614,3.4714,3.4699,3.4533,3.4533,3.4714,3.4595,3.4423,3.4341,3.4322,3.4221,3.3942,3.3874,3.3874,3.3908,3.3874,3.3908,3.3874,3.3874,3.3525,3.2681,3.2236,3.1735,3.1011,3.0458,2.9835,2.9296,2.899,2.8573,2.8078,2.798,2.765,2.7082,2.6892,2.662,2.5965,2.5769,2.5664,2.5347,2.5312,2.5312,2.5312,2.5312,2.4874,2.8587,2.8587,2.8587,2.8587,2.8587,2.8587,2.8587,2.8587,2.8587,2.8587,2.8587,2.8587,2.8587,2.8587,2.8587,2.8587,2.8587,2.8587,2.8587,2.8587,2.8587,2.8587,2.8587,2.8587,2.8587,2.8687,2.923,2.9841,3.0419,3.115,3.2166,3.3366,3.4027,3.4312,3.4312,3.4312,3.4312,3.425,3.348,3.2981,3.2769,3.314,3.3604,3.4003,3.4047,3.4163,3.4298,3.4301,3.4394,3.4559,3.4427,3.4673,3.5368,3.5415,3.5744,3.6399,3.6492,3.6492,3.6492,3.6492,3.7076,3.8369,3.7909,3.7881,3.8546,3.7462,3.6119,3.5119,3.5124,3.519,3.5222,3.5305,3.5355,3.534,3.5257,3.537,3.5625,3.5593,3.5464,3.5382,3.535,3.5169,3.4854,3.4721,3.4687,3.4601,3.4481,3.438,3.438,3.438,3.3869,3.2947,3.2393,3.1785,3.0712,3.0343,3.0045,2.9659,2.9585,2.9306,2.8994,2.8962,2.8661,2.7966,2.7782,2.7451,2.6722,2.6483,2.6242,2.5756,2.5558,2.5488,2.5312,2.5312,2.5123,2.8619,2.8587,2.8619,2.8587,2.8587,2.8587,2.8587,2.8587,2.8587,2.8587,2.8587,2.8587,2.8619,2.8587,2.8587,2.8587,2.8587,2.8587,2.8587,2.8587,2.8587,2.8587,2.8587,2.8587,2.8587,2.8701,2.9263,2.986,3.0508,3.1638,3.2902,3.4071,3.4279,3.4331,3.4346,3.4346,3.4312,3.4312,3.482,3.4806,3.4158,3.4192,3.4221,3.4264,3.4264,3.4581,3.5177,3.472,3.4706,3.5263,3.4774,3.4803,3.54,3.5477,3.5784,3.6445,3.6492,3.6492,3.6492,3.6492,3.7076,3.8292,3.799,3.7993,3.866,3.8164,3.7513,3.6832,3.6693,3.6662,3.6785,3.6831,3.683,3.6769,3.66,3.6554,3.6476,3.6149,3.5849,3.5849,3.5849,3.5785,3.5672,3.564,3.5544,3.5136,3.482,3.4568,3.4568,3.4501,3.4249,3.3444,3.268,3.1706,3.0771,3.0038,2.9907,2.9721,2.9602,2.9602,2.9557,2.9526,2.9338,2.8853,2.8661,2.8371,2.7703,2.7338,2.7082,2.6414,2.6117,2.599,2.5488,2.5347,2.5312,2.923,2.8908,2.9058,2.8899,2.8619,2.8587,2.8587,2.8619,2.8994,2.8931,2.8702,2.9373,2.931,2.8619,2.8587,2.8587,2.8587,2.8587,2.8587,2.8587,2.8587,2.8587,2.8587,2.8587,2.8766,2.9162,2.9744,3.0345,3.1111,3.2304,3.3463,3.4424,3.4801,3.5249,3.5644,3.5625,3.5608,3.5608,3.5896,3.5911,3.564,3.5608,3.5593,3.5563,3.5232,3.5131,3.5353,3.482,3.4621,3.486,3.4643,3.4813,3.5445,3.5491,3.5799,3.6415,3.6492,3.6492,3.6492,3.6861,3.7354,3.8021,3.7838,3.7902,3.8356,3.7872,3.7447,3.7334,3.7165,3.7119,3.715,3.727,3.7359,3.7375,3.724,3.715,3.7165,3.6952,3.6769,3.6461,3.6383,3.6227,3.5976,3.5881,3.5817,3.5625,3.5382,3.5219,3.5252,3.507,3.4607,3.3997,3.3325,3.2436,3.1363,3.0902,3.0587,3.0303,3.0174,3.0174,3.0203,3.0189,3.0052,2.9605,2.9543,2.9184,2.8436,2.8241,2.8012,2.7297,2.6769,2.6598,2.6346,2.6047,2.5873,2.9732,2.932,2.9341,2.9075,2.8619,2.8766,2.8881,2.9022,2.958,2.958,2.9296,3.0178,3.0025,2.9216,2.9135,2.904,2.8881,2.904,2.9008,2.8881,2.8849,2.8944,2.9071,2.8912,2.9184,2.9744,3.0188,3.0876,3.1789,3.2931,3.3925,3.4668,3.5138,3.5625,3.6149,3.609,3.6029,3.5983,3.5968,3.5938,3.5907,3.5938,3.603,3.6168,3.5598,3.5244,3.5229,3.4552,3.4212,3.4197,3.4183,3.452,3.5183,3.5414,3.5829,3.6399,3.6492,3.6584,3.6753,3.7077,3.7557,3.8133,3.7902,3.7842,3.8231,3.7773,3.7377,3.7435,3.7359,3.73,3.73,3.7405,3.751,3.751,3.751,3.751,3.748,3.751,3.7331,3.6968,3.6907,3.6769,3.6445,3.6243,3.6149,3.6133,3.5991,3.5881,3.5849,3.5593,3.5203,3.4754,3.4389,3.3536,3.214,3.1739,3.154,3.1264,3.106,3.0826,3.0816,3.0742,3.0582,3.0113,3.0189,3.0005,2.9355,2.9103,2.8867,2.8111,2.7584,2.7317,2.7204,2.6913,2.6756,3.0009,2.9571,2.9257,2.899,2.8651,2.9219,2.9563,2.9777,3.0389,3.06,3.051,3.0689,3.0615,3.0404,3.0404,3.0072,2.9611,3.0056,2.9995,2.9518,2.9456,2.9797,3.0359,2.9797,2.9811,3.0419,3.0522,3.1248,3.2584,3.3416,3.42,3.4852,3.4883,3.4958,3.5083,3.4998,3.4802,3.4912,3.4824,3.4659,3.4643,3.4643,3.4921,3.5337,3.489,3.4536,3.4474,3.3829,3.3475,3.3475,3.3537,3.3844,3.4551,3.5198,3.586,3.6399,3.6522,3.6799,3.7277,3.7094,3.7622,3.9035,3.8138,3.7776,3.8764,3.8053,3.7512,3.751,3.748,3.7464,3.748,3.748,3.751,3.751,3.751,3.751,3.751,3.751,3.751,3.745,3.7375,3.7361,3.7345,3.6968,3.6708,3.6585,3.6243,3.6008,3.6039,3.5944,3.5835,3.5773,3.5557,3.5001,3.303,3.2677,3.263,3.2247,3.1842,3.1513,3.1264,3.1061,3.0814,3.0567,3.0522,3.0385,3.0142,2.9851,2.9526,2.8962,2.8357,2.8097,2.8097,2.7986,2.7822,3.1406,3.0999,3.0056,2.9794,2.9981,3.0179,3.0315,3.045,3.1057,3.1087,3.0896,3.1463,3.1551,3.1146,3.1551,3.1145,3.0224,3.0389,3.0359,3.0133,3.0133,3.0269,3.045,3.0224,3.048,3.1058,3.1218,3.1814,3.2736,3.3146,3.3654,3.4241,3.4298,3.4501,3.4901,3.4893,3.4794,3.4723,3.4635,3.4577,3.4428,3.4058,3.3921,3.4121,3.3921,3.3798,3.3783,3.3521,3.3398,3.3398,3.3858,3.4414,3.5091,3.5768,3.623,3.6507,3.6892,3.7309,3.7667,3.7916,3.8229,3.8669,3.8247,3.7867,3.8037,3.7765,3.751,3.751,3.751,3.751,3.751,3.751,3.751,3.751,3.751,3.751,3.751,3.751,3.751,3.751,3.751,3.751,3.748,3.7331,3.7225,3.7195,3.7029,3.6922,3.6861,3.6677,3.6414,3.6352,3.6102,3.5634,3.4986,3.4307,3.3962,3.3249,3.2769,3.2493,3.2238,3.1724,3.1432,3.1152,3.1007,3.067,3.0443,3.0172,2.9913,2.9744,2.917,2.898,2.904,2.8853,2.8648,3.2145,3.1819,3.0852,3.057,3.0763,3.0999,3.1115,3.1232,3.1849,3.1892,3.1664,3.2299,3.237,3.2064,3.2315,3.2048,3.1233,3.1131,3.1014,3.0837,3.0822,3.0925,3.1072,3.0911,3.1146,3.1737,3.1992,3.2413,3.2881,3.2989,3.332,3.381,3.3732,3.3952,3.4427,3.4379,3.4254,3.4213,3.4156,3.4043,3.3838,3.3409,3.3118,3.309,3.3075,3.3075,3.3075,3.329,3.3398,3.3506,3.4305,3.5136,3.5799,3.623,3.663,3.6924,3.7325,3.7915,3.8416,3.8635,3.8715,3.8905,3.8323,3.7865,3.7796,3.7636,3.7526,3.751,3.751,3.751,3.751,3.751,3.751,3.751,3.751,3.751,3.751,3.751,3.751,3.751,3.751,3.751,3.751,3.751,3.748,3.751,3.751,3.751,3.745,3.7225,3.6968,3.6953,3.6708,3.6523,3.6245,3.5937,3.5323,3.4649,3.395,3.3611,3.3229,3.2648,3.2144,3.1817,3.1449,3.1068,3.0714,3.043,3.0325,3.0249,3.0052,2.9822,2.9761,2.9637,2.9439,3.2018,3.2056,3.162,3.1275,3.1159,3.1677,3.1987,3.2182,3.2742,3.2908,3.2812,3.3043,3.2908,3.2843,3.2648,3.2566,3.2441,3.2287,3.2007,3.1537,3.1537,3.1794,3.2216,3.1766,3.1838,3.237,3.2703,3.2951,3.3069,3.3187,3.3314,3.3314,3.3377,3.3414,3.3356,3.3354,3.3222,3.3231,3.317,3.2956,3.2621,3.2714,3.2643,3.2502,3.2548,3.2595,3.2521,3.3136,3.3521,3.369,3.4813,3.5768,3.6307,3.6507,3.6862,3.7483,3.7747,3.8556,3.9557,3.892,3.8999,3.944,3.8494,3.778,3.8081,3.778,3.751,3.751,3.751,3.751,3.7553,3.7583,3.7553,3.751,3.751,3.751,3.751,3.751,3.751,3.751,3.751,3.751,3.751,3.751,3.751,3.751,3.751,3.751,3.751,3.7421,3.748,3.745,3.7285,3.7119,3.7285,3.7389,3.6753,3.6106,3.54,3.4864,3.4527,3.4027,3.3379,3.3004,3.2318,3.1901,3.1102,3.0836,3.0702,3.0642,3.0582,3.0462,3.0296,3.016,3.0195,3.2602,3.2846,3.2312,3.2228,3.241,3.2645,3.2753,3.278,3.3043,3.3112,3.3085,3.3005,3.2924,3.2912,3.2816,3.28,3.28,3.2746,3.2566,3.2302,3.2385,3.2511,3.2664,3.2539,3.2594,3.2866,3.2989,3.3096,3.3203,3.3282,3.3293,3.3293,3.3293,3.3293,3.3293,3.324,3.3203,3.3096,3.3058,3.2962,3.2816,3.2816,3.2734,3.2612,3.3027,3.3246,3.3121,3.3796,3.4352,3.4768,3.5691,3.6276,3.6492,3.6585,3.6755,3.7095,3.809,3.8559,3.878,3.8968,3.8968,3.892,3.8081,3.7654,3.7765,3.7652,3.7539,3.7539,3.751,3.7612,3.7956,3.8055,3.7915,3.7524,3.751,3.7553,3.7553,3.751,3.751,3.751,3.751,3.751,3.751,3.751,3.751,3.751,3.751,3.751,3.751,3.751,3.751,3.751,3.751,3.751,3.751,3.751,3.718,3.68,3.6337,3.5937,3.5631,3.5324,3.4714,3.3743,3.3139,3.2375,3.1616,3.1292,3.1131,3.0955,3.0866,3.0747,3.0642,3.0556,3.0455,3.3038,3.324,3.2904,3.292,3.315,3.3176,3.3176,3.3176,3.3192,3.3176,3.315,3.3069,3.3058,3.3016,3.3005,3.2978,3.2978,3.2978,3.2908,3.2784,3.2843,3.2912,3.2912,3.2912,3.2951,3.3069,3.3112,3.3176,3.3293,3.3293,3.3293,3.3293,3.3293,3.3293,3.3293,3.3309,3.3335,3.3491,3.3554,3.3599,3.3725,3.3744,3.3646,3.3553,3.3911,3.418,3.4239,3.4702,3.5089,3.5537,3.6184,3.66,3.6677,3.677,3.6924,3.7468,3.8325,3.9015,3.8811,3.9157,3.9125,3.8555,3.8052,3.7815,3.7815,3.7815,3.7857,3.8087,3.796,3.8014,3.849,3.8629,3.8479,3.8189,3.8173,3.803,3.7873,3.7596,3.7494,3.751,3.751,3.751,3.751,3.751,3.751,3.751,3.751,3.751,3.751,3.751,3.751,3.751,3.751,3.751,3.751,3.751,3.751,3.7315,3.7103,3.6842,3.6597,3.6381,3.5887,3.4083,3.3083,3.2108,3.1351,3.1519,3.1495,3.135,3.1188,3.1084,3.0952,3.0572,3.0337,3.3372,3.3356,3.3309,3.324,3.3266,3.3282,3.3282,3.3282,3.3309,3.3282,3.3266,3.3266,3.3282,3.3256,3.315,3.3096,3.3123,3.3112,3.3096,3.3043,3.3005,3.2951,3.2978,3.2978,3.3032,3.3139,3.3139,3.3176,3.3309,3.3293,3.3293,3.3293,3.3293,3.3356,3.3435,3.3388,3.3751,3.4261,3.4352,3.4585,3.5024,3.5087,3.5002,3.4813,3.4938,3.5163,3.5452,3.567,3.5718,3.5706,3.6414,3.6922,3.7014,3.7075,3.7583,3.8349,3.9014,3.9375,3.9501,3.9544,3.9275,3.8681,3.8483,3.8334,3.8351,3.8379,3.8518,3.8892,3.8618,3.8601,3.9082,3.9242,3.9216,3.9269,3.9125,3.881,3.8379,3.796,3.7831,3.7743,3.7612,3.7642,3.7743,3.7685,3.7612,3.7612,3.7583,3.751,3.751,3.751,3.751,3.751,3.751,3.751,3.751,3.751,3.751,3.748,3.7361,3.7285,3.718,3.7007,3.6693,3.4889,3.338,3.2267,3.167,3.2033,3.1931,3.1607,3.1516,3.1437,3.1059,3.0511,3.0131,3.4036,3.3988,3.3498,3.3293,3.3293,3.3293,3.3293,3.3293,3.3293,3.3293,3.3293,3.3293,3.3293,3.3309,3.3282,3.324,3.324,3.3256,3.3256,3.3256,3.3229,3.3203,3.3203,3.3176,3.3203,3.3229,3.3214,3.3266,3.3293,3.3293,3.3293,3.3293,3.334,3.3577,3.3941,3.402,3.4415,3.4999,3.511,3.5189,3.5366,3.5401,3.5282,3.5172,3.5598,3.5855,3.6002,3.6409,3.6567,3.646,3.7111,3.7517,3.765,3.81,3.8691,3.9345,3.9785,3.9985,4.003,4.0001,3.967,3.9093,3.8986,3.8974,3.8974,3.8974,3.9055,3.9162,3.9011,3.9172,3.9645,3.98,3.9969,4.0262,3.9782,3.9216,3.8984,3.8838,3.8745,3.8745,3.8689,3.8662,3.8579,3.8339,3.8128,3.8042,3.7844,3.7612,3.7714,3.77,3.7788,3.7583,3.7539,3.751,3.751,3.751,3.751,3.751,3.748,3.745,3.7389,3.728,3.6855,3.592,3.482,3.369,3.3165,3.3115,3.2633,3.2163,3.1692,3.1518,3.0688,3.0066,2.984,3.4288,3.4225,3.3577,3.3293,3.3293,3.3293,3.3293,3.3293,3.3293,3.3293,3.3293,3.3293,3.3293,3.3293,3.3293,3.3293,3.3293,3.3293,3.3293,3.3293,3.3309,3.3282,3.3293,3.3293,3.3293,3.3293,3.3293,3.3293,3.3293,3.3293,3.3293,3.3372,3.3577,3.3925,3.4241,3.4652,3.511,3.5695,3.5837,3.5947,3.6276,3.6279,3.6266,3.6256,3.6589,3.6674,3.6618,3.7125,3.7403,3.7401,3.7693,3.8051,3.8423,3.9089,3.9561,3.9803,4.026,4.047,3.9984,4.005,3.9891,3.9441,3.9391,3.9532,3.9532,3.9558,3.9558,3.991,3.9705,3.9842,4.022,4.0385,4.0549,4.071,4.0303,3.9808,3.9584,3.9295,3.9189,3.9189,3.9189,3.9189,3.9189,3.8876,3.8739,3.8645,3.8495,3.8327,3.8315,3.8217,3.8132,3.8075,3.7902,3.7886,3.7815,3.7772,3.7642,3.7612,3.7612,3.7612,3.7462,3.7338,3.6769,3.6203,3.5726,3.5193,3.4494,3.3924,3.3587,3.301,3.2265,3.1616,3.1054,3.0326,3.0046,3.4399,3.4352,3.3609,3.3293,3.3293,3.3293,3.3293,3.3293,3.3293,3.3293,3.3293,3.3293,3.3293,3.3293,3.3293,3.3293,3.3293,3.3293,3.3293,3.3293,3.3293,3.3293,3.3293,3.3293,3.3293,3.3293,3.3293,3.3293,3.3293,3.3293,3.3293,3.3435,3.3909,3.4347,3.4691,3.5253,3.595,3.6562,3.6844,3.7141,3.7537,3.7633,3.7601,3.7617,3.7652,3.7629,3.7629,3.7911,3.8226,3.8294,3.8282,3.8684,3.9282,3.997,4.0144,3.9914,4.0585,4.0658,3.9894,4.0191,4.0094,3.9675,3.9919,4.0078,4.0095,4.0095,4.0286,4.0638,4.0385,4.0385,4.0686,4.0847,4.0847,4.0871,4.0823,4.0597,4.017,3.9662,3.9391,3.9391,3.9401,3.9391,3.9365,3.9312,3.9286,3.9226,3.9028,3.881,3.8783,3.8745,3.8799,3.8854,3.8645,3.8407,3.8254,3.8071,3.7902,3.7772,3.7786,3.7727,3.7445,3.7148,3.6516,3.6042,3.6011,3.5663,3.5051,3.4628,3.436,3.3734,3.2879,3.2526,3.2147,3.1296,3.0778,3.5142,3.5047,3.383,3.3293,3.3293,3.3293,3.3293,3.3293,3.3293,3.3293,3.3293,3.3293,3.3293,3.3293,3.3293,3.3293,3.3293,3.3293,3.3293,3.3293,3.3293,3.3293,3.3309,3.3324,3.334,3.334,3.3309,3.3324,3.3367,3.353,3.3351,3.352,3.4335,3.4616,3.5328,3.638,3.7222,3.7826,3.8274,3.8488,3.8619,3.8717,3.8717,3.8717,3.8745,3.8772,3.8783,3.8909,3.9162,3.9489,3.9594,3.962,3.9901,4.0433,4.0846,4.1067,4.0981,4.1108,4.1235,4.0888,4.0705,4.0478,4.05,4.071,4.071,4.0662,4.0734,4.0871,4.0758,4.0752,4.0847,4.0894,4.0894,4.0894,4.0912,4.0864,4.071,4.059,4.0427,4.0451,4.0451,4.0517,4.0468,4.002,3.9893,3.9817,3.9584,3.9269,3.9269,3.9348,3.9428,3.9558,3.9242,3.8984,3.8876,3.8673,3.8383,3.823,3.8157,3.81,3.7822,3.7602,3.7167,3.6845,3.6579,3.6153,3.5758,3.5315,3.5019,3.4257,3.3577,3.3166,3.273,3.2033,3.1934,3.5189,3.4778,3.3719,3.3293,3.3293,3.3293,3.3293,3.3293,3.3293,3.3293,3.3293,3.3293,3.3293,3.3293,3.3293,3.3293,3.3293,3.3293,3.3293,3.3293,3.3293,3.3293,3.3403,3.3609,3.3767,3.3794,3.3767,3.4011,3.4479,3.4632,3.4929,3.5137,3.5677,3.6366,3.6724,3.7671,3.8319,3.8625,3.9001,3.9189,3.9189,3.9189,3.9189,3.9189,3.9189,3.9189,3.9152,3.9454,3.9697,3.9995,4.0245,4.041,4.0536,4.102,4.144,4.1378,4.1585,4.1326,4.1371,4.117,4.0864,4.0894,4.0894,4.0894,4.0894,4.0894,4.0894,4.0894,4.0894,4.0894,4.0894,4.0894,4.0894,4.0894,4.0894,4.0894,4.0894,4.0894,4.0894,4.0894,4.0823,4.0847,4.0734,4.05,4.0458,4.0353,4.0377,4.0087,4.0162,4.0212,4.0162,4.0112,3.9791,3.9584,3.9506,3.9295,3.8947,3.881,3.8728,3.8717,3.8562,3.8355,3.8124,3.7687,3.7221,3.7083,3.6703,3.62,3.5814,3.5379,3.4794,3.402,3.3598,3.3639,3.3702,3.4857,3.4225,3.3577,3.3293,3.3293,3.3293,3.3293,3.3293,3.3293,3.3293,3.3319,3.3361,3.3503,3.345,3.3565,3.3539,3.3565,3.3591,3.3704,3.3678,3.3954,3.4002,3.412,3.4552,3.4985,3.4856,3.4749,3.5246,3.5951,3.6352,3.6263,3.7027,3.7691,3.7701,3.8119,3.8864,3.9272,3.9322,3.9532,3.9627,3.9601,3.9601,3.9584,3.9627,3.961,3.961,3.9714,3.9944,4.017,4.017,4.0621,4.0847,4.105,4.1378,4.1612,4.0981,4.1412,4.1412,4.1119,4.0946,4.0894,4.0894,4.0894,4.0894,4.0894,4.0894,4.0894,4.0894,4.0894,4.0894,4.0894,4.0894,4.0894,4.0894,4.0894,4.0894,4.0894,4.0894,4.0894,4.0894,4.0894,4.0894,4.0894,4.0758,4.0847,4.0894,4.0894,4.0929,4.0929,4.0905,4.0738,4.0614,4.0303,4.0187,4.0137,4.002,3.9688,3.9401,3.9322,3.9216,3.9152,3.8854,3.8551,3.8246,3.7863,3.7748,3.7581,3.7179,3.6804,3.6524,3.5919,3.5094,3.5047,3.5347,3.5248,3.4415,3.4241,3.3577,3.3293,3.3293,3.3293,3.3293,3.3293,3.3293,3.3293,3.3372,3.3745,3.3924,3.4034,3.4415,3.4521,3.4407,3.4358,3.4456,3.4628,3.5013,3.5308,3.5496,3.606,3.6746,3.7065,3.6607,3.648,3.6907,3.6952,3.7344,3.7369,3.7935,3.8267,3.8655,3.9218,3.9893,3.9944,4.0212,4.0427,4.0444,4.0444,4.0444,4.0444,4.0402,4.0451,4.05,4.0638,4.0734,4.0776,4.0847,4.0871,4.0929,4.1084,4.105,4.0998,4.1067,4.1101,4.0929,4.0894,4.0894,4.0894,4.0894,4.0894,4.0894,4.0894,4.0894,4.0894,4.0894,4.0894,4.0894,4.0894,4.0894,4.0894,4.0894,4.0894,4.0894,4.0894,4.0894,4.0894,4.0894,4.0894,4.0894,4.0894,4.0894,4.0894,4.0894,4.1032,4.1153,4.1119,4.1019,4.0927,4.0799,4.0776,4.0734,4.0686,4.0476,4.0045,3.9868,3.9714,3.9558,3.9242,3.8963,3.8984,3.8756,3.8546,3.8337,3.8028,3.7649,3.7259,3.6685,3.6131,3.6278,3.6394,3.5923,3.4083,3.3751,3.3419,3.3293,3.3293,3.3293,3.3293,3.3293,3.3309,3.345,3.372,3.4,3.4275,3.4464,3.4666,3.4793,3.4849,3.4793,3.5024,3.5437,3.5818,3.624,3.6638,3.7319,3.7945,3.8346,3.8261,3.8227,3.8606,3.8648,3.8672,3.9112,3.9417,3.9553,3.9628,4.0173,4.0417,4.0549,4.0734,4.0894,4.0894,4.0894,4.0894,4.0894,4.0894,4.0894,4.0894,4.0894,4.0894,4.0871,4.0894,4.0894,4.0894,4.0894,4.0894,4.0894,4.0894,4.0894,4.0894,4.0894,4.0894,4.0894,4.0894,4.0894,4.0894,4.0894,4.0894,4.0894,4.0894,4.0894,4.0894,4.0894,4.0894,4.0894,4.0894,4.0894,4.0912,4.0912,4.0946,4.0981,4.1015,4.1015,4.0894,4.0894,4.0894,4.0894,4.0912,4.1119,4.1384,4.1522,4.1557,4.1609,4.1581,4.1375,4.1324,4.1162,4.1155,4.08,4.0434,4.0262,4.0212,4.002,4.0128,4.026,3.9935,3.9358,3.9049,3.8734,3.8374,3.8062,3.7893,3.7692,3.7535,3.7307,3.6897,3.3927,3.345,3.345,3.345,3.345,3.345,3.3477,3.3508,3.3808,3.4043,3.4226,3.4538,3.483,3.4944,3.5125,3.5278,3.5449,3.5552,3.5917,3.6551,3.6904,3.719,3.7668,3.8296,3.9008,3.9481,3.977,4.017,4.0008,4.0008,4.0407,4.0467,4.0795,4.0894,4.083,4.0724,4.0894,4.0894,4.0894,4.0894,4.0894,4.0894,4.0894,4.0894,4.0894,4.0894,4.0894,4.0894,4.0894,4.0894,4.0894,4.0894,4.0894,4.0894,4.0894,4.0894,4.0894,4.0894,4.0894,4.0894,4.0894,4.0894,4.0894,4.0894,4.0894,4.0894,4.0894,4.0894,4.0894,4.0894,4.0894,4.0894,4.0894,4.0894,4.0894,4.0912,4.0981,4.1067,4.1257,4.1274,4.1222,4.117,4.1119,4.0912,4.0912,4.1173,4.119,4.1583,4.1884,4.2268,4.239,4.2511,4.2438,4.2083,4.1864,4.1626,4.1614,4.1531,4.1091,4.0813,4.0877,4.0924,4.1035,4.1,4.0546,3.9978,3.9706,3.9489,3.9192,3.9063,3.9239,3.9067,3.8626,3.8432,3.8194,3.4081,3.4,3.4,3.4,3.4025,3.4,3.4016,3.4173,3.5111,3.5283,3.4976,3.5787,3.5946,3.5791,3.6017,3.6877,3.7477,3.7358,3.7404,3.8065,3.8619,3.8984,3.9437,4.0229,4.024,4.0412,4.0631,4.0782,4.071,4.0686,4.0758,4.0871,4.0894,4.0894,4.0894,4.0894,4.0894,4.0894,4.0894,4.0894,4.0894,4.0894,4.0894,4.0894,4.0894,4.0894,4.0894,4.0894,4.0894,4.0894,4.0894,4.0894,4.0894,4.0894,4.0894,4.0894,4.0894,4.0894,4.0894,4.0894,4.0894,4.0894,4.0894,4.0894,4.0894,4.0894,4.0894,4.0894,4.0918,4.0894,4.0918,4.0918,4.0894,4.0894,4.0894,4.0894,4.0946,4.1395,4.1585,4.1878,4.193,4.1619,4.1412,4.1136,4.0953,4.1248,4.1579,4.2042,4.2569,4.3093,4.318,4.3298,4.3357,4.3036,4.2655,4.2382,4.2283,4.2253,4.1795,4.143,4.1638,4.1743,4.1453,4.1319,4.0968,4.0807,4.0664,4.0432,4.0104,3.9944,3.9944,3.9724,3.9415,3.9351,3.9262,3.4941,3.4681,3.4625,3.4601,3.4601,3.4537,3.4759,3.5227,3.572,3.6204,3.6434,3.6544,3.6667,3.6794,3.7327,3.7917,3.8439,3.8289,3.8525,3.9094,3.9595,3.9939,4.0313,4.0705,4.0894,4.0894,4.0894,4.0847,4.0894,4.0894,4.0894,4.0894,4.0894,4.0894,4.0894,4.0894,4.0894,4.0894,4.0894,4.0894,4.0894,4.0894,4.0894,4.0894,4.0894,4.0894,4.0894,4.0894,4.0894,4.0894,4.0894,4.0894,4.0894,4.0894,4.0894,4.0894,4.0894,4.0894,4.0894,4.0894,4.0894,4.0894,4.0894,4.0894,4.0894,4.0918,4.0918,4.0894,4.1117,4.1157,4.1059,4.1134,4.1065,4.1018,4.1018,4.1081,4.1196,4.1619,4.1974,4.2327,4.2686,4.2653,4.261,4.2606,4.2426,4.2272,4.2697,4.3169,4.3795,4.4458,4.4369,4.4077,4.4126,4.4052,4.3634,4.3296,4.3208,4.3057,4.2509,4.23,4.2562,4.2562,4.2248,4.2247,4.2254,4.2032,4.1689,4.1207,4.0724,4.0625,4.0583,4.0414,4.0268,4.0061,3.991,3.5938,3.5554,3.5278,3.5157,3.5191,3.5218,3.5611,3.6169,3.6788,3.7371,3.7674,3.7501,3.7529,3.7942,3.8422,3.8755,3.9221,3.8957,3.9336,3.9767,4.006,4.0336,4.067,4.0894,4.0894,4.0894,4.0894,4.0894,4.0894,4.0894,4.0894,4.0894,4.0894,4.0894,4.0894,4.0894,4.0894,4.0894,4.0894,4.0894,4.0894,4.0894,4.0894,4.0894,4.0894,4.0894,4.0894,4.0894,4.0894,4.0894,4.0894,4.0894,4.0894,4.0894,4.0894,4.0894,4.0894,4.0894,4.0894,4.0894,4.0894,4.0894,4.0894,4.0894,4.0918,4.0942,4.1041,4.1094,4.1468,4.1468,4.1396,4.1534,4.1534,4.144,4.1328,4.1359,4.1615,4.2399,4.3208,4.3851,4.4243,4.4428,4.4412,4.4401,4.4106,4.3569,4.3778,4.4283,4.489,4.5561,4.5229,4.4795,4.4988,4.4914,4.4488,4.4202,4.4114,4.3898,4.3331,4.3098,4.3325,4.3325,4.3121,4.3208,4.3342,4.2812,4.2207,4.1759,4.134,4.1192,4.1105,4.1232,4.114,4.0901,4.068,3.6911,3.6814,3.5998,3.5654,3.5722,3.6321,3.658,3.6931,3.859,3.89,3.8585,3.8527,3.8871,3.9215,3.9077,3.9514,4.0618,3.9939,4.0152,4.0532,4.0825,4.0774,4.0894,4.0894,4.0894,4.0894,4.0894,4.0894,4.0894,4.0894,4.0894,4.0894,4.0894,4.0894,4.0894,4.0894,4.0894,4.0894,4.0894,4.0894,4.0894,4.0894,4.0894,4.0894,4.0894,4.0894,4.0894,4.0894,4.0894,4.0894,4.0894,4.0894,4.0894,4.0894,4.0894,4.0894,4.0894,4.0894,4.0894,4.0894,4.0894,4.0894,4.0942,4.0971,4.1018,4.1305,4.1423,4.1512,4.1885,4.2053,4.2053,4.2115,4.2092,4.1938,4.1933,4.2294,4.2736,4.3674,4.4489,4.5347,4.5693,4.571,4.5845,4.5767,4.5386,4.4836,4.4988,4.5476,4.5717,4.6169,4.5809,4.5556,4.5842,4.5725,4.5257,4.5064,4.5016,4.477,4.4337,4.4079,4.4015,4.3968,4.3916,4.3951,4.3974,4.3337,4.281,4.2519,4.2181,4.1753,4.16,4.1608,4.1703,4.1603,4.1487,3.6968,3.6831,3.6485,3.6301,3.6353,3.6938,3.7454,3.8025,3.9164,3.956,3.9301,3.9773,3.9871,3.9807,4.0101,4.029,4.0843,4.0636,4.0705,4.0791,4.0894,4.0894,4.0894,4.0894,4.0894,4.0894,4.0894,4.0894,4.0894,4.0894,4.0894,4.0894,4.0894,4.0894,4.0894,4.0894,4.0894,4.0894,4.0894,4.0894,4.0894,4.0894,4.0894,4.0894,4.0894,4.0894,4.0894,4.0894,4.0894,4.0918,4.0918,4.0942,4.0965,4.0965,4.0989,4.0989,4.0989,4.0989,4.0965,4.0942,4.0894,4.0965,4.1111,4.1283,4.1305,4.167,4.1867,4.2074,4.2358,4.2557,4.2239,4.2418,4.2573,4.2425,4.2632,4.3107,4.3793,4.4677,4.5434,4.6123,4.648,4.6645,4.6829,4.6998,4.6579,4.6154,4.64,4.6606,4.6725,4.6822,4.6486,4.6275,4.6495,4.6717,4.6282,4.6093,4.5916,4.5646,4.5323,4.5217,4.5058,4.4711,4.4694,4.4729,4.4724,4.4325,4.3903,4.3435,4.2903,4.2271,4.1955,4.1828,4.1981,4.2239,4.2316,3.6911,3.6788,3.6725,3.6664,3.6745,3.7491,3.8116,3.872,3.9646,4.006,4.0077,4.0636,4.0595,4.0359,4.0567,4.0843,4.0894,4.0843,4.0877,4.0894,4.0894,4.0894,4.0894,4.0894,4.0894,4.0894,4.0894,4.0894,4.0894,4.0894,4.0894,4.0894,4.0894,4.0894,4.0894,4.0894,4.0894,4.0894,4.0894,4.0894,4.0894,4.1041,4.1111,4.1163,4.126,4.1373,4.1396,4.1396,4.126,4.1255,4.1232,4.1209,4.1186,4.1186,4.1255,4.1277,4.1277,4.1277,4.1277,4.114,4.1163,4.1396,4.1556,4.1696,4.1828,4.216,4.2422,4.248,4.2826,4.2976,4.2614,4.2902,4.3013,4.2936,4.3514,4.4004,4.4691,4.5508,4.6176,4.6845,4.7163,4.7512,4.7661,4.7802,4.7428,4.7021,4.6982,4.7115,4.7227,4.7313,4.732,4.7165,4.7154,4.7338,4.7428,4.7038,4.6681,4.6691,4.6445,4.6404,4.6201,4.5852,4.5781,4.6064,4.5952,4.5499,4.487,4.4177,4.3399,4.2622,4.2535,4.2587,4.2798,4.3109,4.3266,3.6911,3.6791,3.6742,3.6658,3.6745,3.8005,3.856,3.8784,4.0135,4.0774,4.0739,4.0894,4.0894,4.0791,4.086,4.0894,4.0894,4.0894,4.0894,4.0894,4.0894,4.0894,4.0894,4.0894,4.0894,4.0894,4.0965,4.0995,4.0965,4.1012,4.0989,4.0942,4.0942,4.0894,4.0894,4.0894,4.0894,4.0894,4.0894,4.0894,4.1041,4.126,4.1396,4.1561,4.1778,4.1906,4.1924,4.1906,4.1774,4.16,4.1799,4.1756,4.1539,4.1842,4.199,4.2029,4.2053,4.2095,4.2133,4.1735,4.1756,4.1969,4.2074,4.2221,4.2364,4.2676,4.2977,4.2977,4.3395,4.359,4.3518,4.3556,4.3613,4.3888,4.4492,4.5076,4.5769,4.6388,4.7079,4.7503,4.7915,4.8307,4.8476,4.8514,4.8193,4.7884,4.7677,4.7653,4.7756,4.7858,4.7939,4.7858,4.7779,4.78,4.7879,4.7653,4.747,4.753,4.7409,4.7162,4.714,4.6974,4.7057,4.7367,4.692,4.6257,4.5534,4.4842,4.4438,4.41,4.3634,4.3605,4.3781,4.3957,4.4115,3.6826,3.6777,3.7144,3.7247,3.7314,3.8185,3.8594,3.887,4.0135,4.0894,4.0894,4.0894,4.0894,4.0894,4.0894,4.0894,4.0894,4.0894,4.0894,4.0894,4.0894,4.0894,4.0894,4.0894,4.0894,4.0989,4.1111,4.1283,4.1288,4.1305,4.1305,4.1277,4.1134,4.0894,4.0894,4.0894,4.0894,4.0894,4.0918,4.0995,4.1265,4.1468,4.1692,4.1952,4.2157,4.2279,4.2318,4.232,4.2177,4.2011,4.2239,4.2139,4.2015,4.2262,4.2302,4.2279,4.2279,4.2402,4.2578,4.2521,4.2406,4.2442,4.2559,4.2733,4.2828,4.3249,4.3409,4.3574,4.3991,4.4208,4.4323,4.4856,4.5077,4.5315,4.581,4.6324,4.6929,4.746,4.8028,4.818,4.8495,4.8587,4.8714,4.8767,4.8532,4.8477,4.827,4.8308,4.8402,4.8495,4.8569,4.8439,4.8364,4.8346,4.827,4.8038,4.7959,4.7999,4.7779,4.7491,4.7551,4.7756,4.7715,4.7679,4.7349,4.6942,4.6442,4.6047,4.6064,4.5803,4.5126,4.4624,4.4624,4.4799,4.501,3.6748,3.6789,3.7359,3.7564,3.7668,3.8543,3.9112,3.9531,4.0463,4.0894,4.0894,4.0894,4.0894,4.0894,4.0894,4.0894,4.0894,4.0894,4.0894,4.0894,4.0894,4.0894,4.0894,4.0942,4.1018,4.1117,4.1351,4.1534,4.1735,4.1735,4.1756,4.1687,4.1485,4.149,4.1401,4.1311,4.1255,4.1351,4.1512,4.1578,4.176,4.1952,4.2198,4.242,4.2578,4.2675,4.2674,4.2635,4.2577,4.2518,4.2519,4.2559,4.2541,4.2619,4.2715,4.2771,4.2828,4.2995,4.3178,4.3249,4.3105,4.2921,4.3105,4.3267,4.3338,4.3615,4.3942,4.42,4.4644,4.4925,4.5222,4.5828,4.6067,4.6232,4.6618,4.7114,4.7427,4.7941,4.8365,4.8569,4.8623,4.8732,4.8839,4.8855,4.8803,4.882,4.8855,4.889,4.889,4.889,4.889,4.8785,4.8714,4.8641,4.8569,4.844,4.8421,4.8476,4.8232,4.7939,4.8078,4.8308,4.8154,4.8017,4.7828,4.7652,4.7497,4.7288,4.701,4.6699,4.6292,4.5853,4.5569,4.5561,4.5714,3.6766,3.6786,3.7376,3.7633,3.7806,3.9129,4.017,4.0843,4.0877,4.0894,4.0894,4.0894,4.0894,4.0894,4.0894,4.0894,4.0894,4.0894,4.0894,4.0942,4.0971,4.0948,4.1035,4.1082,4.1305,4.1468,4.1692,4.2011,4.2198,4.2218,4.2218,4.2157,4.2015,4.2077,4.1997,4.1955,4.1846,4.1952,4.2038,4.2118,4.2262,4.2619,4.2771,4.2958,4.3124,4.3268,4.3286,4.3286,4.316,4.3142,4.3214,4.3178,4.3249,4.3409,4.3617,4.3719,4.3703,4.3686,4.3686,4.3703,4.3701,4.3531,4.3667,4.3818,4.3983,4.4147,4.448,4.491,4.5375,4.5622,4.5938,4.6176,4.6433,4.6728,4.7077,4.739,4.7592,4.8016,4.8476,4.866,4.8678,4.8732,4.8821,4.8856,4.889,4.889,4.889,4.889,4.889,4.889,4.889,4.8873,4.8838,4.8855,4.8767,4.8678,4.8678,4.8678,4.875,4.8569,4.8731,4.8731,4.8569,4.8439,4.8402,4.8288,4.8076,4.7858,4.7635,4.7331,4.7045,4.6628,4.6206,4.6123,4.6205,3.6664,3.6683,3.7841,3.8311,3.8513,3.9911,4.0705,4.0894,4.0894,4.0894,4.0894,4.0894,4.0894,4.0894,4.0894,4.0894,4.0894,4.0894,4.0894,4.0971,4.1146,4.1283,4.1423,4.16,4.1842,4.2071,4.2297,4.2478,4.2653,4.2692,4.2478,4.2239,4.2362,4.2523,4.2658,4.2697,4.2524,4.2426,4.2505,4.262,4.2753,4.3014,4.3195,4.3391,4.3479,4.3566,4.3532,4.3532,4.341,4.3462,4.3496,4.3513,4.3652,4.3734,4.3851,4.3867,4.3832,4.3851,4.3837,4.3899,4.3929,4.3899,4.3913,4.4321,4.4559,4.4856,4.5152,4.5549,4.6147,4.654,4.6874,4.7132,4.7316,4.7555,4.7831,4.7978,4.8162,4.8273,4.8697,4.8768,4.8767,4.8767,4.8856,4.8874,4.889,4.889,4.889,4.889,4.889,4.889,4.889,4.889,4.889,4.889,4.889,4.8803,4.8838,4.8873,4.889,4.889,4.8855,4.8838,4.8873,4.882,4.8678,4.866,4.8641,4.8402,4.8096,4.7975,4.7688,4.7281,4.6931,4.6812,4.6625,3.6623,3.6658,3.7694,3.8496,3.9198,4.0377,4.0894,4.0894,4.0894,4.0894,4.0894,4.0894,4.0894,4.0894,4.0894,4.0894,4.0894,4.0894,4.0989,4.1237,4.1423,4.16,4.1842,4.2074,4.2259,4.2516,4.2749,4.2901,4.3068,4.3105,4.2958,4.2847,4.2791,4.2977,4.3231,4.332,4.3213,4.3087,4.3087,4.3141,4.3249,4.3355,4.3546,4.3615,4.3667,4.3634,4.3583,4.3566,4.3617,4.3615,4.3634,4.3736,4.3837,4.3915,4.3926,4.3926,4.3945,4.3929,4.3931,4.3961,4.3958,4.3976,4.4066,4.466,4.509,4.544,4.5706,4.6082,4.6883,4.7551,4.7904,4.8218,4.8348,4.8514,4.8587,4.8696,4.8696,4.8678,4.8786,4.8855,4.8873,4.8873,4.889,4.889,4.889,4.889,4.889,4.889,4.889,4.889,4.889,4.889,4.889,4.889,4.889,4.889,4.889,4.889,4.889,4.889,4.889,4.889,4.889,4.889,4.8873,4.8838,4.8803,4.8732,4.8514,4.8383,4.825,4.7997,4.7632,4.7353,4.7133,3.6623,3.6551,3.7275,3.8461,3.9698,4.0526,4.0894,4.0894,4.0894,4.0894,4.0894,4.0894,4.0894,4.0894,4.0894,4.0965,4.1018,4.1065,4.126,4.1561,4.1778,4.1969,4.2198,4.232,4.2674,4.2882,4.3031,4.3196,4.3392,4.341,4.341,4.3582,4.3443,4.3478,4.3632,4.3684,4.3615,4.3597,4.3597,4.3666,4.3734,4.3835,4.3883,4.382,4.3804,4.3771,4.3703,4.3684,4.3736,4.3701,4.3718,4.3835,4.3897,4.3961,4.3989,4.3989,4.3989,4.3992,4.4051,4.4175,4.4265,4.4246,4.4228,4.5101,4.5698,4.5846,4.6073,4.6911,4.7749,4.8048,4.8364,4.8512,4.8623,4.8678,4.8732,4.8786,4.8804,4.8786,4.8821,4.8891,4.889,4.889,4.889,4.889,4.889,4.889,4.889,4.889,4.889,4.889,4.889,4.889,4.889,4.889,4.889,4.889,4.889,4.889,4.889,4.889,4.889,4.889,4.889,4.889,4.889,4.889,4.8855,4.8785,4.8767,4.875,4.8641,4.8642,4.8364,4.7957,4.7591,3.6561,3.6481,3.7789,3.887,3.975,4.0567,4.0894,4.0894,4.0894,4.0894,4.0894,4.0894,4.0894,4.0894,4.0942,4.1065,4.1283,4.1396,4.1626,4.2032,4.2297,4.244,4.2751,4.2921,4.3178,4.3286,4.3375,4.3375,4.3462,4.3515,4.3515,4.3531,4.3531,4.3651,4.3718,4.3736,4.382,4.3835,4.3818,4.3851,4.3865,4.3913,4.3961,4.3915,4.3867,4.3835,4.3786,4.3788,4.3818,4.3835,4.3849,4.3913,4.3974,4.4008,4.4023,4.4023,4.4153,4.4265,4.4395,4.4692,4.4952,4.5212,4.5435,4.5955,4.629,4.6234,4.6682,4.7687,4.8339,4.8545,4.8676,4.875,4.8804,4.8804,4.8804,4.8839,4.8874,4.8874,4.8892,4.8891,4.889,4.889,4.889,4.889,4.889,4.889,4.889,4.889,4.889,4.889,4.889,4.889,4.889,4.889,4.889,4.889,4.889,4.889,4.889,4.889,4.889,4.889,4.889,4.889,4.889,4.889,4.889,4.8873,4.8873,4.889,4.8873,4.8785,4.8785,4.8495,4.8097,3.6753,3.6745,3.8027,3.8858,3.937,4.0411,4.0894,4.0894,4.0894,4.0894,4.0894,4.0894,4.0894,4.0965,4.1065,4.1277,4.1578,4.1735,4.2074,4.2498,4.275,4.2957,4.3196,4.3375,4.341,4.3479,4.3479,4.3479,4.3479,4.3515,4.3515,4.3531,4.3582,4.3634,4.3686,4.3771,4.3788,4.3804,4.3788,4.3818,4.3881,4.391,4.3958,4.3929,4.3929,4.3897,4.3883,4.3867,4.3899,4.3913,4.3929,4.3942,4.4119,4.4413,4.4581,4.4748,4.4934,4.5101,4.5212,4.5454,4.5825,4.6048,4.6141,4.6475,4.7033,4.7033,4.707,4.7983,4.8521,4.8783,4.8783,4.8839,4.8839,4.8856,4.8856,4.8855,4.8873,4.8891,4.8891,4.8891,4.889,4.889,4.889,4.889,4.889,4.889,4.889,4.889,4.889,4.889,4.889,4.889,4.889,4.889,4.889,4.889,4.889,4.889,4.889,4.889,4.889,4.889,4.889,4.8909,4.8909,4.889,4.889,4.9076,4.8946,4.889,4.889,4.8873,4.8909,4.8946,4.8679,3.7071,3.7068,3.8078,3.8575,3.8801,4.0095,4.0808,4.0894,4.0894,4.0942,4.0995,4.1012,4.0965,4.1094,4.1378,4.1539,4.1799,4.2157,4.2557,4.2845,4.2976,4.3178,4.3339,4.3479,4.3479,4.3479,4.3479,4.3479,4.3479,4.3515,4.3513,4.3565,4.3599,4.3651,4.3736,4.3771,4.3736,4.3719,4.3719,4.3786,4.3832,4.3897,4.3926,4.3974,4.3989,4.3992,4.3961,4.3961,4.3958,4.3958,4.3995,4.4156,4.4413,4.4822,4.5212,4.5435,4.5825,4.6104,4.6327,4.6438,4.6605,4.668,4.6698,4.7051,4.7664,4.7831,4.7868,4.811,4.8667,4.8872,4.8873,4.8891,4.8891,4.8891,4.889,4.889,4.889,4.889,4.889,4.889,4.8907,4.8907,4.8925,4.8907,4.8907,4.889,4.889,4.889,4.889,4.889,4.889,4.889,4.889,4.889,4.889,4.889,4.889,4.889,4.889,4.889,4.889,4.889,4.8909,4.8946,4.8946,4.9206,4.9373,4.9577,4.9355,4.9206,4.9243,4.9317,4.9002,4.9057,4.9169,3.7319,3.6968,3.7851,3.8355,3.8725,3.956,4.0284,4.0843,4.0918,4.1065,4.1351,4.1378,4.1378,4.1423,4.1864,4.2157,4.2438,4.2674,4.2995,4.3339,4.3286,4.3392,4.3462,4.3479,4.3479,4.3479,4.3479,4.3479,4.3479,4.3479,4.3496,4.3549,4.3599,4.3582,4.3566,4.36,4.3669,4.3617,4.36,4.3651,4.3802,4.3867,4.3945,4.3974,4.4005,4.3989,4.3989,4.3989,4.3989,4.3989,4.4026,4.4358,4.4822,4.5249,4.5677,4.6252,4.6661,4.6791,4.6977,4.7274,4.7404,4.7516,4.7683,4.8147,4.85,4.8519,4.8537,4.8537,4.889,4.889,4.889,4.889,4.889,4.889,4.889,4.889,4.889,4.889,4.8926,4.8925,4.8959,4.8993,4.9008,4.901,4.8959,4.8942,4.8907,4.8907,4.889,4.889,4.889,4.889,4.889,4.889,4.889,4.889,4.889,4.889,4.8983,4.915,4.9132,4.8909,4.8946,4.9429,4.967,4.993,5.006,5.019,5.0209,5.0116,4.9949,4.9819,4.9466,4.9429,4.9763]}]]